<?xml version="1.0" encoding="UTF-8" standalone="no" ?>
<gpx xmlns="http://www.topografix.com/GPX/1/1" xmlns:xsi="http://www.w3.org/2001/XMLSchema-instance" xsi:schemaLocation="http://www.topografix.com/GPX/1/1 http://www.topografix.com/GPX/1/1/gpx.xsd" version="1.1" creator="VisuGPX - https://www.visugpx.com">
  <metadata>
    <name>randonnée BRUNOY: les bords de l\'Yerres</name>
    <desc><![CDATA[Randonnée du 07/10/2014 sur les bords de l\'Yerres à Brunoy]]></desc>
  </metadata>
  <trk>
    <name><![CDATA[Rando BRUNOY]]></name>
    <desc><![CDATA[]]></desc>
    <trkseg>
      <trkpt lat="48.69686" lon="2.49908">
        <ele>93</ele>
        <time>2014-10-07T07:23:18.658Z</time>
      </trkpt>
      <trkpt lat="48.69681" lon="2.49901">
        <ele>92</ele>
        <time>2014-10-07T07:26:09.645Z</time>
      </trkpt>
      <trkpt lat="48.69677" lon="2.49897">
        <ele>93</ele>
        <time>2014-10-07T07:26:10.616Z</time>
      </trkpt>
      <trkpt lat="48.69671" lon="2.49891">
        <ele>91</ele>
        <time>2014-10-07T07:26:12.620Z</time>
      </trkpt>
      <trkpt lat="48.69667" lon="2.49888">
        <ele>90</ele>
        <time>2014-10-07T07:26:13.600Z</time>
      </trkpt>
      <trkpt lat="48.6966" lon="2.49883">
        <ele>90</ele>
        <time>2014-10-07T07:26:16.106Z</time>
      </trkpt>
      <trkpt lat="48.69658" lon="2.49879">
        <ele>92</ele>
        <time>2014-10-07T07:26:16.598Z</time>
      </trkpt>
      <trkpt lat="48.69653" lon="2.49872">
        <ele>91</ele>
        <time>2014-10-07T07:26:18.757Z</time>
      </trkpt>
      <trkpt lat="48.69651" lon="2.49869">
        <ele>94</ele>
        <time>2014-10-07T07:26:19.644Z</time>
      </trkpt>
      <trkpt lat="48.69643" lon="2.49867">
        <ele>88</ele>
        <time>2014-10-07T07:26:22.647Z</time>
      </trkpt>
      <trkpt lat="48.69641" lon="2.49867">
        <ele>87</ele>
        <time>2014-10-07T07:26:23.656Z</time>
      </trkpt>
      <trkpt lat="48.69633" lon="2.49862">
        <ele>85</ele>
        <time>2014-10-07T07:26:30.636Z</time>
      </trkpt>
      <trkpt lat="48.69632" lon="2.49861">
        <ele>85</ele>
        <time>2014-10-07T07:26:31.645Z</time>
      </trkpt>
      <trkpt lat="48.69629" lon="2.49873">
        <ele>92</ele>
        <time>2014-10-07T07:26:45.645Z</time>
      </trkpt>
      <trkpt lat="48.69628" lon="2.49876">
        <ele>91</ele>
        <time>2014-10-07T07:26:46.614Z</time>
      </trkpt>
      <trkpt lat="48.69622" lon="2.49883">
        <ele>91</ele>
        <time>2014-10-07T07:26:51.625Z</time>
      </trkpt>
      <trkpt lat="48.69621" lon="2.49886">
        <ele>92</ele>
        <time>2014-10-07T07:26:52.644Z</time>
      </trkpt>
      <trkpt lat="48.69616" lon="2.49895">
        <ele>88</ele>
        <time>2014-10-07T07:26:57.641Z</time>
      </trkpt>
      <trkpt lat="48.69615" lon="2.49897">
        <ele>87</ele>
        <time>2014-10-07T07:26:58.638Z</time>
      </trkpt>
      <trkpt lat="48.69608" lon="2.49905">
        <ele>87</ele>
        <time>2014-10-07T07:27:05.603Z</time>
      </trkpt>
      <trkpt lat="48.69608" lon="2.49907">
        <ele>88</ele>
        <time>2014-10-07T07:27:06.640Z</time>
      </trkpt>
      <trkpt lat="48.69607" lon="2.49919">
        <ele>84</ele>
        <time>2014-10-07T07:27:12.611Z</time>
      </trkpt>
      <trkpt lat="48.69607" lon="2.49921">
        <ele>87</ele>
        <time>2014-10-07T07:27:13.646Z</time>
      </trkpt>
      <trkpt lat="48.69604" lon="2.49932">
        <ele>85</ele>
        <time>2014-10-07T07:27:19.645Z</time>
      </trkpt>
      <trkpt lat="48.69602" lon="2.49934">
        <ele>85</ele>
        <time>2014-10-07T07:27:20.636Z</time>
      </trkpt>
      <trkpt lat="48.69601" lon="2.49946">
        <ele>82</ele>
        <time>2014-10-07T07:27:27.829Z</time>
      </trkpt>
      <trkpt lat="48.69601" lon="2.49949">
        <ele>84</ele>
        <time>2014-10-07T07:27:28.597Z</time>
      </trkpt>
      <trkpt lat="48.69596" lon="2.4996">
        <ele>86</ele>
        <time>2014-10-07T07:27:33.733Z</time>
      </trkpt>
      <trkpt lat="48.69595" lon="2.49962">
        <ele>85</ele>
        <time>2014-10-07T07:27:34.635Z</time>
      </trkpt>
      <trkpt lat="48.69588" lon="2.49969">
        <ele>85</ele>
        <time>2014-10-07T07:27:39.614Z</time>
      </trkpt>
      <trkpt lat="48.69585" lon="2.49969">
        <ele>84</ele>
        <time>2014-10-07T07:27:40.637Z</time>
      </trkpt>
      <trkpt lat="48.69577" lon="2.49973">
        <ele>83</ele>
        <time>2014-10-07T07:27:45.636Z</time>
      </trkpt>
      <trkpt lat="48.69574" lon="2.49972">
        <ele>84</ele>
        <time>2014-10-07T07:27:46.640Z</time>
      </trkpt>
      <trkpt lat="48.69565" lon="2.49972">
        <ele>82</ele>
        <time>2014-10-07T07:27:50.606Z</time>
      </trkpt>
      <trkpt lat="48.69564" lon="2.49974">
        <ele>83</ele>
        <time>2014-10-07T07:27:51.649Z</time>
      </trkpt>
      <trkpt lat="48.69563" lon="2.49985">
        <ele>85</ele>
        <time>2014-10-07T07:27:56.612Z</time>
      </trkpt>
      <trkpt lat="48.69563" lon="2.49988">
        <ele>85</ele>
        <time>2014-10-07T07:27:57.634Z</time>
      </trkpt>
      <trkpt lat="48.69567" lon="2.5">
        <ele>85</ele>
        <time>2014-10-07T07:28:01.598Z</time>
      </trkpt>
      <trkpt lat="48.69567" lon="2.50002">
        <ele>86</ele>
        <time>2014-10-07T07:28:02.633Z</time>
      </trkpt>
      <trkpt lat="48.69561" lon="2.50012">
        <ele>81</ele>
        <time>2014-10-07T07:28:10.637Z</time>
      </trkpt>
      <trkpt lat="48.69561" lon="2.50014">
        <ele>82</ele>
        <time>2014-10-07T07:28:11.670Z</time>
      </trkpt>
      <trkpt lat="48.69555" lon="2.50023">
        <ele>85</ele>
        <time>2014-10-07T07:28:16.635Z</time>
      </trkpt>
      <trkpt lat="48.69554" lon="2.50025">
        <ele>84</ele>
        <time>2014-10-07T07:28:17.642Z</time>
      </trkpt>
      <trkpt lat="48.69549" lon="2.50034">
        <ele>83</ele>
        <time>2014-10-07T07:28:24.637Z</time>
      </trkpt>
      <trkpt lat="48.69548" lon="2.50036">
        <ele>84</ele>
        <time>2014-10-07T07:28:25.614Z</time>
      </trkpt>
      <trkpt lat="48.69544" lon="2.50047">
        <ele>83</ele>
        <time>2014-10-07T07:28:33.606Z</time>
      </trkpt>
      <trkpt lat="48.69544" lon="2.50049">
        <ele>83</ele>
        <time>2014-10-07T07:28:34.636Z</time>
      </trkpt>
      <trkpt lat="48.69541" lon="2.5006">
        <ele>84</ele>
        <time>2014-10-07T07:28:41.633Z</time>
      </trkpt>
      <trkpt lat="48.6954" lon="2.50061">
        <ele>83</ele>
        <time>2014-10-07T07:28:42.599Z</time>
      </trkpt>
      <trkpt lat="48.69535" lon="2.50071">
        <ele>86</ele>
        <time>2014-10-07T07:28:49.112Z</time>
      </trkpt>
      <trkpt lat="48.69535" lon="2.50072">
        <ele>86</ele>
        <time>2014-10-07T07:28:49.630Z</time>
      </trkpt>
      <trkpt lat="48.6953" lon="2.50082">
        <ele>86</ele>
        <time>2014-10-07T07:28:55.635Z</time>
      </trkpt>
      <trkpt lat="48.6953" lon="2.50084">
        <ele>87</ele>
        <time>2014-10-07T07:28:56.635Z</time>
      </trkpt>
      <trkpt lat="48.69526" lon="2.50096">
        <ele>84</ele>
        <time>2014-10-07T07:29:04.174Z</time>
      </trkpt>
      <trkpt lat="48.69526" lon="2.50097">
        <ele>84</ele>
        <time>2014-10-07T07:29:04.603Z</time>
      </trkpt>
      <trkpt lat="48.69522" lon="2.50109">
        <ele>84</ele>
        <time>2014-10-07T07:29:12.620Z</time>
      </trkpt>
      <trkpt lat="48.69522" lon="2.50111">
        <ele>84</ele>
        <time>2014-10-07T07:29:13.642Z</time>
      </trkpt>
      <trkpt lat="48.69514" lon="2.50115">
        <ele>82</ele>
        <time>2014-10-07T07:29:19.638Z</time>
      </trkpt>
      <trkpt lat="48.69512" lon="2.50116">
        <ele>82</ele>
        <time>2014-10-07T07:29:20.641Z</time>
      </trkpt>
      <trkpt lat="48.69512" lon="2.50129">
        <ele>84</ele>
        <time>2014-10-07T07:29:26.596Z</time>
      </trkpt>
      <trkpt lat="48.69512" lon="2.50132">
        <ele>85</ele>
        <time>2014-10-07T07:29:27.637Z</time>
      </trkpt>
      <trkpt lat="48.69509" lon="2.50144">
        <ele>86</ele>
        <time>2014-10-07T07:29:33.787Z</time>
      </trkpt>
      <trkpt lat="48.69508" lon="2.50146">
        <ele>86</ele>
        <time>2014-10-07T07:29:34.633Z</time>
      </trkpt>
      <trkpt lat="48.69502" lon="2.50154">
        <ele>86</ele>
        <time>2014-10-07T07:29:41.597Z</time>
      </trkpt>
      <trkpt lat="48.69501" lon="2.50156">
        <ele>86</ele>
        <time>2014-10-07T07:29:42.596Z</time>
      </trkpt>
      <trkpt lat="48.69495" lon="2.50166">
        <ele>86</ele>
        <time>2014-10-07T07:29:49.671Z</time>
      </trkpt>
      <trkpt lat="48.69494" lon="2.50167">
        <ele>85</ele>
        <time>2014-10-07T07:29:50.634Z</time>
      </trkpt>
      <trkpt lat="48.69489" lon="2.50177">
        <ele>87</ele>
        <time>2014-10-07T07:29:58.885Z</time>
      </trkpt>
      <trkpt lat="48.69488" lon="2.50179">
        <ele>88</ele>
        <time>2014-10-07T07:29:59.608Z</time>
      </trkpt>
      <trkpt lat="48.6948" lon="2.50183">
        <ele>89</ele>
        <time>2014-10-07T07:30:05.646Z</time>
      </trkpt>
      <trkpt lat="48.69479" lon="2.50184">
        <ele>90</ele>
        <time>2014-10-07T07:30:06.649Z</time>
      </trkpt>
      <trkpt lat="48.69484" lon="2.50195">
        <ele>92</ele>
        <time>2014-10-07T07:30:20.633Z</time>
      </trkpt>
      <trkpt lat="48.69485" lon="2.50196">
        <ele>93</ele>
        <time>2014-10-07T07:30:21.637Z</time>
      </trkpt>
      <trkpt lat="48.69489" lon="2.50207">
        <ele>94</ele>
        <time>2014-10-07T07:30:26.646Z</time>
      </trkpt>
      <trkpt lat="48.6949" lon="2.50208">
        <ele>93</ele>
        <time>2014-10-07T07:30:27.639Z</time>
      </trkpt>
      <trkpt lat="48.69493" lon="2.50211">
        <ele>92</ele>
        <time>2014-10-07T07:30:38.760Z</time>
      </trkpt>
      <trkpt lat="48.69504" lon="2.50223">
        <ele>90</ele>
        <time>2014-10-07T07:30:40.618Z</time>
      </trkpt>
      <trkpt lat="48.69506" lon="2.50234">
        <ele>85</ele>
        <time>2014-10-07T07:30:48.761Z</time>
      </trkpt>
      <trkpt lat="48.69507" lon="2.50235">
        <ele>84</ele>
        <time>2014-10-07T07:30:49.639Z</time>
      </trkpt>
      <trkpt lat="48.69514" lon="2.50243">
        <ele>82</ele>
        <time>2014-10-07T07:31:01.603Z</time>
      </trkpt>
      <trkpt lat="48.69515" lon="2.50243">
        <ele>81</ele>
        <time>2014-10-07T07:31:02.637Z</time>
      </trkpt>
      <trkpt lat="48.69523" lon="2.50246">
        <ele>78</ele>
        <time>2014-10-07T07:31:08.845Z</time>
      </trkpt>
      <trkpt lat="48.69524" lon="2.50246">
        <ele>79</ele>
        <time>2014-10-07T07:31:09.647Z</time>
      </trkpt>
      <trkpt lat="48.69533" lon="2.50245">
        <ele>83</ele>
        <time>2014-10-07T07:31:56.598Z</time>
      </trkpt>
      <trkpt lat="48.69533" lon="2.50245">
        <ele>83</ele>
        <time>2014-10-07T07:31:57.705Z</time>
      </trkpt>
      <trkpt lat="48.6954" lon="2.50251">
        <ele>82</ele>
        <time>2014-10-07T07:32:08.598Z</time>
      </trkpt>
      <trkpt lat="48.69543" lon="2.50253">
        <ele>81</ele>
        <time>2014-10-07T07:32:09.597Z</time>
      </trkpt>
      <trkpt lat="48.69551" lon="2.50256">
        <ele>76</ele>
        <time>2014-10-07T07:32:12.613Z</time>
      </trkpt>
      <trkpt lat="48.69553" lon="2.50257">
        <ele>75</ele>
        <time>2014-10-07T07:32:13.640Z</time>
      </trkpt>
      <trkpt lat="48.6956" lon="2.50263">
        <ele>75</ele>
        <time>2014-10-07T07:32:17.603Z</time>
      </trkpt>
      <trkpt lat="48.69563" lon="2.50264">
        <ele>75</ele>
        <time>2014-10-07T07:32:18.630Z</time>
      </trkpt>
      <trkpt lat="48.6957" lon="2.50267">
        <ele>75</ele>
        <time>2014-10-07T07:32:21.596Z</time>
      </trkpt>
      <trkpt lat="48.69572" lon="2.50268">
        <ele>76</ele>
        <time>2014-10-07T07:32:22.599Z</time>
      </trkpt>
      <trkpt lat="48.69579" lon="2.50272">
        <ele>76</ele>
        <time>2014-10-07T07:32:26.637Z</time>
      </trkpt>
      <trkpt lat="48.6958" lon="2.50274">
        <ele>78</ele>
        <time>2014-10-07T07:32:27.645Z</time>
      </trkpt>
      <trkpt lat="48.69586" lon="2.50283">
        <ele>79</ele>
        <time>2014-10-07T07:32:32.673Z</time>
      </trkpt>
      <trkpt lat="48.69588" lon="2.50285">
        <ele>79</ele>
        <time>2014-10-07T07:32:33.629Z</time>
      </trkpt>
      <trkpt lat="48.69593" lon="2.50296">
        <ele>81</ele>
        <time>2014-10-07T07:32:38.597Z</time>
      </trkpt>
      <trkpt lat="48.69594" lon="2.50297">
        <ele>81</ele>
        <time>2014-10-07T07:32:39.633Z</time>
      </trkpt>
      <trkpt lat="48.69602" lon="2.50298">
        <ele>85</ele>
        <time>2014-10-07T07:32:44.635Z</time>
      </trkpt>
      <trkpt lat="48.69604" lon="2.50297">
        <ele>84</ele>
        <time>2014-10-07T07:32:45.600Z</time>
      </trkpt>
      <trkpt lat="48.69612" lon="2.503">
        <ele>86</ele>
        <time>2014-10-07T07:32:52.602Z</time>
      </trkpt>
      <trkpt lat="48.69612" lon="2.50301">
        <ele>86</ele>
        <time>2014-10-07T07:32:53.644Z</time>
      </trkpt>
      <trkpt lat="48.69618" lon="2.50308">
        <ele>86</ele>
        <time>2014-10-07T07:33:01.634Z</time>
      </trkpt>
      <trkpt lat="48.6962" lon="2.5031">
        <ele>87</ele>
        <time>2014-10-07T07:33:02.598Z</time>
      </trkpt>
      <trkpt lat="48.69625" lon="2.50318">
        <ele>88</ele>
        <time>2014-10-07T07:33:06.608Z</time>
      </trkpt>
      <trkpt lat="48.69626" lon="2.5032">
        <ele>89</ele>
        <time>2014-10-07T07:33:07.632Z</time>
      </trkpt>
      <trkpt lat="48.69621" lon="2.5033">
        <ele>87</ele>
        <time>2014-10-07T07:33:16.643Z</time>
      </trkpt>
      <trkpt lat="48.69619" lon="2.50332">
        <ele>87</ele>
        <time>2014-10-07T07:33:17.639Z</time>
      </trkpt>
      <trkpt lat="48.69617" lon="2.50343">
        <ele>88</ele>
        <time>2014-10-07T07:33:22.642Z</time>
      </trkpt>
      <trkpt lat="48.69617" lon="2.50346">
        <ele>88</ele>
        <time>2014-10-07T07:33:23.645Z</time>
      </trkpt>
      <trkpt lat="48.69618" lon="2.50357">
        <ele>87</ele>
        <time>2014-10-07T07:33:27.645Z</time>
      </trkpt>
      <trkpt lat="48.69618" lon="2.5036">
        <ele>86</ele>
        <time>2014-10-07T07:33:28.636Z</time>
      </trkpt>
      <trkpt lat="48.69615" lon="2.50371">
        <ele>81</ele>
        <time>2014-10-07T07:33:35.644Z</time>
      </trkpt>
      <trkpt lat="48.69615" lon="2.50373">
        <ele>82</ele>
        <time>2014-10-07T07:33:36.645Z</time>
      </trkpt>
      <trkpt lat="48.69611" lon="2.50384">
        <ele>85</ele>
        <time>2014-10-07T07:33:49.610Z</time>
      </trkpt>
      <trkpt lat="48.69611" lon="2.50386">
        <ele>84</ele>
        <time>2014-10-07T07:33:50.639Z</time>
      </trkpt>
      <trkpt lat="48.69608" lon="2.50399">
        <ele>83</ele>
        <time>2014-10-07T07:33:59.686Z</time>
      </trkpt>
      <trkpt lat="48.69608" lon="2.50401">
        <ele>84</ele>
        <time>2014-10-07T07:34:00.599Z</time>
      </trkpt>
      <trkpt lat="48.69605" lon="2.50411">
        <ele>83</ele>
        <time>2014-10-07T07:34:06.631Z</time>
      </trkpt>
      <trkpt lat="48.69605" lon="2.50414">
        <ele>83</ele>
        <time>2014-10-07T07:34:07.631Z</time>
      </trkpt>
      <trkpt lat="48.69605" lon="2.50426">
        <ele>79</ele>
        <time>2014-10-07T07:34:13.643Z</time>
      </trkpt>
      <trkpt lat="48.69606" lon="2.50428">
        <ele>80</ele>
        <time>2014-10-07T07:34:14.646Z</time>
      </trkpt>
      <trkpt lat="48.69606" lon="2.50442">
        <ele>80</ele>
        <time>2014-10-07T07:34:21.607Z</time>
      </trkpt>
      <trkpt lat="48.69605" lon="2.50445">
        <ele>81</ele>
        <time>2014-10-07T07:34:22.632Z</time>
      </trkpt>
      <trkpt lat="48.69602" lon="2.50456">
        <ele>81</ele>
        <time>2014-10-07T07:34:29.656Z</time>
      </trkpt>
      <trkpt lat="48.69601" lon="2.50458">
        <ele>82</ele>
        <time>2014-10-07T07:34:30.634Z</time>
      </trkpt>
      <trkpt lat="48.69602" lon="2.5047">
        <ele>84</ele>
        <time>2014-10-07T07:34:35.639Z</time>
      </trkpt>
      <trkpt lat="48.69601" lon="2.50473">
        <ele>85</ele>
        <time>2014-10-07T07:34:36.617Z</time>
      </trkpt>
      <trkpt lat="48.69604" lon="2.50483">
        <ele>88</ele>
        <time>2014-10-07T07:34:39.598Z</time>
      </trkpt>
      <trkpt lat="48.69605" lon="2.50487">
        <ele>88</ele>
        <time>2014-10-07T07:34:40.633Z</time>
      </trkpt>
      <trkpt lat="48.69607" lon="2.505">
        <ele>90</ele>
        <time>2014-10-07T07:34:44.664Z</time>
      </trkpt>
      <trkpt lat="48.69607" lon="2.50502">
        <ele>88</ele>
        <time>2014-10-07T07:34:45.638Z</time>
      </trkpt>
      <trkpt lat="48.69599" lon="2.50507">
        <ele>86</ele>
        <time>2014-10-07T07:34:50.811Z</time>
      </trkpt>
      <trkpt lat="48.69598" lon="2.50508">
        <ele>87</ele>
        <time>2014-10-07T07:34:51.689Z</time>
      </trkpt>
      <trkpt lat="48.69594" lon="2.50519">
        <ele>85</ele>
        <time>2014-10-07T07:34:57.635Z</time>
      </trkpt>
      <trkpt lat="48.69593" lon="2.50521">
        <ele>85</ele>
        <time>2014-10-07T07:34:58.632Z</time>
      </trkpt>
      <trkpt lat="48.69595" lon="2.50534">
        <ele>86</ele>
        <time>2014-10-07T07:35:03.893Z</time>
      </trkpt>
      <trkpt lat="48.69595" lon="2.50537">
        <ele>86</ele>
        <time>2014-10-07T07:35:04.595Z</time>
      </trkpt>
      <trkpt lat="48.69592" lon="2.50549">
        <ele>89</ele>
        <time>2014-10-07T07:35:09.640Z</time>
      </trkpt>
      <trkpt lat="48.69592" lon="2.50552">
        <ele>89</ele>
        <time>2014-10-07T07:35:10.643Z</time>
      </trkpt>
      <trkpt lat="48.69598" lon="2.50562">
        <ele>89</ele>
        <time>2014-10-07T07:35:21.637Z</time>
      </trkpt>
      <trkpt lat="48.69599" lon="2.50564">
        <ele>89</ele>
        <time>2014-10-07T07:35:22.633Z</time>
      </trkpt>
      <trkpt lat="48.69603" lon="2.50574">
        <ele>87</ele>
        <time>2014-10-07T07:35:27.618Z</time>
      </trkpt>
      <trkpt lat="48.69605" lon="2.50576">
        <ele>86</ele>
        <time>2014-10-07T07:35:28.642Z</time>
      </trkpt>
      <trkpt lat="48.69607" lon="2.50582">
        <ele>87</ele>
        <time>2014-10-07T07:35:38.745Z</time>
      </trkpt>
      <trkpt lat="48.69605" lon="2.50596">
        <ele>81</ele>
        <time>2014-10-07T07:35:39.629Z</time>
      </trkpt>
      <trkpt lat="48.69597" lon="2.50601">
        <ele>78</ele>
        <time>2014-10-07T07:35:45.640Z</time>
      </trkpt>
      <trkpt lat="48.69595" lon="2.50603">
        <ele>79</ele>
        <time>2014-10-07T07:35:46.634Z</time>
      </trkpt>
      <trkpt lat="48.69598" lon="2.50613">
        <ele>78</ele>
        <time>2014-10-07T07:35:49.643Z</time>
      </trkpt>
      <trkpt lat="48.69601" lon="2.50616">
        <ele>79</ele>
        <time>2014-10-07T07:35:50.643Z</time>
      </trkpt>
      <trkpt lat="48.69608" lon="2.50621">
        <ele>79</ele>
        <time>2014-10-07T07:35:53.776Z</time>
      </trkpt>
      <trkpt lat="48.69611" lon="2.50621">
        <ele>75</ele>
        <time>2014-10-07T07:35:54.598Z</time>
      </trkpt>
      <trkpt lat="48.69615" lon="2.50632">
        <ele>77</ele>
        <time>2014-10-07T07:36:01.662Z</time>
      </trkpt>
      <trkpt lat="48.69615" lon="2.50634">
        <ele>78</ele>
        <time>2014-10-07T07:36:02.644Z</time>
      </trkpt>
      <trkpt lat="48.69614" lon="2.50647">
        <ele>81</ele>
        <time>2014-10-07T07:36:09.639Z</time>
      </trkpt>
      <trkpt lat="48.69611" lon="2.50648">
        <ele>80</ele>
        <time>2014-10-07T07:36:10.641Z</time>
      </trkpt>
      <trkpt lat="48.6961" lon="2.50659">
        <ele>82</ele>
        <time>2014-10-07T07:36:14.644Z</time>
      </trkpt>
      <trkpt lat="48.69611" lon="2.50662">
        <ele>83</ele>
        <time>2014-10-07T07:36:15.641Z</time>
      </trkpt>
      <trkpt lat="48.69617" lon="2.50672">
        <ele>79</ele>
        <time>2014-10-07T07:36:18.644Z</time>
      </trkpt>
      <trkpt lat="48.69617" lon="2.50674">
        <ele>80</ele>
        <time>2014-10-07T07:36:19.648Z</time>
      </trkpt>
      <trkpt lat="48.69617" lon="2.50687">
        <ele>78</ele>
        <time>2014-10-07T07:36:27.673Z</time>
      </trkpt>
      <trkpt lat="48.69617" lon="2.5069">
        <ele>78</ele>
        <time>2014-10-07T07:36:28.643Z</time>
      </trkpt>
      <trkpt lat="48.69617" lon="2.50702">
        <ele>77</ele>
        <time>2014-10-07T07:36:36.350Z</time>
      </trkpt>
      <trkpt lat="48.69617" lon="2.50704">
        <ele>76</ele>
        <time>2014-10-07T07:36:36.603Z</time>
      </trkpt>
      <trkpt lat="48.69617" lon="2.50717">
        <ele>82</ele>
        <time>2014-10-07T07:36:43.618Z</time>
      </trkpt>
      <trkpt lat="48.69617" lon="2.50719">
        <ele>83</ele>
        <time>2014-10-07T07:36:44.645Z</time>
      </trkpt>
      <trkpt lat="48.69618" lon="2.5073">
        <ele>83</ele>
        <time>2014-10-07T07:36:48.641Z</time>
      </trkpt>
      <trkpt lat="48.69617" lon="2.50733">
        <ele>84</ele>
        <time>2014-10-07T07:36:49.646Z</time>
      </trkpt>
      <trkpt lat="48.69615" lon="2.50744">
        <ele>82</ele>
        <time>2014-10-07T07:36:53.645Z</time>
      </trkpt>
      <trkpt lat="48.69614" lon="2.50746">
        <ele>83</ele>
        <time>2014-10-07T07:36:54.646Z</time>
      </trkpt>
      <trkpt lat="48.69618" lon="2.50757">
        <ele>74</ele>
        <time>2014-10-07T07:36:58.643Z</time>
      </trkpt>
      <trkpt lat="48.69618" lon="2.50759">
        <ele>75</ele>
        <time>2014-10-07T07:36:59.642Z</time>
      </trkpt>
      <trkpt lat="48.69616" lon="2.50771">
        <ele>80</ele>
        <time>2014-10-07T07:37:06.596Z</time>
      </trkpt>
      <trkpt lat="48.69614" lon="2.50773">
        <ele>80</ele>
        <time>2014-10-07T07:37:07.637Z</time>
      </trkpt>
      <trkpt lat="48.6961" lon="2.50781">
        <ele>79</ele>
        <time>2014-10-07T07:37:11.604Z</time>
      </trkpt>
      <trkpt lat="48.69609" lon="2.50785">
        <ele>82</ele>
        <time>2014-10-07T07:37:12.645Z</time>
      </trkpt>
      <trkpt lat="48.6961" lon="2.50798">
        <ele>81</ele>
        <time>2014-10-07T07:37:16.602Z</time>
      </trkpt>
      <trkpt lat="48.69609" lon="2.508">
        <ele>83</ele>
        <time>2014-10-07T07:37:17.640Z</time>
      </trkpt>
      <trkpt lat="48.69617" lon="2.50805">
        <ele>73</ele>
        <time>2014-10-07T07:37:36.345Z</time>
      </trkpt>
      <trkpt lat="48.69618" lon="2.50807">
        <ele>71</ele>
        <time>2014-10-07T07:37:36.606Z</time>
      </trkpt>
      <trkpt lat="48.6962" lon="2.5082">
        <ele>64</ele>
        <time>2014-10-07T07:37:43.644Z</time>
      </trkpt>
      <trkpt lat="48.69621" lon="2.50821">
        <ele>64</ele>
        <time>2014-10-07T07:37:44.643Z</time>
      </trkpt>
      <trkpt lat="48.69622" lon="2.50833">
        <ele>57</ele>
        <time>2014-10-07T07:37:51.617Z</time>
      </trkpt>
      <trkpt lat="48.69623" lon="2.50835">
        <ele>58</ele>
        <time>2014-10-07T07:37:52.682Z</time>
      </trkpt>
      <trkpt lat="48.69626" lon="2.50844">
        <ele>59</ele>
        <time>2014-10-07T07:37:56.297Z</time>
      </trkpt>
      <trkpt lat="48.69628" lon="2.50847">
        <ele>59</ele>
        <time>2014-10-07T07:37:56.610Z</time>
      </trkpt>
      <trkpt lat="48.69632" lon="2.50858">
        <ele>61</ele>
        <time>2014-10-07T07:38:01.399Z</time>
      </trkpt>
      <trkpt lat="48.69632" lon="2.5086">
        <ele>61</ele>
        <time>2014-10-07T07:38:01.600Z</time>
      </trkpt>
      <trkpt lat="48.69624" lon="2.50867">
        <ele>63</ele>
        <time>2014-10-07T07:38:07.634Z</time>
      </trkpt>
      <trkpt lat="48.69624" lon="2.50869">
        <ele>63</ele>
        <time>2014-10-07T07:38:08.628Z</time>
      </trkpt>
      <trkpt lat="48.69629" lon="2.5088">
        <ele>68</ele>
        <time>2014-10-07T07:38:13.645Z</time>
      </trkpt>
      <trkpt lat="48.69628" lon="2.50882">
        <ele>70</ele>
        <time>2014-10-07T07:38:14.647Z</time>
      </trkpt>
      <trkpt lat="48.69624" lon="2.50893">
        <ele>76</ele>
        <time>2014-10-07T07:38:21.644Z</time>
      </trkpt>
      <trkpt lat="48.69624" lon="2.50895">
        <ele>76</ele>
        <time>2014-10-07T07:38:22.644Z</time>
      </trkpt>
      <trkpt lat="48.69618" lon="2.50904">
        <ele>76</ele>
        <time>2014-10-07T07:38:32.643Z</time>
      </trkpt>
      <trkpt lat="48.69618" lon="2.50905">
        <ele>76</ele>
        <time>2014-10-07T07:38:33.648Z</time>
      </trkpt>
      <trkpt lat="48.69619" lon="2.50918">
        <ele>81</ele>
        <time>2014-10-07T07:38:41.646Z</time>
      </trkpt>
      <trkpt lat="48.69618" lon="2.50921">
        <ele>83</ele>
        <time>2014-10-07T07:38:42.618Z</time>
      </trkpt>
      <trkpt lat="48.69615" lon="2.50933">
        <ele>84</ele>
        <time>2014-10-07T07:38:46.642Z</time>
      </trkpt>
      <trkpt lat="48.69615" lon="2.50937">
        <ele>87</ele>
        <time>2014-10-07T07:38:47.647Z</time>
      </trkpt>
      <trkpt lat="48.69611" lon="2.50949">
        <ele>84</ele>
        <time>2014-10-07T07:38:52.653Z</time>
      </trkpt>
      <trkpt lat="48.69611" lon="2.5095">
        <ele>84</ele>
        <time>2014-10-07T07:38:53.605Z</time>
      </trkpt>
      <trkpt lat="48.69602" lon="2.50955">
        <ele>88</ele>
        <time>2014-10-07T07:38:59.596Z</time>
      </trkpt>
      <trkpt lat="48.69601" lon="2.50957">
        <ele>88</ele>
        <time>2014-10-07T07:39:00.597Z</time>
      </trkpt>
      <trkpt lat="48.69593" lon="2.5096">
        <ele>84</ele>
        <time>2014-10-07T07:39:10.644Z</time>
      </trkpt>
      <trkpt lat="48.69591" lon="2.50958">
        <ele>82</ele>
        <time>2014-10-07T07:39:11.664Z</time>
      </trkpt>
      <trkpt lat="48.69583" lon="2.50956">
        <ele>81</ele>
        <time>2014-10-07T07:39:19.641Z</time>
      </trkpt>
      <trkpt lat="48.69581" lon="2.50956">
        <ele>81</ele>
        <time>2014-10-07T07:39:20.644Z</time>
      </trkpt>
      <trkpt lat="48.69575" lon="2.50966">
        <ele>80</ele>
        <time>2014-10-07T07:39:24.634Z</time>
      </trkpt>
      <trkpt lat="48.69574" lon="2.50968">
        <ele>79</ele>
        <time>2014-10-07T07:39:25.643Z</time>
      </trkpt>
      <trkpt lat="48.69568" lon="2.50977">
        <ele>77</ele>
        <time>2014-10-07T07:39:32.599Z</time>
      </trkpt>
      <trkpt lat="48.69568" lon="2.50979">
        <ele>78</ele>
        <time>2014-10-07T07:39:33.638Z</time>
      </trkpt>
      <trkpt lat="48.69565" lon="2.50992">
        <ele>79</ele>
        <time>2014-10-07T07:39:41.602Z</time>
      </trkpt>
      <trkpt lat="48.69565" lon="2.50993">
        <ele>78</ele>
        <time>2014-10-07T07:39:42.643Z</time>
      </trkpt>
      <trkpt lat="48.69557" lon="2.50998">
        <ele>74</ele>
        <time>2014-10-07T07:39:56.597Z</time>
      </trkpt>
      <trkpt lat="48.69556" lon="2.50998">
        <ele>74</ele>
        <time>2014-10-07T07:39:57.632Z</time>
      </trkpt>
      <trkpt lat="48.69548" lon="2.51004">
        <ele>72</ele>
        <time>2014-10-07T07:40:06.634Z</time>
      </trkpt>
      <trkpt lat="48.69547" lon="2.51005">
        <ele>72</ele>
        <time>2014-10-07T07:40:07.658Z</time>
      </trkpt>
      <trkpt lat="48.6954" lon="2.51013">
        <ele>71</ele>
        <time>2014-10-07T07:40:13.642Z</time>
      </trkpt>
      <trkpt lat="48.69538" lon="2.51015">
        <ele>74</ele>
        <time>2014-10-07T07:40:14.635Z</time>
      </trkpt>
      <trkpt lat="48.69531" lon="2.51021">
        <ele>72</ele>
        <time>2014-10-07T07:40:18.606Z</time>
      </trkpt>
      <trkpt lat="48.6953" lon="2.51023">
        <ele>73</ele>
        <time>2014-10-07T07:40:19.649Z</time>
      </trkpt>
      <trkpt lat="48.69523" lon="2.51027">
        <ele>76</ele>
        <time>2014-10-07T07:40:23.641Z</time>
      </trkpt>
      <trkpt lat="48.6952" lon="2.51027">
        <ele>77</ele>
        <time>2014-10-07T07:40:24.645Z</time>
      </trkpt>
      <trkpt lat="48.69513" lon="2.51028">
        <ele>76</ele>
        <time>2014-10-07T07:40:28.644Z</time>
      </trkpt>
      <trkpt lat="48.69511" lon="2.51029">
        <ele>77</ele>
        <time>2014-10-07T07:40:29.603Z</time>
      </trkpt>
      <trkpt lat="48.69508" lon="2.51031">
        <ele>80</ele>
        <time>2014-10-07T07:40:36.352Z</time>
      </trkpt>
      <trkpt lat="48.69503" lon="2.51038">
        <ele>75</ele>
        <time>2014-10-07T07:40:38.639Z</time>
      </trkpt>
      <trkpt lat="48.69497" lon="2.51048">
        <ele>80</ele>
        <time>2014-10-07T07:41:01.406Z</time>
      </trkpt>
      <trkpt lat="48.69498" lon="2.5105">
        <ele>80</ele>
        <time>2014-10-07T07:41:01.624Z</time>
      </trkpt>
      <trkpt lat="48.69499" lon="2.51061">
        <ele>81</ele>
        <time>2014-10-07T07:41:18.647Z</time>
      </trkpt>
      <trkpt lat="48.695" lon="2.51064">
        <ele>84</ele>
        <time>2014-10-07T07:41:19.636Z</time>
      </trkpt>
      <trkpt lat="48.69502" lon="2.51077">
        <ele>88</ele>
        <time>2014-10-07T07:41:24.679Z</time>
      </trkpt>
      <trkpt lat="48.69504" lon="2.5108">
        <ele>87</ele>
        <time>2014-10-07T07:41:25.643Z</time>
      </trkpt>
      <trkpt lat="48.69509" lon="2.5109">
        <ele>91</ele>
        <time>2014-10-07T07:41:34.640Z</time>
      </trkpt>
      <trkpt lat="48.6951" lon="2.51091">
        <ele>90</ele>
        <time>2014-10-07T07:41:35.644Z</time>
      </trkpt>
      <trkpt lat="48.69514" lon="2.51101">
        <ele>94</ele>
        <time>2014-10-07T07:41:41.627Z</time>
      </trkpt>
      <trkpt lat="48.69516" lon="2.51105">
        <ele>95</ele>
        <time>2014-10-07T07:41:42.627Z</time>
      </trkpt>
      <trkpt lat="48.6952" lon="2.51115">
        <ele>94</ele>
        <time>2014-10-07T07:41:47.619Z</time>
      </trkpt>
      <trkpt lat="48.69521" lon="2.51117">
        <ele>95</ele>
        <time>2014-10-07T07:41:48.656Z</time>
      </trkpt>
      <trkpt lat="48.69524" lon="2.51129">
        <ele>95</ele>
        <time>2014-10-07T07:41:53.635Z</time>
      </trkpt>
      <trkpt lat="48.69525" lon="2.51132">
        <ele>96</ele>
        <time>2014-10-07T07:41:54.640Z</time>
      </trkpt>
      <trkpt lat="48.69533" lon="2.51136">
        <ele>91</ele>
        <time>2014-10-07T07:42:03.603Z</time>
      </trkpt>
      <trkpt lat="48.69534" lon="2.51136">
        <ele>92</ele>
        <time>2014-10-07T07:42:04.654Z</time>
      </trkpt>
      <trkpt lat="48.69542" lon="2.51138">
        <ele>89</ele>
        <time>2014-10-07T07:42:14.638Z</time>
      </trkpt>
      <trkpt lat="48.69543" lon="2.51138">
        <ele>89</ele>
        <time>2014-10-07T07:42:15.608Z</time>
      </trkpt>
      <trkpt lat="48.69551" lon="2.51143">
        <ele>84</ele>
        <time>2014-10-07T07:42:27.647Z</time>
      </trkpt>
      <trkpt lat="48.69552" lon="2.51144">
        <ele>84</ele>
        <time>2014-10-07T07:42:28.639Z</time>
      </trkpt>
      <trkpt lat="48.6956" lon="2.51148">
        <ele>86</ele>
        <time>2014-10-07T07:42:36.460Z</time>
      </trkpt>
      <trkpt lat="48.69561" lon="2.51149">
        <ele>87</ele>
        <time>2014-10-07T07:42:36.602Z</time>
      </trkpt>
      <trkpt lat="48.6957" lon="2.51149">
        <ele>88</ele>
        <time>2014-10-07T07:42:44.641Z</time>
      </trkpt>
      <trkpt lat="48.69571" lon="2.51149">
        <ele>87</ele>
        <time>2014-10-07T07:42:45.644Z</time>
      </trkpt>
      <trkpt lat="48.69579" lon="2.51147">
        <ele>82</ele>
        <time>2014-10-07T07:42:56.704Z</time>
      </trkpt>
      <trkpt lat="48.69581" lon="2.51145">
        <ele>81</ele>
        <time>2014-10-07T07:42:57.602Z</time>
      </trkpt>
      <trkpt lat="48.69588" lon="2.5114">
        <ele>84</ele>
        <time>2014-10-07T07:43:01.640Z</time>
      </trkpt>
      <trkpt lat="48.69589" lon="2.51139">
        <ele>82</ele>
        <time>2014-10-07T07:43:02.685Z</time>
      </trkpt>
      <trkpt lat="48.69596" lon="2.51134">
        <ele>81</ele>
        <time>2014-10-07T07:43:06.634Z</time>
      </trkpt>
      <trkpt lat="48.69598" lon="2.51134">
        <ele>80</ele>
        <time>2014-10-07T07:43:07.663Z</time>
      </trkpt>
      <trkpt lat="48.69606" lon="2.51134">
        <ele>78</ele>
        <time>2014-10-07T07:43:14.057Z</time>
      </trkpt>
      <trkpt lat="48.69607" lon="2.51134">
        <ele>78</ele>
        <time>2014-10-07T07:43:14.618Z</time>
      </trkpt>
      <trkpt lat="48.69614" lon="2.51141">
        <ele>82</ele>
        <time>2014-10-07T07:43:22.637Z</time>
      </trkpt>
      <trkpt lat="48.69615" lon="2.51143">
        <ele>83</ele>
        <time>2014-10-07T07:43:23.647Z</time>
      </trkpt>
      <trkpt lat="48.69623" lon="2.51143">
        <ele>81</ele>
        <time>2014-10-07T07:43:30.645Z</time>
      </trkpt>
      <trkpt lat="48.69625" lon="2.51144">
        <ele>81</ele>
        <time>2014-10-07T07:43:31.640Z</time>
      </trkpt>
      <trkpt lat="48.69631" lon="2.51151">
        <ele>82</ele>
        <time>2014-10-07T07:43:37.642Z</time>
      </trkpt>
      <trkpt lat="48.69632" lon="2.51152">
        <ele>81</ele>
        <time>2014-10-07T07:43:38.639Z</time>
      </trkpt>
      <trkpt lat="48.6964" lon="2.51156">
        <ele>85</ele>
        <time>2014-10-07T07:43:45.220Z</time>
      </trkpt>
      <trkpt lat="48.69642" lon="2.51156">
        <ele>86</ele>
        <time>2014-10-07T07:43:45.606Z</time>
      </trkpt>
      <trkpt lat="48.6965" lon="2.51162">
        <ele>76</ele>
        <time>2014-10-07T07:43:54.595Z</time>
      </trkpt>
      <trkpt lat="48.69651" lon="2.51162">
        <ele>76</ele>
        <time>2014-10-07T07:43:55.646Z</time>
      </trkpt>
      <trkpt lat="48.69659" lon="2.51162">
        <ele>80</ele>
        <time>2014-10-07T07:44:01.641Z</time>
      </trkpt>
      <trkpt lat="48.6966" lon="2.51163">
        <ele>82</ele>
        <time>2014-10-07T07:44:02.686Z</time>
      </trkpt>
      <trkpt lat="48.6966" lon="2.51149">
        <ele>83</ele>
        <time>2014-10-07T07:44:21.604Z</time>
      </trkpt>
      <trkpt lat="48.69661" lon="2.51148">
        <ele>83</ele>
        <time>2014-10-07T07:44:22.655Z</time>
      </trkpt>
      <trkpt lat="48.69664" lon="2.51137">
        <ele>86</ele>
        <time>2014-10-07T07:44:28.725Z</time>
      </trkpt>
      <trkpt lat="48.69665" lon="2.51136">
        <ele>86</ele>
        <time>2014-10-07T07:44:29.664Z</time>
      </trkpt>
      <trkpt lat="48.69665" lon="2.51124">
        <ele>86</ele>
        <time>2014-10-07T07:44:40.637Z</time>
      </trkpt>
      <trkpt lat="48.69664" lon="2.51122">
        <ele>85</ele>
        <time>2014-10-07T07:44:41.595Z</time>
      </trkpt>
      <trkpt lat="48.6967" lon="2.51132">
        <ele>79</ele>
        <time>2014-10-07T07:45:43.930Z</time>
      </trkpt>
      <trkpt lat="48.69671" lon="2.51132">
        <ele>80</ele>
        <time>2014-10-07T07:45:44.655Z</time>
      </trkpt>
      <trkpt lat="48.69678" lon="2.51139">
        <ele>84</ele>
        <time>2014-10-07T07:45:49.599Z</time>
      </trkpt>
      <trkpt lat="48.69679" lon="2.5114">
        <ele>84</ele>
        <time>2014-10-07T07:45:50.633Z</time>
      </trkpt>
      <trkpt lat="48.6967" lon="2.51143">
        <ele>88</ele>
        <time>2014-10-07T07:46:11.596Z</time>
      </trkpt>
      <trkpt lat="48.69669" lon="2.51143">
        <ele>88</ele>
        <time>2014-10-07T07:46:12.665Z</time>
      </trkpt>
      <trkpt lat="48.69661" lon="2.5115">
        <ele>85</ele>
        <time>2014-10-07T07:46:27.618Z</time>
      </trkpt>
      <trkpt lat="48.69661" lon="2.51151">
        <ele>82</ele>
        <time>2014-10-07T07:46:28.644Z</time>
      </trkpt>
      <trkpt lat="48.69657" lon="2.51163">
        <ele>86</ele>
        <time>2014-10-07T07:46:40.612Z</time>
      </trkpt>
      <trkpt lat="48.69656" lon="2.51164">
        <ele>85</ele>
        <time>2014-10-07T07:46:41.633Z</time>
      </trkpt>
      <trkpt lat="48.69658" lon="2.51175">
        <ele>89</ele>
        <time>2014-10-07T07:47:19.648Z</time>
      </trkpt>
      <trkpt lat="48.6966" lon="2.51176">
        <ele>92</ele>
        <time>2014-10-07T07:47:20.649Z</time>
      </trkpt>
      <trkpt lat="48.69667" lon="2.51183">
        <ele>93</ele>
        <time>2014-10-07T07:47:25.646Z</time>
      </trkpt>
      <trkpt lat="48.69669" lon="2.51185">
        <ele>94</ele>
        <time>2014-10-07T07:47:26.641Z</time>
      </trkpt>
      <trkpt lat="48.69676" lon="2.5119">
        <ele>90</ele>
        <time>2014-10-07T07:47:34.605Z</time>
      </trkpt>
      <trkpt lat="48.69677" lon="2.51191">
        <ele>90</ele>
        <time>2014-10-07T07:47:35.645Z</time>
      </trkpt>
      <trkpt lat="48.69683" lon="2.512">
        <ele>91</ele>
        <time>2014-10-07T07:47:42.640Z</time>
      </trkpt>
      <trkpt lat="48.69684" lon="2.51202">
        <ele>94</ele>
        <time>2014-10-07T07:47:43.642Z</time>
      </trkpt>
      <trkpt lat="48.6969" lon="2.51209">
        <ele>92</ele>
        <time>2014-10-07T07:47:51.604Z</time>
      </trkpt>
      <trkpt lat="48.69692" lon="2.51211">
        <ele>94</ele>
        <time>2014-10-07T07:47:52.637Z</time>
      </trkpt>
      <trkpt lat="48.69699" lon="2.51216">
        <ele>96</ele>
        <time>2014-10-07T07:47:57.670Z</time>
      </trkpt>
      <trkpt lat="48.69701" lon="2.51217">
        <ele>96</ele>
        <time>2014-10-07T07:47:58.642Z</time>
      </trkpt>
      <trkpt lat="48.69708" lon="2.51225">
        <ele>95</ele>
        <time>2014-10-07T07:48:02.677Z</time>
      </trkpt>
      <trkpt lat="48.69709" lon="2.51228">
        <ele>95</ele>
        <time>2014-10-07T07:48:03.596Z</time>
      </trkpt>
      <trkpt lat="48.69711" lon="2.5124">
        <ele>88</ele>
        <time>2014-10-07T07:48:08.644Z</time>
      </trkpt>
      <trkpt lat="48.69711" lon="2.51243">
        <ele>87</ele>
        <time>2014-10-07T07:48:09.703Z</time>
      </trkpt>
      <trkpt lat="48.69711" lon="2.51256">
        <ele>86</ele>
        <time>2014-10-07T07:48:21.607Z</time>
      </trkpt>
      <trkpt lat="48.69712" lon="2.51257">
        <ele>88</ele>
        <time>2014-10-07T07:48:22.646Z</time>
      </trkpt>
      <trkpt lat="48.69717" lon="2.51267">
        <ele>95</ele>
        <time>2014-10-07T07:48:29.664Z</time>
      </trkpt>
      <trkpt lat="48.69717" lon="2.51268">
        <ele>96</ele>
        <time>2014-10-07T07:48:30.653Z</time>
      </trkpt>
      <trkpt lat="48.69718" lon="2.5128">
        <ele>89</ele>
        <time>2014-10-07T07:48:41.489Z</time>
      </trkpt>
      <trkpt lat="48.69717" lon="2.51282">
        <ele>89</ele>
        <time>2014-10-07T07:48:41.599Z</time>
      </trkpt>
      <trkpt lat="48.69721" lon="2.51294">
        <ele>83</ele>
        <time>2014-10-07T07:48:53.914Z</time>
      </trkpt>
      <trkpt lat="48.69722" lon="2.51295">
        <ele>83</ele>
        <time>2014-10-07T07:48:54.614Z</time>
      </trkpt>
      <trkpt lat="48.69724" lon="2.51307">
        <ele>81</ele>
        <time>2014-10-07T07:49:05.644Z</time>
      </trkpt>
      <trkpt lat="48.69724" lon="2.51308">
        <ele>81</ele>
        <time>2014-10-07T07:49:06.647Z</time>
      </trkpt>
      <trkpt lat="48.69723" lon="2.51322">
        <ele>75</ele>
        <time>2014-10-07T07:49:21.638Z</time>
      </trkpt>
      <trkpt lat="48.69724" lon="2.51325">
        <ele>76</ele>
        <time>2014-10-07T07:49:22.645Z</time>
      </trkpt>
      <trkpt lat="48.69723" lon="2.51338">
        <ele>77</ele>
        <time>2014-10-07T07:49:27.644Z</time>
      </trkpt>
      <trkpt lat="48.69723" lon="2.5134">
        <ele>78</ele>
        <time>2014-10-07T07:49:28.619Z</time>
      </trkpt>
      <trkpt lat="48.6973" lon="2.51347">
        <ele>76</ele>
        <time>2014-10-07T07:49:33.724Z</time>
      </trkpt>
      <trkpt lat="48.69731" lon="2.51348">
        <ele>75</ele>
        <time>2014-10-07T07:49:34.631Z</time>
      </trkpt>
      <trkpt lat="48.69736" lon="2.51359">
        <ele>70</ele>
        <time>2014-10-07T07:49:39.646Z</time>
      </trkpt>
      <trkpt lat="48.69738" lon="2.51364">
        <ele>70</ele>
        <time>2014-10-07T07:49:40.637Z</time>
      </trkpt>
      <trkpt lat="48.69733" lon="2.51373">
        <ele>63</ele>
        <time>2014-10-07T07:49:47.641Z</time>
      </trkpt>
      <trkpt lat="48.6973" lon="2.5137">
        <ele>64</ele>
        <time>2014-10-07T07:49:48.653Z</time>
      </trkpt>
      <trkpt lat="48.69722" lon="2.51362">
        <ele>64</ele>
        <time>2014-10-07T07:49:51.642Z</time>
      </trkpt>
      <trkpt lat="48.6972" lon="2.51359">
        <ele>65</ele>
        <time>2014-10-07T07:49:52.636Z</time>
      </trkpt>
      <trkpt lat="48.69724" lon="2.51371">
        <ele>61</ele>
        <time>2014-10-07T07:50:11.645Z</time>
      </trkpt>
      <trkpt lat="48.69724" lon="2.51372">
        <ele>60</ele>
        <time>2014-10-07T07:50:12.641Z</time>
      </trkpt>
      <trkpt lat="48.69717" lon="2.51371">
        <ele>61</ele>
        <time>2014-10-07T07:50:15.643Z</time>
      </trkpt>
      <trkpt lat="48.69714" lon="2.51369">
        <ele>62</ele>
        <time>2014-10-07T07:50:16.644Z</time>
      </trkpt>
      <trkpt lat="48.69705" lon="2.51373">
        <ele>65</ele>
        <time>2014-10-07T07:50:21.488Z</time>
      </trkpt>
      <trkpt lat="48.69705" lon="2.51375">
        <ele>63</ele>
        <time>2014-10-07T07:50:21.606Z</time>
      </trkpt>
      <trkpt lat="48.69701" lon="2.51387">
        <ele>60</ele>
        <time>2014-10-07T07:50:27.644Z</time>
      </trkpt>
      <trkpt lat="48.697" lon="2.51389">
        <ele>60</ele>
        <time>2014-10-07T07:50:28.603Z</time>
      </trkpt>
      <trkpt lat="48.69696" lon="2.51395">
        <ele>62</ele>
        <time>2014-10-07T07:50:41.380Z</time>
      </trkpt>
      <trkpt lat="48.69687" lon="2.51401">
        <ele>63</ele>
        <time>2014-10-07T07:50:41.596Z</time>
      </trkpt>
      <trkpt lat="48.69683" lon="2.51411">
        <ele>73</ele>
        <time>2014-10-07T07:50:48.636Z</time>
      </trkpt>
      <trkpt lat="48.69683" lon="2.51413">
        <ele>75</ele>
        <time>2014-10-07T07:50:49.596Z</time>
      </trkpt>
      <trkpt lat="48.69684" lon="2.51423">
        <ele>80</ele>
        <time>2014-10-07T07:50:53.631Z</time>
      </trkpt>
      <trkpt lat="48.69685" lon="2.51426">
        <ele>82</ele>
        <time>2014-10-07T07:50:54.634Z</time>
      </trkpt>
      <trkpt lat="48.69688" lon="2.51438">
        <ele>85</ele>
        <time>2014-10-07T07:50:58.649Z</time>
      </trkpt>
      <trkpt lat="48.69688" lon="2.5144">
        <ele>86</ele>
        <time>2014-10-07T07:50:59.643Z</time>
      </trkpt>
      <trkpt lat="48.69691" lon="2.51452">
        <ele>89</ele>
        <time>2014-10-07T07:51:03.599Z</time>
      </trkpt>
      <trkpt lat="48.69692" lon="2.51455">
        <ele>90</ele>
        <time>2014-10-07T07:51:04.632Z</time>
      </trkpt>
      <trkpt lat="48.69695" lon="2.51467">
        <ele>92</ele>
        <time>2014-10-07T07:51:09.647Z</time>
      </trkpt>
      <trkpt lat="48.69695" lon="2.51469">
        <ele>93</ele>
        <time>2014-10-07T07:51:10.602Z</time>
      </trkpt>
      <trkpt lat="48.69695" lon="2.51483">
        <ele>87</ele>
        <time>2014-10-07T07:51:23.637Z</time>
      </trkpt>
      <trkpt lat="48.69696" lon="2.51485">
        <ele>88</ele>
        <time>2014-10-07T07:51:24.595Z</time>
      </trkpt>
      <trkpt lat="48.69697" lon="2.51498">
        <ele>87</ele>
        <time>2014-10-07T07:51:31.610Z</time>
      </trkpt>
      <trkpt lat="48.69698" lon="2.515">
        <ele>87</ele>
        <time>2014-10-07T07:51:32.602Z</time>
      </trkpt>
      <trkpt lat="48.697" lon="2.51513">
        <ele>88</ele>
        <time>2014-10-07T07:51:38.641Z</time>
      </trkpt>
      <trkpt lat="48.69701" lon="2.51515">
        <ele>87</ele>
        <time>2014-10-07T07:51:39.594Z</time>
      </trkpt>
      <trkpt lat="48.69702" lon="2.51527">
        <ele>90</ele>
        <time>2014-10-07T07:51:44.633Z</time>
      </trkpt>
      <trkpt lat="48.69703" lon="2.51529">
        <ele>90</ele>
        <time>2014-10-07T07:51:45.637Z</time>
      </trkpt>
      <trkpt lat="48.69704" lon="2.51542">
        <ele>92</ele>
        <time>2014-10-07T07:51:51.397Z</time>
      </trkpt>
      <trkpt lat="48.69704" lon="2.51543">
        <ele>90</ele>
        <time>2014-10-07T07:51:51.608Z</time>
      </trkpt>
      <trkpt lat="48.69705" lon="2.51555">
        <ele>95</ele>
        <time>2014-10-07T07:51:56.599Z</time>
      </trkpt>
      <trkpt lat="48.69705" lon="2.51557">
        <ele>94</ele>
        <time>2014-10-07T07:51:57.636Z</time>
      </trkpt>
      <trkpt lat="48.69706" lon="2.51571">
        <ele>95</ele>
        <time>2014-10-07T07:52:03.632Z</time>
      </trkpt>
      <trkpt lat="48.69706" lon="2.51573">
        <ele>96</ele>
        <time>2014-10-07T07:52:04.633Z</time>
      </trkpt>
      <trkpt lat="48.69709" lon="2.51585">
        <ele>99</ele>
        <time>2014-10-07T07:52:11.599Z</time>
      </trkpt>
      <trkpt lat="48.6971" lon="2.51587">
        <ele>100</ele>
        <time>2014-10-07T07:52:12.638Z</time>
      </trkpt>
      <trkpt lat="48.69709" lon="2.516">
        <ele>92</ele>
        <time>2014-10-07T07:52:26.436Z</time>
      </trkpt>
      <trkpt lat="48.69709" lon="2.51601">
        <ele>93</ele>
        <time>2014-10-07T07:52:26.601Z</time>
      </trkpt>
      <trkpt lat="48.6971" lon="2.51614">
        <ele>91</ele>
        <time>2014-10-07T07:52:34.645Z</time>
      </trkpt>
      <trkpt lat="48.69711" lon="2.51615">
        <ele>91</ele>
        <time>2014-10-07T07:52:35.605Z</time>
      </trkpt>
      <trkpt lat="48.69714" lon="2.51627">
        <ele>87</ele>
        <time>2014-10-07T07:52:46.481Z</time>
      </trkpt>
      <trkpt lat="48.69714" lon="2.51628">
        <ele>86</ele>
        <time>2014-10-07T07:52:46.601Z</time>
      </trkpt>
      <trkpt lat="48.69712" lon="2.51641">
        <ele>88</ele>
        <time>2014-10-07T07:52:52.604Z</time>
      </trkpt>
      <trkpt lat="48.69712" lon="2.51643">
        <ele>87</ele>
        <time>2014-10-07T07:52:53.648Z</time>
      </trkpt>
      <trkpt lat="48.69714" lon="2.51654">
        <ele>88</ele>
        <time>2014-10-07T07:52:58.598Z</time>
      </trkpt>
      <trkpt lat="48.69715" lon="2.51657">
        <ele>88</ele>
        <time>2014-10-07T07:52:59.602Z</time>
      </trkpt>
      <trkpt lat="48.69719" lon="2.51667">
        <ele>87</ele>
        <time>2014-10-07T07:53:04.636Z</time>
      </trkpt>
      <trkpt lat="48.69719" lon="2.51669">
        <ele>86</ele>
        <time>2014-10-07T07:53:05.631Z</time>
      </trkpt>
      <trkpt lat="48.69724" lon="2.5168">
        <ele>86</ele>
        <time>2014-10-07T07:53:14.643Z</time>
      </trkpt>
      <trkpt lat="48.69724" lon="2.51681">
        <ele>85</ele>
        <time>2014-10-07T07:53:15.644Z</time>
      </trkpt>
      <trkpt lat="48.69729" lon="2.51691">
        <ele>90</ele>
        <time>2014-10-07T07:53:23.639Z</time>
      </trkpt>
      <trkpt lat="48.6973" lon="2.51692">
        <ele>92</ele>
        <time>2014-10-07T07:53:24.608Z</time>
      </trkpt>
      <trkpt lat="48.69736" lon="2.51698">
        <ele>93</ele>
        <time>2014-10-07T07:53:28.639Z</time>
      </trkpt>
      <trkpt lat="48.69737" lon="2.517">
        <ele>91</ele>
        <time>2014-10-07T07:53:29.644Z</time>
      </trkpt>
      <trkpt lat="48.6974" lon="2.51711">
        <ele>89</ele>
        <time>2014-10-07T07:53:40.338Z</time>
      </trkpt>
      <trkpt lat="48.69741" lon="2.51713">
        <ele>91</ele>
        <time>2014-10-07T07:53:40.604Z</time>
      </trkpt>
      <trkpt lat="48.69748" lon="2.51712">
        <ele>90</ele>
        <time>2014-10-07T07:53:51.435Z</time>
      </trkpt>
      <trkpt lat="48.69749" lon="2.51712">
        <ele>90</ele>
        <time>2014-10-07T07:53:51.602Z</time>
      </trkpt>
      <trkpt lat="48.69746" lon="2.517">
        <ele>94</ele>
        <time>2014-10-07T07:54:02.619Z</time>
      </trkpt>
      <trkpt lat="48.69745" lon="2.517">
        <ele>95</ele>
        <time>2014-10-07T07:54:03.597Z</time>
      </trkpt>
      <trkpt lat="48.69753" lon="2.51704">
        <ele>77</ele>
        <time>2014-10-07T07:55:26.647Z</time>
      </trkpt>
      <trkpt lat="48.69753" lon="2.51705">
        <ele>77</ele>
        <time>2014-10-07T07:55:27.643Z</time>
      </trkpt>
      <trkpt lat="48.6976" lon="2.517">
        <ele>74</ele>
        <time>2014-10-07T07:56:01.634Z</time>
      </trkpt>
      <trkpt lat="48.69762" lon="2.51699">
        <ele>74</ele>
        <time>2014-10-07T07:56:02.643Z</time>
      </trkpt>
      <trkpt lat="48.69769" lon="2.51697">
        <ele>78</ele>
        <time>2014-10-07T07:56:05.636Z</time>
      </trkpt>
      <trkpt lat="48.69772" lon="2.51695">
        <ele>77</ele>
        <time>2014-10-07T07:56:06.596Z</time>
      </trkpt>
      <trkpt lat="48.69777" lon="2.51685">
        <ele>77</ele>
        <time>2014-10-07T07:56:12.603Z</time>
      </trkpt>
      <trkpt lat="48.69778" lon="2.51685">
        <ele>77</ele>
        <time>2014-10-07T07:56:13.647Z</time>
      </trkpt>
      <trkpt lat="48.69785" lon="2.51693">
        <ele>77</ele>
        <time>2014-10-07T07:56:26.645Z</time>
      </trkpt>
      <trkpt lat="48.69785" lon="2.51693">
        <ele>77</ele>
        <time>2014-10-07T07:56:27.642Z</time>
      </trkpt>
      <trkpt lat="48.69778" lon="2.51695">
        <ele>81</ele>
        <time>2014-10-07T07:56:53.640Z</time>
      </trkpt>
      <trkpt lat="48.69776" lon="2.51697">
        <ele>80</ele>
        <time>2014-10-07T07:56:54.682Z</time>
      </trkpt>
      <trkpt lat="48.69769" lon="2.51701">
        <ele>80</ele>
        <time>2014-10-07T07:56:57.646Z</time>
      </trkpt>
      <trkpt lat="48.69767" lon="2.51702">
        <ele>79</ele>
        <time>2014-10-07T07:56:58.642Z</time>
      </trkpt>
      <trkpt lat="48.69758" lon="2.51707">
        <ele>79</ele>
        <time>2014-10-07T07:57:02.644Z</time>
      </trkpt>
      <trkpt lat="48.69756" lon="2.51708">
        <ele>82</ele>
        <time>2014-10-07T07:57:03.596Z</time>
      </trkpt>
      <trkpt lat="48.6975" lon="2.51717">
        <ele>82</ele>
        <time>2014-10-07T07:57:10.603Z</time>
      </trkpt>
      <trkpt lat="48.6975" lon="2.51719">
        <ele>83</ele>
        <time>2014-10-07T07:57:11.680Z</time>
      </trkpt>
      <trkpt lat="48.69756" lon="2.51729">
        <ele>87</ele>
        <time>2014-10-07T07:57:17.602Z</time>
      </trkpt>
      <trkpt lat="48.69757" lon="2.51731">
        <ele>88</ele>
        <time>2014-10-07T07:57:18.642Z</time>
      </trkpt>
      <trkpt lat="48.6976" lon="2.51742">
        <ele>89</ele>
        <time>2014-10-07T07:57:23.637Z</time>
      </trkpt>
      <trkpt lat="48.69761" lon="2.51744">
        <ele>89</ele>
        <time>2014-10-07T07:57:24.596Z</time>
      </trkpt>
      <trkpt lat="48.69763" lon="2.51754">
        <ele>90</ele>
        <time>2014-10-07T07:57:28.648Z</time>
      </trkpt>
      <trkpt lat="48.69764" lon="2.51757">
        <ele>91</ele>
        <time>2014-10-07T07:57:29.604Z</time>
      </trkpt>
      <trkpt lat="48.69768" lon="2.51768">
        <ele>92</ele>
        <time>2014-10-07T07:57:33.965Z</time>
      </trkpt>
      <trkpt lat="48.69769" lon="2.5177">
        <ele>92</ele>
        <time>2014-10-07T07:57:34.599Z</time>
      </trkpt>
      <trkpt lat="48.69776" lon="2.51777">
        <ele>91</ele>
        <time>2014-10-07T07:57:39.625Z</time>
      </trkpt>
      <trkpt lat="48.69777" lon="2.51779">
        <ele>93</ele>
        <time>2014-10-07T07:57:40.690Z</time>
      </trkpt>
      <trkpt lat="48.69782" lon="2.51787">
        <ele>95</ele>
        <time>2014-10-07T07:57:44.645Z</time>
      </trkpt>
      <trkpt lat="48.69783" lon="2.51789">
        <ele>95</ele>
        <time>2014-10-07T07:57:45.643Z</time>
      </trkpt>
      <trkpt lat="48.6979" lon="2.51793">
        <ele>93</ele>
        <time>2014-10-07T07:58:02.598Z</time>
      </trkpt>
      <trkpt lat="48.69792" lon="2.51794">
        <ele>95</ele>
        <time>2014-10-07T07:58:03.638Z</time>
      </trkpt>
      <trkpt lat="48.698" lon="2.51792">
        <ele>95</ele>
        <time>2014-10-07T07:58:07.599Z</time>
      </trkpt>
      <trkpt lat="48.69802" lon="2.51791">
        <ele>94</ele>
        <time>2014-10-07T07:58:08.637Z</time>
      </trkpt>
      <trkpt lat="48.69811" lon="2.51793">
        <ele>96</ele>
        <time>2014-10-07T07:58:14.486Z</time>
      </trkpt>
      <trkpt lat="48.69812" lon="2.51794">
        <ele>93</ele>
        <time>2014-10-07T07:58:14.602Z</time>
      </trkpt>
      <trkpt lat="48.69819" lon="2.51799">
        <ele>92</ele>
        <time>2014-10-07T07:58:20.647Z</time>
      </trkpt>
      <trkpt lat="48.6982" lon="2.51801">
        <ele>92</ele>
        <time>2014-10-07T07:58:21.596Z</time>
      </trkpt>
      <trkpt lat="48.69825" lon="2.51809">
        <ele>94</ele>
        <time>2014-10-07T07:58:26.640Z</time>
      </trkpt>
      <trkpt lat="48.69826" lon="2.5181">
        <ele>93</ele>
        <time>2014-10-07T07:58:27.662Z</time>
      </trkpt>
      <trkpt lat="48.69832" lon="2.51817">
        <ele>95</ele>
        <time>2014-10-07T07:58:32.640Z</time>
      </trkpt>
      <trkpt lat="48.69834" lon="2.51819">
        <ele>95</ele>
        <time>2014-10-07T07:58:33.651Z</time>
      </trkpt>
      <trkpt lat="48.69839" lon="2.51825">
        <ele>96</ele>
        <time>2014-10-07T07:58:37.642Z</time>
      </trkpt>
      <trkpt lat="48.6984" lon="2.51828">
        <ele>96</ele>
        <time>2014-10-07T07:58:38.632Z</time>
      </trkpt>
      <trkpt lat="48.69848" lon="2.51833">
        <ele>91</ele>
        <time>2014-10-07T07:58:43.925Z</time>
      </trkpt>
      <trkpt lat="48.6985" lon="2.51833">
        <ele>91</ele>
        <time>2014-10-07T07:58:44.645Z</time>
      </trkpt>
      <trkpt lat="48.69858" lon="2.51837">
        <ele>92</ele>
        <time>2014-10-07T07:58:49.639Z</time>
      </trkpt>
      <trkpt lat="48.69859" lon="2.51839">
        <ele>91</ele>
        <time>2014-10-07T07:58:50.603Z</time>
      </trkpt>
      <trkpt lat="48.69865" lon="2.51848">
        <ele>90</ele>
        <time>2014-10-07T07:58:59.096Z</time>
      </trkpt>
      <trkpt lat="48.69865" lon="2.5185">
        <ele>92</ele>
        <time>2014-10-07T07:58:59.598Z</time>
      </trkpt>
      <trkpt lat="48.69867" lon="2.51862">
        <ele>86</ele>
        <time>2014-10-07T07:59:08.598Z</time>
      </trkpt>
      <trkpt lat="48.69868" lon="2.51863">
        <ele>86</ele>
        <time>2014-10-07T07:59:09.643Z</time>
      </trkpt>
      <trkpt lat="48.69876" lon="2.51868">
        <ele>87</ele>
        <time>2014-10-07T07:59:14.695Z</time>
      </trkpt>
      <trkpt lat="48.69877" lon="2.5187">
        <ele>88</ele>
        <time>2014-10-07T07:59:15.596Z</time>
      </trkpt>
      <trkpt lat="48.69883" lon="2.51877">
        <ele>88</ele>
        <time>2014-10-07T07:59:19.609Z</time>
      </trkpt>
      <trkpt lat="48.69884" lon="2.51879">
        <ele>89</ele>
        <time>2014-10-07T07:59:20.641Z</time>
      </trkpt>
      <trkpt lat="48.6989" lon="2.51889">
        <ele>90</ele>
        <time>2014-10-07T07:59:25.665Z</time>
      </trkpt>
      <trkpt lat="48.69891" lon="2.51891">
        <ele>91</ele>
        <time>2014-10-07T07:59:26.642Z</time>
      </trkpt>
      <trkpt lat="48.69895" lon="2.51901">
        <ele>90</ele>
        <time>2014-10-07T07:59:31.641Z</time>
      </trkpt>
      <trkpt lat="48.69896" lon="2.51903">
        <ele>91</ele>
        <time>2014-10-07T07:59:32.673Z</time>
      </trkpt>
      <trkpt lat="48.69903" lon="2.51906">
        <ele>90</ele>
        <time>2014-10-07T07:59:39.665Z</time>
      </trkpt>
      <trkpt lat="48.69904" lon="2.51909">
        <ele>89</ele>
        <time>2014-10-07T07:59:40.643Z</time>
      </trkpt>
      <trkpt lat="48.6991" lon="2.51917">
        <ele>88</ele>
        <time>2014-10-07T07:59:51.619Z</time>
      </trkpt>
      <trkpt lat="48.69911" lon="2.51918">
        <ele>88</ele>
        <time>2014-10-07T07:59:52.595Z</time>
      </trkpt>
      <trkpt lat="48.69918" lon="2.51925">
        <ele>86</ele>
        <time>2014-10-07T07:59:59.102Z</time>
      </trkpt>
      <trkpt lat="48.69919" lon="2.51926">
        <ele>86</ele>
        <time>2014-10-07T07:59:59.668Z</time>
      </trkpt>
      <trkpt lat="48.69925" lon="2.51935">
        <ele>85</ele>
        <time>2014-10-07T08:00:06.595Z</time>
      </trkpt>
      <trkpt lat="48.69925" lon="2.51935">
        <ele>84</ele>
        <time>2014-10-07T08:00:07.688Z</time>
      </trkpt>
      <trkpt lat="48.69931" lon="2.51945">
        <ele>83</ele>
        <time>2014-10-07T08:00:15.638Z</time>
      </trkpt>
      <trkpt lat="48.69933" lon="2.51945">
        <ele>82</ele>
        <time>2014-10-07T08:00:16.638Z</time>
      </trkpt>
      <trkpt lat="48.69938" lon="2.51954">
        <ele>83</ele>
        <time>2014-10-07T08:00:22.639Z</time>
      </trkpt>
      <trkpt lat="48.69938" lon="2.51957">
        <ele>83</ele>
        <time>2014-10-07T08:00:23.596Z</time>
      </trkpt>
      <trkpt lat="48.69943" lon="2.51966">
        <ele>85</ele>
        <time>2014-10-07T08:00:29.601Z</time>
      </trkpt>
      <trkpt lat="48.69945" lon="2.51966">
        <ele>83</ele>
        <time>2014-10-07T08:00:30.644Z</time>
      </trkpt>
      <trkpt lat="48.6995" lon="2.51968">
        <ele>83</ele>
        <time>2014-10-07T08:00:39.021Z</time>
      </trkpt>
      <trkpt lat="48.69955" lon="2.51977">
        <ele>82</ele>
        <time>2014-10-07T08:00:43.649Z</time>
      </trkpt>
      <trkpt lat="48.69963" lon="2.51982">
        <ele>82</ele>
        <time>2014-10-07T08:00:50.637Z</time>
      </trkpt>
      <trkpt lat="48.69965" lon="2.51982">
        <ele>81</ele>
        <time>2014-10-07T08:00:51.628Z</time>
      </trkpt>
      <trkpt lat="48.69969" lon="2.51993">
        <ele>85</ele>
        <time>2014-10-07T08:00:57.598Z</time>
      </trkpt>
      <trkpt lat="48.69969" lon="2.51995">
        <ele>85</ele>
        <time>2014-10-07T08:00:58.634Z</time>
      </trkpt>
      <trkpt lat="48.69974" lon="2.52004">
        <ele>90</ele>
        <time>2014-10-07T08:01:04.598Z</time>
      </trkpt>
      <trkpt lat="48.69976" lon="2.52005">
        <ele>91</ele>
        <time>2014-10-07T08:01:05.630Z</time>
      </trkpt>
      <trkpt lat="48.69982" lon="2.52011">
        <ele>92</ele>
        <time>2014-10-07T08:01:09.599Z</time>
      </trkpt>
      <trkpt lat="48.69983" lon="2.52014">
        <ele>93</ele>
        <time>2014-10-07T08:01:10.640Z</time>
      </trkpt>
      <trkpt lat="48.69987" lon="2.52023">
        <ele>92</ele>
        <time>2014-10-07T08:01:16.693Z</time>
      </trkpt>
      <trkpt lat="48.69989" lon="2.52024">
        <ele>93</ele>
        <time>2014-10-07T08:01:17.639Z</time>
      </trkpt>
      <trkpt lat="48.69994" lon="2.52034">
        <ele>96</ele>
        <time>2014-10-07T08:01:24.665Z</time>
      </trkpt>
      <trkpt lat="48.69995" lon="2.52036">
        <ele>96</ele>
        <time>2014-10-07T08:01:25.636Z</time>
      </trkpt>
      <trkpt lat="48.70003" lon="2.5204">
        <ele>87</ele>
        <time>2014-10-07T08:01:37.599Z</time>
      </trkpt>
      <trkpt lat="48.70004" lon="2.5204">
        <ele>87</ele>
        <time>2014-10-07T08:01:38.646Z</time>
      </trkpt>
      <trkpt lat="48.70009" lon="2.52048">
        <ele>90</ele>
        <time>2014-10-07T08:01:45.644Z</time>
      </trkpt>
      <trkpt lat="48.70011" lon="2.52049">
        <ele>88</ele>
        <time>2014-10-07T08:01:46.643Z</time>
      </trkpt>
      <trkpt lat="48.70016" lon="2.52058">
        <ele>87</ele>
        <time>2014-10-07T08:01:51.657Z</time>
      </trkpt>
      <trkpt lat="48.70016" lon="2.5206">
        <ele>86</ele>
        <time>2014-10-07T08:01:52.639Z</time>
      </trkpt>
      <trkpt lat="48.70019" lon="2.5207">
        <ele>86</ele>
        <time>2014-10-07T08:01:56.638Z</time>
      </trkpt>
      <trkpt lat="48.70021" lon="2.52072">
        <ele>84</ele>
        <time>2014-10-07T08:01:57.637Z</time>
      </trkpt>
      <trkpt lat="48.70027" lon="2.52081">
        <ele>84</ele>
        <time>2014-10-07T08:02:05.606Z</time>
      </trkpt>
      <trkpt lat="48.70027" lon="2.52083">
        <ele>84</ele>
        <time>2014-10-07T08:02:06.626Z</time>
      </trkpt>
      <trkpt lat="48.70031" lon="2.52094">
        <ele>85</ele>
        <time>2014-10-07T08:02:16.188Z</time>
      </trkpt>
      <trkpt lat="48.70032" lon="2.52095">
        <ele>85</ele>
        <time>2014-10-07T08:02:16.641Z</time>
      </trkpt>
      <trkpt lat="48.70038" lon="2.52102">
        <ele>83</ele>
        <time>2014-10-07T08:02:21.656Z</time>
      </trkpt>
      <trkpt lat="48.7004" lon="2.52103">
        <ele>83</ele>
        <time>2014-10-07T08:02:22.634Z</time>
      </trkpt>
      <trkpt lat="48.70048" lon="2.52107">
        <ele>85</ele>
        <time>2014-10-07T08:02:29.621Z</time>
      </trkpt>
      <trkpt lat="48.7005" lon="2.52108">
        <ele>85</ele>
        <time>2014-10-07T08:02:30.639Z</time>
      </trkpt>
      <trkpt lat="48.70058" lon="2.52111">
        <ele>86</ele>
        <time>2014-10-07T08:02:37.646Z</time>
      </trkpt>
      <trkpt lat="48.70059" lon="2.52112">
        <ele>86</ele>
        <time>2014-10-07T08:02:38.648Z</time>
      </trkpt>
      <trkpt lat="48.70061" lon="2.52123">
        <ele>92</ele>
        <time>2014-10-07T08:02:44.308Z</time>
      </trkpt>
      <trkpt lat="48.70062" lon="2.52125">
        <ele>92</ele>
        <time>2014-10-07T08:02:44.649Z</time>
      </trkpt>
      <trkpt lat="48.70071" lon="2.52124">
        <ele>88</ele>
        <time>2014-10-07T08:03:01.639Z</time>
      </trkpt>
      <trkpt lat="48.70071" lon="2.52125">
        <ele>89</ele>
        <time>2014-10-07T08:03:02.639Z</time>
      </trkpt>
      <trkpt lat="48.70077" lon="2.52132">
        <ele>90</ele>
        <time>2014-10-07T08:03:09.597Z</time>
      </trkpt>
      <trkpt lat="48.70079" lon="2.52133">
        <ele>90</ele>
        <time>2014-10-07T08:03:10.643Z</time>
      </trkpt>
      <trkpt lat="48.70086" lon="2.52138">
        <ele>89</ele>
        <time>2014-10-07T08:03:16.643Z</time>
      </trkpt>
      <trkpt lat="48.70087" lon="2.52139">
        <ele>89</ele>
        <time>2014-10-07T08:03:17.637Z</time>
      </trkpt>
      <trkpt lat="48.70095" lon="2.52147">
        <ele>88</ele>
        <time>2014-10-07T08:03:22.634Z</time>
      </trkpt>
      <trkpt lat="48.70096" lon="2.52147">
        <ele>89</ele>
        <time>2014-10-07T08:03:23.640Z</time>
      </trkpt>
      <trkpt lat="48.70101" lon="2.52156">
        <ele>93</ele>
        <time>2014-10-07T08:03:44.629Z</time>
      </trkpt>
      <trkpt lat="48.70102" lon="2.52158">
        <ele>94</ele>
        <time>2014-10-07T08:03:45.634Z</time>
      </trkpt>
      <trkpt lat="48.70105" lon="2.52169">
        <ele>95</ele>
        <time>2014-10-07T08:03:49.640Z</time>
      </trkpt>
      <trkpt lat="48.70105" lon="2.52171">
        <ele>95</ele>
        <time>2014-10-07T08:03:50.600Z</time>
      </trkpt>
      <trkpt lat="48.70111" lon="2.52181">
        <ele>94</ele>
        <time>2014-10-07T08:03:57.906Z</time>
      </trkpt>
      <trkpt lat="48.70111" lon="2.52182">
        <ele>94</ele>
        <time>2014-10-07T08:03:58.604Z</time>
      </trkpt>
      <trkpt lat="48.7012" lon="2.52183">
        <ele>91</ele>
        <time>2014-10-07T08:04:08.639Z</time>
      </trkpt>
      <trkpt lat="48.70121" lon="2.52183">
        <ele>91</ele>
        <time>2014-10-07T08:04:09.675Z</time>
      </trkpt>
      <trkpt lat="48.70129" lon="2.5218">
        <ele>86</ele>
        <time>2014-10-07T08:04:19.595Z</time>
      </trkpt>
      <trkpt lat="48.7013" lon="2.52179">
        <ele>85</ele>
        <time>2014-10-07T08:04:20.643Z</time>
      </trkpt>
      <trkpt lat="48.70138" lon="2.52177">
        <ele>84</ele>
        <time>2014-10-07T08:04:27.643Z</time>
      </trkpt>
      <trkpt lat="48.7014" lon="2.52176">
        <ele>84</ele>
        <time>2014-10-07T08:04:28.635Z</time>
      </trkpt>
      <trkpt lat="48.70148" lon="2.52175">
        <ele>81</ele>
        <time>2014-10-07T08:04:35.649Z</time>
      </trkpt>
      <trkpt lat="48.70149" lon="2.52174">
        <ele>81</ele>
        <time>2014-10-07T08:04:36.647Z</time>
      </trkpt>
      <trkpt lat="48.70157" lon="2.52171">
        <ele>81</ele>
        <time>2014-10-07T08:04:43.764Z</time>
      </trkpt>
      <trkpt lat="48.70158" lon="2.5217">
        <ele>79</ele>
        <time>2014-10-07T08:04:44.597Z</time>
      </trkpt>
      <trkpt lat="48.70166" lon="2.52173">
        <ele>76</ele>
        <time>2014-10-07T08:04:51.634Z</time>
      </trkpt>
      <trkpt lat="48.70169" lon="2.52173">
        <ele>76</ele>
        <time>2014-10-07T08:04:52.642Z</time>
      </trkpt>
      <trkpt lat="48.70177" lon="2.52175">
        <ele>75</ele>
        <time>2014-10-07T08:05:01.428Z</time>
      </trkpt>
      <trkpt lat="48.70178" lon="2.52175">
        <ele>77</ele>
        <time>2014-10-07T08:05:01.625Z</time>
      </trkpt>
      <trkpt lat="48.70187" lon="2.52176">
        <ele>78</ele>
        <time>2014-10-07T08:05:11.604Z</time>
      </trkpt>
      <trkpt lat="48.70187" lon="2.52176">
        <ele>77</ele>
        <time>2014-10-07T08:05:12.646Z</time>
      </trkpt>
      <trkpt lat="48.70195" lon="2.52175">
        <ele>75</ele>
        <time>2014-10-07T08:05:17.647Z</time>
      </trkpt>
      <trkpt lat="48.70196" lon="2.52176">
        <ele>76</ele>
        <time>2014-10-07T08:05:18.674Z</time>
      </trkpt>
      <trkpt lat="48.70204" lon="2.52176">
        <ele>80</ele>
        <time>2014-10-07T08:05:22.632Z</time>
      </trkpt>
      <trkpt lat="48.70206" lon="2.52175">
        <ele>80</ele>
        <time>2014-10-07T08:05:23.646Z</time>
      </trkpt>
      <trkpt lat="48.70214" lon="2.52176">
        <ele>81</ele>
        <time>2014-10-07T08:05:29.604Z</time>
      </trkpt>
      <trkpt lat="48.70215" lon="2.52176">
        <ele>80</ele>
        <time>2014-10-07T08:05:30.641Z</time>
      </trkpt>
      <trkpt lat="48.70223" lon="2.52178">
        <ele>80</ele>
        <time>2014-10-07T08:05:38.962Z</time>
      </trkpt>
      <trkpt lat="48.70237" lon="2.52176">
        <ele>84</ele>
        <time>2014-10-07T08:05:43.611Z</time>
      </trkpt>
      <trkpt lat="48.70245" lon="2.52181">
        <ele>84</ele>
        <time>2014-10-07T08:05:49.625Z</time>
      </trkpt>
      <trkpt lat="48.70246" lon="2.52182">
        <ele>84</ele>
        <time>2014-10-07T08:05:50.608Z</time>
      </trkpt>
      <trkpt lat="48.70254" lon="2.52185">
        <ele>86</ele>
        <time>2014-10-07T08:05:59.307Z</time>
      </trkpt>
      <trkpt lat="48.70255" lon="2.52185">
        <ele>87</ele>
        <time>2014-10-07T08:05:59.631Z</time>
      </trkpt>
      <trkpt lat="48.70264" lon="2.52184">
        <ele>86</ele>
        <time>2014-10-07T08:06:05.642Z</time>
      </trkpt>
      <trkpt lat="48.70266" lon="2.52183">
        <ele>86</ele>
        <time>2014-10-07T08:06:06.640Z</time>
      </trkpt>
      <trkpt lat="48.70275" lon="2.52185">
        <ele>88</ele>
        <time>2014-10-07T08:06:14.442Z</time>
      </trkpt>
      <trkpt lat="48.70276" lon="2.52185">
        <ele>87</ele>
        <time>2014-10-07T08:06:14.605Z</time>
      </trkpt>
      <trkpt lat="48.70283" lon="2.52187">
        <ele>88</ele>
        <time>2014-10-07T08:06:19.603Z</time>
      </trkpt>
      <trkpt lat="48.70285" lon="2.52187">
        <ele>89</ele>
        <time>2014-10-07T08:06:20.640Z</time>
      </trkpt>
      <trkpt lat="48.70294" lon="2.52186">
        <ele>93</ele>
        <time>2014-10-07T08:06:26.605Z</time>
      </trkpt>
      <trkpt lat="48.70295" lon="2.52186">
        <ele>93</ele>
        <time>2014-10-07T08:06:27.643Z</time>
      </trkpt>
      <trkpt lat="48.70303" lon="2.52182">
        <ele>97</ele>
        <time>2014-10-07T08:06:34.642Z</time>
      </trkpt>
      <trkpt lat="48.70304" lon="2.52181">
        <ele>97</ele>
        <time>2014-10-07T08:06:35.672Z</time>
      </trkpt>
      <trkpt lat="48.70312" lon="2.52184">
        <ele>89</ele>
        <time>2014-10-07T08:07:09.289Z</time>
      </trkpt>
      <trkpt lat="48.70314" lon="2.52184">
        <ele>88</ele>
        <time>2014-10-07T08:07:09.598Z</time>
      </trkpt>
      <trkpt lat="48.70323" lon="2.52183">
        <ele>87</ele>
        <time>2014-10-07T08:07:14.657Z</time>
      </trkpt>
      <trkpt lat="48.70324" lon="2.52184">
        <ele>88</ele>
        <time>2014-10-07T08:07:15.641Z</time>
      </trkpt>
      <trkpt lat="48.70333" lon="2.52184">
        <ele>89</ele>
        <time>2014-10-07T08:07:20.643Z</time>
      </trkpt>
      <trkpt lat="48.70335" lon="2.52183">
        <ele>89</ele>
        <time>2014-10-07T08:07:21.641Z</time>
      </trkpt>
      <trkpt lat="48.70343" lon="2.52182">
        <ele>92</ele>
        <time>2014-10-07T08:07:27.645Z</time>
      </trkpt>
      <trkpt lat="48.70344" lon="2.52183">
        <ele>95</ele>
        <time>2014-10-07T08:07:28.650Z</time>
      </trkpt>
      <trkpt lat="48.7035" lon="2.52192">
        <ele>82</ele>
        <time>2014-10-07T08:07:39.646Z</time>
      </trkpt>
      <trkpt lat="48.70351" lon="2.52193">
        <ele>82</ele>
        <time>2014-10-07T08:07:40.678Z</time>
      </trkpt>
      <trkpt lat="48.70358" lon="2.52199">
        <ele>86</ele>
        <time>2014-10-07T08:07:45.601Z</time>
      </trkpt>
      <trkpt lat="48.7036" lon="2.522">
        <ele>88</ele>
        <time>2014-10-07T08:07:46.603Z</time>
      </trkpt>
      <trkpt lat="48.70367" lon="2.52207">
        <ele>91</ele>
        <time>2014-10-07T08:07:51.647Z</time>
      </trkpt>
      <trkpt lat="48.70369" lon="2.52209">
        <ele>91</ele>
        <time>2014-10-07T08:07:52.646Z</time>
      </trkpt>
      <trkpt lat="48.70376" lon="2.52214">
        <ele>88</ele>
        <time>2014-10-07T08:07:59.455Z</time>
      </trkpt>
      <trkpt lat="48.70378" lon="2.52215">
        <ele>87</ele>
        <time>2014-10-07T08:07:59.602Z</time>
      </trkpt>
      <trkpt lat="48.70385" lon="2.52217">
        <ele>89</ele>
        <time>2014-10-07T08:08:04.444Z</time>
      </trkpt>
      <trkpt lat="48.70387" lon="2.52218">
        <ele>90</ele>
        <time>2014-10-07T08:08:04.607Z</time>
      </trkpt>
      <trkpt lat="48.70396" lon="2.52219">
        <ele>87</ele>
        <time>2014-10-07T08:08:10.642Z</time>
      </trkpt>
      <trkpt lat="48.70397" lon="2.52219">
        <ele>85</ele>
        <time>2014-10-07T08:08:11.646Z</time>
      </trkpt>
      <trkpt lat="48.70404" lon="2.52222">
        <ele>89</ele>
        <time>2014-10-07T08:08:17.646Z</time>
      </trkpt>
      <trkpt lat="48.70406" lon="2.52222">
        <ele>89</ele>
        <time>2014-10-07T08:08:18.639Z</time>
      </trkpt>
      <trkpt lat="48.70414" lon="2.52222">
        <ele>89</ele>
        <time>2014-10-07T08:08:21.648Z</time>
      </trkpt>
      <trkpt lat="48.70416" lon="2.52222">
        <ele>89</ele>
        <time>2014-10-07T08:08:22.646Z</time>
      </trkpt>
      <trkpt lat="48.70423" lon="2.52228">
        <ele>82</ele>
        <time>2014-10-07T08:08:28.647Z</time>
      </trkpt>
      <trkpt lat="48.70424" lon="2.52228">
        <ele>83</ele>
        <time>2014-10-07T08:08:29.627Z</time>
      </trkpt>
      <trkpt lat="48.70433" lon="2.52229">
        <ele>79</ele>
        <time>2014-10-07T08:08:39.459Z</time>
      </trkpt>
      <trkpt lat="48.70434" lon="2.5223">
        <ele>83</ele>
        <time>2014-10-07T08:08:39.593Z</time>
      </trkpt>
      <trkpt lat="48.70441" lon="2.52236">
        <ele>84</ele>
        <time>2014-10-07T08:08:44.610Z</time>
      </trkpt>
      <trkpt lat="48.70442" lon="2.52237">
        <ele>84</ele>
        <time>2014-10-07T08:08:45.658Z</time>
      </trkpt>
      <trkpt lat="48.70448" lon="2.52244">
        <ele>86</ele>
        <time>2014-10-07T08:08:51.624Z</time>
      </trkpt>
      <trkpt lat="48.70449" lon="2.52246">
        <ele>87</ele>
        <time>2014-10-07T08:08:52.635Z</time>
      </trkpt>
      <trkpt lat="48.70455" lon="2.52253">
        <ele>83</ele>
        <time>2014-10-07T08:09:00.596Z</time>
      </trkpt>
      <trkpt lat="48.70456" lon="2.52254">
        <ele>84</ele>
        <time>2014-10-07T08:09:01.689Z</time>
      </trkpt>
      <trkpt lat="48.70464" lon="2.52257">
        <ele>82</ele>
        <time>2014-10-07T08:09:07.742Z</time>
      </trkpt>
      <trkpt lat="48.70466" lon="2.52257">
        <ele>81</ele>
        <time>2014-10-07T08:09:08.679Z</time>
      </trkpt>
      <trkpt lat="48.70467" lon="2.5227">
        <ele>82</ele>
        <time>2014-10-07T08:09:16.643Z</time>
      </trkpt>
      <trkpt lat="48.70467" lon="2.52273">
        <ele>82</ele>
        <time>2014-10-07T08:09:17.646Z</time>
      </trkpt>
      <trkpt lat="48.70471" lon="2.52285">
        <ele>85</ele>
        <time>2014-10-07T08:09:22.639Z</time>
      </trkpt>
      <trkpt lat="48.70471" lon="2.52288">
        <ele>87</ele>
        <time>2014-10-07T08:09:23.643Z</time>
      </trkpt>
      <trkpt lat="48.70473" lon="2.52299">
        <ele>90</ele>
        <time>2014-10-07T08:09:27.662Z</time>
      </trkpt>
      <trkpt lat="48.70474" lon="2.52301">
        <ele>89</ele>
        <time>2014-10-07T08:09:28.602Z</time>
      </trkpt>
      <trkpt lat="48.70477" lon="2.52311">
        <ele>89</ele>
        <time>2014-10-07T08:09:35.633Z</time>
      </trkpt>
      <trkpt lat="48.70477" lon="2.52314">
        <ele>90</ele>
        <time>2014-10-07T08:09:36.598Z</time>
      </trkpt>
      <trkpt lat="48.70482" lon="2.52322">
        <ele>91</ele>
        <time>2014-10-07T08:09:41.671Z</time>
      </trkpt>
      <trkpt lat="48.70484" lon="2.52324">
        <ele>91</ele>
        <time>2014-10-07T08:09:42.630Z</time>
      </trkpt>
      <trkpt lat="48.70489" lon="2.52333">
        <ele>89</ele>
        <time>2014-10-07T08:09:48.675Z</time>
      </trkpt>
      <trkpt lat="48.7049" lon="2.52334">
        <ele>89</ele>
        <time>2014-10-07T08:09:49.599Z</time>
      </trkpt>
      <trkpt lat="48.70495" lon="2.52343">
        <ele>89</ele>
        <time>2014-10-07T08:09:54.600Z</time>
      </trkpt>
      <trkpt lat="48.70496" lon="2.52346">
        <ele>91</ele>
        <time>2014-10-07T08:09:55.654Z</time>
      </trkpt>
      <trkpt lat="48.70493" lon="2.52358">
        <ele>89</ele>
        <time>2014-10-07T08:10:00.649Z</time>
      </trkpt>
      <trkpt lat="48.70493" lon="2.5236">
        <ele>89</ele>
        <time>2014-10-07T08:10:01.672Z</time>
      </trkpt>
      <trkpt lat="48.70497" lon="2.52372">
        <ele>93</ele>
        <time>2014-10-07T08:10:07.645Z</time>
      </trkpt>
      <trkpt lat="48.70498" lon="2.52373">
        <ele>94</ele>
        <time>2014-10-07T08:10:08.646Z</time>
      </trkpt>
      <trkpt lat="48.70503" lon="2.52383">
        <ele>92</ele>
        <time>2014-10-07T08:10:14.730Z</time>
      </trkpt>
      <trkpt lat="48.70503" lon="2.52385">
        <ele>91</ele>
        <time>2014-10-07T08:10:15.646Z</time>
      </trkpt>
      <trkpt lat="48.70507" lon="2.52396">
        <ele>93</ele>
        <time>2014-10-07T08:10:21.594Z</time>
      </trkpt>
      <trkpt lat="48.70508" lon="2.52398">
        <ele>94</ele>
        <time>2014-10-07T08:10:22.645Z</time>
      </trkpt>
      <trkpt lat="48.70508" lon="2.52411">
        <ele>91</ele>
        <time>2014-10-07T08:10:29.637Z</time>
      </trkpt>
      <trkpt lat="48.70507" lon="2.52413">
        <ele>90</ele>
        <time>2014-10-07T08:10:30.643Z</time>
      </trkpt>
      <trkpt lat="48.70503" lon="2.52425">
        <ele>90</ele>
        <time>2014-10-07T08:10:34.639Z</time>
      </trkpt>
      <trkpt lat="48.70503" lon="2.52425">
        <ele>91</ele>
        <time>2014-10-07T08:10:35.644Z</time>
      </trkpt>
      <trkpt lat="48.70504" lon="2.52427">
        <ele>91</ele>
        <time>2014-10-07T08:10:43.794Z</time>
      </trkpt>
      <trkpt lat="48.70512" lon="2.5244">
        <ele>87</ele>
        <time>2014-10-07T08:10:44.631Z</time>
      </trkpt>
      <trkpt lat="48.7051" lon="2.52452">
        <ele>86</ele>
        <time>2014-10-07T08:10:53.808Z</time>
      </trkpt>
      <trkpt lat="48.7051" lon="2.52454">
        <ele>85</ele>
        <time>2014-10-07T08:10:54.635Z</time>
      </trkpt>
      <trkpt lat="48.70513" lon="2.52465">
        <ele>84</ele>
        <time>2014-10-07T08:10:59.640Z</time>
      </trkpt>
      <trkpt lat="48.70514" lon="2.52467">
        <ele>84</ele>
        <time>2014-10-07T08:11:00.644Z</time>
      </trkpt>
      <trkpt lat="48.70516" lon="2.5248">
        <ele>86</ele>
        <time>2014-10-07T08:11:07.642Z</time>
      </trkpt>
      <trkpt lat="48.70516" lon="2.52481">
        <ele>86</ele>
        <time>2014-10-07T08:11:08.643Z</time>
      </trkpt>
      <trkpt lat="48.70518" lon="2.52494">
        <ele>85</ele>
        <time>2014-10-07T08:11:15.615Z</time>
      </trkpt>
      <trkpt lat="48.70518" lon="2.52496">
        <ele>83</ele>
        <time>2014-10-07T08:11:16.602Z</time>
      </trkpt>
      <trkpt lat="48.70513" lon="2.52507">
        <ele>83</ele>
        <time>2014-10-07T08:11:25.656Z</time>
      </trkpt>
      <trkpt lat="48.70512" lon="2.52509">
        <ele>84</ele>
        <time>2014-10-07T08:11:26.647Z</time>
      </trkpt>
      <trkpt lat="48.70505" lon="2.52517">
        <ele>87</ele>
        <time>2014-10-07T08:11:34.090Z</time>
      </trkpt>
      <trkpt lat="48.70505" lon="2.52519">
        <ele>87</ele>
        <time>2014-10-07T08:11:34.679Z</time>
      </trkpt>
      <trkpt lat="48.70505" lon="2.52532">
        <ele>82</ele>
        <time>2014-10-07T08:11:41.642Z</time>
      </trkpt>
      <trkpt lat="48.70505" lon="2.52533">
        <ele>82</ele>
        <time>2014-10-07T08:11:42.645Z</time>
      </trkpt>
      <trkpt lat="48.70501" lon="2.52545">
        <ele>85</ele>
        <time>2014-10-07T08:12:06.647Z</time>
      </trkpt>
      <trkpt lat="48.70501" lon="2.52546">
        <ele>85</ele>
        <time>2014-10-07T08:12:07.648Z</time>
      </trkpt>
      <trkpt lat="48.70505" lon="2.52555">
        <ele>82</ele>
        <time>2014-10-07T08:12:21.674Z</time>
      </trkpt>
      <trkpt lat="48.70506" lon="2.52557">
        <ele>84</ele>
        <time>2014-10-07T08:12:22.637Z</time>
      </trkpt>
      <trkpt lat="48.70497" lon="2.52558">
        <ele>81</ele>
        <time>2014-10-07T08:12:43.316Z</time>
      </trkpt>
      <trkpt lat="48.70496" lon="2.52559">
        <ele>82</ele>
        <time>2014-10-07T08:12:43.596Z</time>
      </trkpt>
      <trkpt lat="48.70489" lon="2.52567">
        <ele>75</ele>
        <time>2014-10-07T08:12:54.599Z</time>
      </trkpt>
      <trkpt lat="48.70488" lon="2.52567">
        <ele>77</ele>
        <time>2014-10-07T08:12:55.636Z</time>
      </trkpt>
      <trkpt lat="48.70479" lon="2.52571">
        <ele>80</ele>
        <time>2014-10-07T08:13:02.641Z</time>
      </trkpt>
      <trkpt lat="48.70479" lon="2.52573">
        <ele>81</ele>
        <time>2014-10-07T08:13:03.645Z</time>
      </trkpt>
      <trkpt lat="48.70475" lon="2.52583">
        <ele>82</ele>
        <time>2014-10-07T08:13:08.634Z</time>
      </trkpt>
      <trkpt lat="48.70475" lon="2.52586">
        <ele>83</ele>
        <time>2014-10-07T08:13:09.619Z</time>
      </trkpt>
      <trkpt lat="48.70471" lon="2.52598">
        <ele>84</ele>
        <time>2014-10-07T08:13:15.646Z</time>
      </trkpt>
      <trkpt lat="48.7047" lon="2.52598">
        <ele>85</ele>
        <time>2014-10-07T08:13:16.640Z</time>
      </trkpt>
      <trkpt lat="48.70471" lon="2.52612">
        <ele>82</ele>
        <time>2014-10-07T08:13:24.638Z</time>
      </trkpt>
      <trkpt lat="48.70471" lon="2.52613">
        <ele>83</ele>
        <time>2014-10-07T08:13:25.642Z</time>
      </trkpt>
      <trkpt lat="48.70469" lon="2.52626">
        <ele>84</ele>
        <time>2014-10-07T08:13:32.641Z</time>
      </trkpt>
      <trkpt lat="48.70468" lon="2.52628">
        <ele>86</ele>
        <time>2014-10-07T08:13:33.601Z</time>
      </trkpt>
      <trkpt lat="48.70465" lon="2.5264">
        <ele>88</ele>
        <time>2014-10-07T08:13:38.647Z</time>
      </trkpt>
      <trkpt lat="48.70464" lon="2.52641">
        <ele>86</ele>
        <time>2014-10-07T08:13:39.643Z</time>
      </trkpt>
      <trkpt lat="48.7046" lon="2.52653">
        <ele>92</ele>
        <time>2014-10-07T08:13:51.708Z</time>
      </trkpt>
      <trkpt lat="48.7046" lon="2.52655">
        <ele>94</ele>
        <time>2014-10-07T08:13:52.638Z</time>
      </trkpt>
      <trkpt lat="48.7046" lon="2.52667">
        <ele>91</ele>
        <time>2014-10-07T08:13:59.623Z</time>
      </trkpt>
      <trkpt lat="48.70459" lon="2.52669">
        <ele>91</ele>
        <time>2014-10-07T08:14:00.637Z</time>
      </trkpt>
      <trkpt lat="48.70459" lon="2.5268">
        <ele>89</ele>
        <time>2014-10-07T08:14:06.744Z</time>
      </trkpt>
      <trkpt lat="48.7046" lon="2.52683">
        <ele>88</ele>
        <time>2014-10-07T08:14:07.641Z</time>
      </trkpt>
      <trkpt lat="48.70458" lon="2.52694">
        <ele>83</ele>
        <time>2014-10-07T08:14:14.612Z</time>
      </trkpt>
      <trkpt lat="48.70458" lon="2.52696">
        <ele>83</ele>
        <time>2014-10-07T08:14:15.651Z</time>
      </trkpt>
      <trkpt lat="48.7045" lon="2.52702">
        <ele>77</ele>
        <time>2014-10-07T08:14:24.639Z</time>
      </trkpt>
      <trkpt lat="48.7045" lon="2.52704">
        <ele>78</ele>
        <time>2014-10-07T08:14:25.639Z</time>
      </trkpt>
      <trkpt lat="48.70448" lon="2.52717">
        <ele>75</ele>
        <time>2014-10-07T08:14:31.637Z</time>
      </trkpt>
      <trkpt lat="48.70448" lon="2.52719">
        <ele>76</ele>
        <time>2014-10-07T08:14:32.644Z</time>
      </trkpt>
      <trkpt lat="48.70443" lon="2.5273">
        <ele>79</ele>
        <time>2014-10-07T08:14:38.769Z</time>
      </trkpt>
      <trkpt lat="48.70441" lon="2.5273">
        <ele>78</ele>
        <time>2014-10-07T08:14:39.637Z</time>
      </trkpt>
      <trkpt lat="48.70436" lon="2.5274">
        <ele>75</ele>
        <time>2014-10-07T08:14:47.602Z</time>
      </trkpt>
      <trkpt lat="48.70436" lon="2.52742">
        <ele>75</ele>
        <time>2014-10-07T08:14:48.639Z</time>
      </trkpt>
      <trkpt lat="48.70429" lon="2.52748">
        <ele>76</ele>
        <time>2014-10-07T08:14:55.637Z</time>
      </trkpt>
      <trkpt lat="48.70428" lon="2.52749">
        <ele>74</ele>
        <time>2014-10-07T08:14:56.632Z</time>
      </trkpt>
      <trkpt lat="48.70423" lon="2.52759">
        <ele>78</ele>
        <time>2014-10-07T08:15:03.641Z</time>
      </trkpt>
      <trkpt lat="48.70422" lon="2.52761">
        <ele>79</ele>
        <time>2014-10-07T08:15:04.641Z</time>
      </trkpt>
      <trkpt lat="48.70415" lon="2.5277">
        <ele>76</ele>
        <time>2014-10-07T08:15:13.628Z</time>
      </trkpt>
      <trkpt lat="48.70415" lon="2.52771">
        <ele>76</ele>
        <time>2014-10-07T08:15:14.632Z</time>
      </trkpt>
      <trkpt lat="48.70408" lon="2.52778">
        <ele>82</ele>
        <time>2014-10-07T08:15:20.642Z</time>
      </trkpt>
      <trkpt lat="48.70407" lon="2.5278">
        <ele>83</ele>
        <time>2014-10-07T08:15:21.632Z</time>
      </trkpt>
      <trkpt lat="48.70407" lon="2.52792">
        <ele>76</ele>
        <time>2014-10-07T08:15:25.705Z</time>
      </trkpt>
      <trkpt lat="48.70407" lon="2.52794">
        <ele>75</ele>
        <time>2014-10-07T08:15:26.631Z</time>
      </trkpt>
      <trkpt lat="48.70405" lon="2.52807">
        <ele>77</ele>
        <time>2014-10-07T08:15:32.638Z</time>
      </trkpt>
      <trkpt lat="48.70404" lon="2.52809">
        <ele>76</ele>
        <time>2014-10-07T08:15:33.642Z</time>
      </trkpt>
      <trkpt lat="48.70402" lon="2.52813">
        <ele>73</ele>
        <time>2014-10-07T08:15:43.987Z</time>
      </trkpt>
      <trkpt lat="48.70394" lon="2.52816">
        <ele>71</ele>
        <time>2014-10-07T08:15:44.594Z</time>
      </trkpt>
      <trkpt lat="48.70386" lon="2.52822">
        <ele>72</ele>
        <time>2014-10-07T08:15:51.450Z</time>
      </trkpt>
      <trkpt lat="48.70385" lon="2.52824">
        <ele>71</ele>
        <time>2014-10-07T08:15:51.600Z</time>
      </trkpt>
      <trkpt lat="48.70381" lon="2.52835">
        <ele>76</ele>
        <time>2014-10-07T08:15:57.598Z</time>
      </trkpt>
      <trkpt lat="48.70379" lon="2.52834">
        <ele>77</ele>
        <time>2014-10-07T08:15:58.632Z</time>
      </trkpt>
      <trkpt lat="48.70371" lon="2.52835">
        <ele>80</ele>
        <time>2014-10-07T08:16:02.636Z</time>
      </trkpt>
      <trkpt lat="48.7037" lon="2.52837">
        <ele>80</ele>
        <time>2014-10-07T08:16:03.635Z</time>
      </trkpt>
      <trkpt lat="48.70369" lon="2.52848">
        <ele>78</ele>
        <time>2014-10-07T08:16:09.036Z</time>
      </trkpt>
      <trkpt lat="48.70369" lon="2.5285">
        <ele>77</ele>
        <time>2014-10-07T08:16:09.631Z</time>
      </trkpt>
      <trkpt lat="48.70362" lon="2.52845">
        <ele>70</ele>
        <time>2014-10-07T08:16:13.997Z</time>
      </trkpt>
      <trkpt lat="48.7036" lon="2.52844">
        <ele>71</ele>
        <time>2014-10-07T08:16:14.629Z</time>
      </trkpt>
      <trkpt lat="48.70352" lon="2.52842">
        <ele>74</ele>
        <time>2014-10-07T08:16:19.634Z</time>
      </trkpt>
      <trkpt lat="48.7035" lon="2.52842">
        <ele>74</ele>
        <time>2014-10-07T08:16:20.595Z</time>
      </trkpt>
      <trkpt lat="48.70345" lon="2.52852">
        <ele>75</ele>
        <time>2014-10-07T08:16:25.601Z</time>
      </trkpt>
      <trkpt lat="48.70344" lon="2.52853">
        <ele>76</ele>
        <time>2014-10-07T08:16:26.635Z</time>
      </trkpt>
      <trkpt lat="48.70336" lon="2.5286">
        <ele>81</ele>
        <time>2014-10-07T08:16:32.597Z</time>
      </trkpt>
      <trkpt lat="48.70335" lon="2.52861">
        <ele>80</ele>
        <time>2014-10-07T08:16:33.632Z</time>
      </trkpt>
      <trkpt lat="48.70327" lon="2.52856">
        <ele>73</ele>
        <time>2014-10-07T08:16:40.643Z</time>
      </trkpt>
      <trkpt lat="48.70326" lon="2.52856">
        <ele>73</ele>
        <time>2014-10-07T08:16:41.638Z</time>
      </trkpt>
      <trkpt lat="48.70317" lon="2.52858">
        <ele>69</ele>
        <time>2014-10-07T08:16:50.646Z</time>
      </trkpt>
      <trkpt lat="48.70316" lon="2.5286">
        <ele>68</ele>
        <time>2014-10-07T08:16:51.609Z</time>
      </trkpt>
      <trkpt lat="48.7031" lon="2.52869">
        <ele>65</ele>
        <time>2014-10-07T08:17:02.638Z</time>
      </trkpt>
      <trkpt lat="48.70309" lon="2.52871">
        <ele>66</ele>
        <time>2014-10-07T08:17:03.595Z</time>
      </trkpt>
      <trkpt lat="48.70301" lon="2.52874">
        <ele>61</ele>
        <time>2014-10-07T08:17:09.633Z</time>
      </trkpt>
      <trkpt lat="48.70299" lon="2.52872">
        <ele>60</ele>
        <time>2014-10-07T08:17:10.634Z</time>
      </trkpt>
      <trkpt lat="48.70291" lon="2.52869">
        <ele>60</ele>
        <time>2014-10-07T08:17:16.628Z</time>
      </trkpt>
      <trkpt lat="48.7029" lon="2.52867">
        <ele>57</ele>
        <time>2014-10-07T08:17:17.655Z</time>
      </trkpt>
      <trkpt lat="48.70281" lon="2.52867">
        <ele>55</ele>
        <time>2014-10-07T08:17:25.673Z</time>
      </trkpt>
      <trkpt lat="48.7028" lon="2.52869">
        <ele>56</ele>
        <time>2014-10-07T08:17:26.641Z</time>
      </trkpt>
      <trkpt lat="48.70274" lon="2.52875">
        <ele>55</ele>
        <time>2014-10-07T08:17:31.641Z</time>
      </trkpt>
      <trkpt lat="48.70272" lon="2.52879">
        <ele>55</ele>
        <time>2014-10-07T08:17:32.642Z</time>
      </trkpt>
      <trkpt lat="48.7027" lon="2.52888">
        <ele>57</ele>
        <time>2014-10-07T08:17:34.649Z</time>
      </trkpt>
      <trkpt lat="48.70268" lon="2.52892">
        <ele>58</ele>
        <time>2014-10-07T08:17:35.690Z</time>
      </trkpt>
      <trkpt lat="48.7026" lon="2.52888">
        <ele>55</ele>
        <time>2014-10-07T08:17:43.792Z</time>
      </trkpt>
      <trkpt lat="48.70259" lon="2.52886">
        <ele>60</ele>
        <time>2014-10-07T08:17:44.639Z</time>
      </trkpt>
      <trkpt lat="48.70252" lon="2.52892">
        <ele>63</ele>
        <time>2014-10-07T08:17:49.630Z</time>
      </trkpt>
      <trkpt lat="48.7025" lon="2.52893">
        <ele>64</ele>
        <time>2014-10-07T08:17:50.595Z</time>
      </trkpt>
      <trkpt lat="48.70243" lon="2.529">
        <ele>66</ele>
        <time>2014-10-07T08:17:56.604Z</time>
      </trkpt>
      <trkpt lat="48.70242" lon="2.529">
        <ele>62</ele>
        <time>2014-10-07T08:17:57.633Z</time>
      </trkpt>
      <trkpt lat="48.70234" lon="2.52907">
        <ele>67</ele>
        <time>2014-10-07T08:18:03.927Z</time>
      </trkpt>
      <trkpt lat="48.70233" lon="2.52908">
        <ele>68</ele>
        <time>2014-10-07T08:18:04.602Z</time>
      </trkpt>
      <trkpt lat="48.70226" lon="2.52913">
        <ele>74</ele>
        <time>2014-10-07T08:18:10.670Z</time>
      </trkpt>
      <trkpt lat="48.70224" lon="2.52914">
        <ele>76</ele>
        <time>2014-10-07T08:18:11.648Z</time>
      </trkpt>
      <trkpt lat="48.70218" lon="2.52924">
        <ele>83</ele>
        <time>2014-10-07T08:18:24.237Z</time>
      </trkpt>
      <trkpt lat="48.70217" lon="2.52923">
        <ele>84</ele>
        <time>2014-10-07T08:18:24.643Z</time>
      </trkpt>
      <trkpt lat="48.70209" lon="2.52925">
        <ele>81</ele>
        <time>2014-10-07T08:18:34.636Z</time>
      </trkpt>
      <trkpt lat="48.70207" lon="2.52925">
        <ele>82</ele>
        <time>2014-10-07T08:18:35.607Z</time>
      </trkpt>
      <trkpt lat="48.702" lon="2.52928">
        <ele>83</ele>
        <time>2014-10-07T08:18:39.081Z</time>
      </trkpt>
      <trkpt lat="48.70198" lon="2.52929">
        <ele>83</ele>
        <time>2014-10-07T08:18:39.640Z</time>
      </trkpt>
      <trkpt lat="48.70189" lon="2.52933">
        <ele>89</ele>
        <time>2014-10-07T08:18:44.142Z</time>
      </trkpt>
      <trkpt lat="48.70188" lon="2.52932">
        <ele>86</ele>
        <time>2014-10-07T08:18:44.638Z</time>
      </trkpt>
      <trkpt lat="48.70181" lon="2.52938">
        <ele>79</ele>
        <time>2014-10-07T08:19:04.322Z</time>
      </trkpt>
      <trkpt lat="48.7018" lon="2.5294">
        <ele>79</ele>
        <time>2014-10-07T08:19:04.607Z</time>
      </trkpt>
      <trkpt lat="48.70174" lon="2.52949">
        <ele>86</ele>
        <time>2014-10-07T08:19:33.803Z</time>
      </trkpt>
      <trkpt lat="48.70174" lon="2.52949">
        <ele>86</ele>
        <time>2014-10-07T08:19:34.639Z</time>
      </trkpt>
      <trkpt lat="48.70166" lon="2.52955">
        <ele>90</ele>
        <time>2014-10-07T08:19:38.636Z</time>
      </trkpt>
      <trkpt lat="48.70164" lon="2.52955">
        <ele>88</ele>
        <time>2014-10-07T08:19:39.600Z</time>
      </trkpt>
      <trkpt lat="48.70156" lon="2.52958">
        <ele>88</ele>
        <time>2014-10-07T08:19:42.639Z</time>
      </trkpt>
      <trkpt lat="48.70153" lon="2.52961">
        <ele>91</ele>
        <time>2014-10-07T08:19:43.634Z</time>
      </trkpt>
      <trkpt lat="48.70146" lon="2.52969">
        <ele>91</ele>
        <time>2014-10-07T08:19:47.598Z</time>
      </trkpt>
      <trkpt lat="48.70145" lon="2.5297">
        <ele>90</ele>
        <time>2014-10-07T08:19:48.635Z</time>
      </trkpt>
      <trkpt lat="48.70139" lon="2.52979">
        <ele>88</ele>
        <time>2014-10-07T08:19:55.634Z</time>
      </trkpt>
      <trkpt lat="48.70138" lon="2.52981">
        <ele>87</ele>
        <time>2014-10-07T08:19:56.638Z</time>
      </trkpt>
      <trkpt lat="48.70133" lon="2.52991">
        <ele>88</ele>
        <time>2014-10-07T08:20:06.637Z</time>
      </trkpt>
      <trkpt lat="48.70132" lon="2.52992">
        <ele>88</ele>
        <time>2014-10-07T08:20:07.640Z</time>
      </trkpt>
      <trkpt lat="48.70125" lon="2.52997">
        <ele>89</ele>
        <time>2014-10-07T08:20:14.036Z</time>
      </trkpt>
      <trkpt lat="48.70124" lon="2.52997">
        <ele>88</ele>
        <time>2014-10-07T08:20:14.600Z</time>
      </trkpt>
      <trkpt lat="48.70119" lon="2.53006">
        <ele>90</ele>
        <time>2014-10-07T08:20:22.639Z</time>
      </trkpt>
      <trkpt lat="48.70118" lon="2.53007">
        <ele>90</ele>
        <time>2014-10-07T08:20:23.637Z</time>
      </trkpt>
      <trkpt lat="48.7011" lon="2.53005">
        <ele>83</ele>
        <time>2014-10-07T08:20:36.595Z</time>
      </trkpt>
      <trkpt lat="48.70108" lon="2.53007">
        <ele>87</ele>
        <time>2014-10-07T08:20:37.635Z</time>
      </trkpt>
      <trkpt lat="48.70108" lon="2.53007">
        <ele>87</ele>
        <time>2014-10-07T08:20:46.396Z</time>
      </trkpt>
      <trkpt lat="48.70096" lon="2.53017">
        <ele>87</ele>
        <time>2014-10-07T08:20:46.612Z</time>
      </trkpt>
      <trkpt lat="48.70089" lon="2.53024">
        <ele>88</ele>
        <time>2014-10-07T08:20:51.593Z</time>
      </trkpt>
      <trkpt lat="48.70088" lon="2.53025">
        <ele>84</ele>
        <time>2014-10-07T08:20:52.636Z</time>
      </trkpt>
      <trkpt lat="48.70079" lon="2.53026">
        <ele>87</ele>
        <time>2014-10-07T08:21:28.636Z</time>
      </trkpt>
      <trkpt lat="48.70077" lon="2.53027">
        <ele>88</ele>
        <time>2014-10-07T08:21:29.642Z</time>
      </trkpt>
      <trkpt lat="48.70072" lon="2.53032">
        <ele>88</ele>
        <time>2014-10-07T08:21:31.615Z</time>
      </trkpt>
      <trkpt lat="48.70069" lon="2.53034">
        <ele>88</ele>
        <time>2014-10-07T08:21:32.643Z</time>
      </trkpt>
      <trkpt lat="48.70063" lon="2.53037">
        <ele>88</ele>
        <time>2014-10-07T08:21:34.643Z</time>
      </trkpt>
      <trkpt lat="48.7006" lon="2.53039">
        <ele>87</ele>
        <time>2014-10-07T08:21:35.642Z</time>
      </trkpt>
      <trkpt lat="48.70053" lon="2.5304">
        <ele>84</ele>
        <time>2014-10-07T08:21:38.637Z</time>
      </trkpt>
      <trkpt lat="48.7005" lon="2.53041">
        <ele>84</ele>
        <time>2014-10-07T08:21:39.642Z</time>
      </trkpt>
      <trkpt lat="48.70042" lon="2.53042">
        <ele>78</ele>
        <time>2014-10-07T08:22:06.643Z</time>
      </trkpt>
      <trkpt lat="48.7004" lon="2.53043">
        <ele>74</ele>
        <time>2014-10-07T08:22:07.618Z</time>
      </trkpt>
      <trkpt lat="48.70032" lon="2.53047">
        <ele>74</ele>
        <time>2014-10-07T08:22:11.606Z</time>
      </trkpt>
      <trkpt lat="48.7003" lon="2.53048">
        <ele>77</ele>
        <time>2014-10-07T08:22:12.648Z</time>
      </trkpt>
      <trkpt lat="48.70023" lon="2.53052">
        <ele>69</ele>
        <time>2014-10-07T08:22:15.644Z</time>
      </trkpt>
      <trkpt lat="48.70021" lon="2.53054">
        <ele>68</ele>
        <time>2014-10-07T08:22:16.639Z</time>
      </trkpt>
      <trkpt lat="48.70014" lon="2.53058">
        <ele>67</ele>
        <time>2014-10-07T08:22:20.641Z</time>
      </trkpt>
      <trkpt lat="48.70012" lon="2.53059">
        <ele>67</ele>
        <time>2014-10-07T08:22:21.619Z</time>
      </trkpt>
      <trkpt lat="48.70005" lon="2.53064">
        <ele>70</ele>
        <time>2014-10-07T08:22:25.601Z</time>
      </trkpt>
      <trkpt lat="48.70003" lon="2.53065">
        <ele>69</ele>
        <time>2014-10-07T08:22:26.645Z</time>
      </trkpt>
      <trkpt lat="48.69995" lon="2.53068">
        <ele>74</ele>
        <time>2014-10-07T08:22:33.861Z</time>
      </trkpt>
      <trkpt lat="48.69993" lon="2.53069">
        <ele>74</ele>
        <time>2014-10-07T08:22:34.643Z</time>
      </trkpt>
      <trkpt lat="48.69988" lon="2.53079">
        <ele>80</ele>
        <time>2014-10-07T08:22:41.641Z</time>
      </trkpt>
      <trkpt lat="48.69987" lon="2.53079">
        <ele>81</ele>
        <time>2014-10-07T08:22:42.641Z</time>
      </trkpt>
      <trkpt lat="48.6998" lon="2.53086">
        <ele>87</ele>
        <time>2014-10-07T08:22:49.643Z</time>
      </trkpt>
      <trkpt lat="48.69978" lon="2.53088">
        <ele>89</ele>
        <time>2014-10-07T08:22:50.640Z</time>
      </trkpt>
      <trkpt lat="48.69971" lon="2.53095">
        <ele>88</ele>
        <time>2014-10-07T08:22:57.606Z</time>
      </trkpt>
      <trkpt lat="48.6997" lon="2.53095">
        <ele>89</ele>
        <time>2014-10-07T08:22:58.641Z</time>
      </trkpt>
      <trkpt lat="48.69962" lon="2.53099">
        <ele>90</ele>
        <time>2014-10-07T08:23:08.639Z</time>
      </trkpt>
      <trkpt lat="48.69961" lon="2.531">
        <ele>89</ele>
        <time>2014-10-07T08:23:09.639Z</time>
      </trkpt>
      <trkpt lat="48.69952" lon="2.53103">
        <ele>88</ele>
        <time>2014-10-07T08:23:17.644Z</time>
      </trkpt>
      <trkpt lat="48.69952" lon="2.53103">
        <ele>88</ele>
        <time>2014-10-07T08:23:18.613Z</time>
      </trkpt>
      <trkpt lat="48.69943" lon="2.53103">
        <ele>89</ele>
        <time>2014-10-07T08:23:26.631Z</time>
      </trkpt>
      <trkpt lat="48.69942" lon="2.53104">
        <ele>91</ele>
        <time>2014-10-07T08:23:27.655Z</time>
      </trkpt>
      <trkpt lat="48.69935" lon="2.53111">
        <ele>91</ele>
        <time>2014-10-07T08:23:34.600Z</time>
      </trkpt>
      <trkpt lat="48.69934" lon="2.53112">
        <ele>92</ele>
        <time>2014-10-07T08:23:35.635Z</time>
      </trkpt>
      <trkpt lat="48.6993" lon="2.53124">
        <ele>82</ele>
        <time>2014-10-07T08:23:43.639Z</time>
      </trkpt>
      <trkpt lat="48.6993" lon="2.53125">
        <ele>82</ele>
        <time>2014-10-07T08:23:44.601Z</time>
      </trkpt>
      <trkpt lat="48.69927" lon="2.53134">
        <ele>80</ele>
        <time>2014-10-07T08:23:52.630Z</time>
      </trkpt>
      <trkpt lat="48.69925" lon="2.53137">
        <ele>81</ele>
        <time>2014-10-07T08:23:53.639Z</time>
      </trkpt>
      <trkpt lat="48.69917" lon="2.53143">
        <ele>86</ele>
        <time>2014-10-07T08:23:58.600Z</time>
      </trkpt>
      <trkpt lat="48.69915" lon="2.53144">
        <ele>85</ele>
        <time>2014-10-07T08:23:59.643Z</time>
      </trkpt>
      <trkpt lat="48.69907" lon="2.53142">
        <ele>87</ele>
        <time>2014-10-07T08:24:06.608Z</time>
      </trkpt>
      <trkpt lat="48.69906" lon="2.53143">
        <ele>88</ele>
        <time>2014-10-07T08:24:07.632Z</time>
      </trkpt>
      <trkpt lat="48.69898" lon="2.53146">
        <ele>90</ele>
        <time>2014-10-07T08:24:13.641Z</time>
      </trkpt>
      <trkpt lat="48.69896" lon="2.53146">
        <ele>91</ele>
        <time>2014-10-07T08:24:14.644Z</time>
      </trkpt>
      <trkpt lat="48.69889" lon="2.53146">
        <ele>95</ele>
        <time>2014-10-07T08:24:21.627Z</time>
      </trkpt>
      <trkpt lat="48.69887" lon="2.53147">
        <ele>95</ele>
        <time>2014-10-07T08:24:22.637Z</time>
      </trkpt>
      <trkpt lat="48.6988" lon="2.53154">
        <ele>93</ele>
        <time>2014-10-07T08:24:27.628Z</time>
      </trkpt>
      <trkpt lat="48.69879" lon="2.53155">
        <ele>93</ele>
        <time>2014-10-07T08:24:28.634Z</time>
      </trkpt>
      <trkpt lat="48.69872" lon="2.53164">
        <ele>82</ele>
        <time>2014-10-07T08:24:36.359Z</time>
      </trkpt>
      <trkpt lat="48.69871" lon="2.53164">
        <ele>81</ele>
        <time>2014-10-07T08:24:36.601Z</time>
      </trkpt>
      <trkpt lat="48.69864" lon="2.53171">
        <ele>77</ele>
        <time>2014-10-07T08:24:46.616Z</time>
      </trkpt>
      <trkpt lat="48.69863" lon="2.53172">
        <ele>80</ele>
        <time>2014-10-07T08:24:47.681Z</time>
      </trkpt>
      <trkpt lat="48.69855" lon="2.53169">
        <ele>70</ele>
        <time>2014-10-07T08:24:58.629Z</time>
      </trkpt>
      <trkpt lat="48.69854" lon="2.5317">
        <ele>70</ele>
        <time>2014-10-07T08:24:59.625Z</time>
      </trkpt>
      <trkpt lat="48.69847" lon="2.53173">
        <ele>76</ele>
        <time>2014-10-07T08:25:07.634Z</time>
      </trkpt>
      <trkpt lat="48.69845" lon="2.53174">
        <ele>76</ele>
        <time>2014-10-07T08:25:08.638Z</time>
      </trkpt>
      <trkpt lat="48.69837" lon="2.53172">
        <ele>80</ele>
        <time>2014-10-07T08:25:15.638Z</time>
      </trkpt>
      <trkpt lat="48.69836" lon="2.53171">
        <ele>79</ele>
        <time>2014-10-07T08:25:16.609Z</time>
      </trkpt>
      <trkpt lat="48.69831" lon="2.53161">
        <ele>77</ele>
        <time>2014-10-07T08:25:24.088Z</time>
      </trkpt>
      <trkpt lat="48.6983" lon="2.5316">
        <ele>78</ele>
        <time>2014-10-07T08:25:24.639Z</time>
      </trkpt>
      <trkpt lat="48.69824" lon="2.53167">
        <ele>78</ele>
        <time>2014-10-07T08:25:28.634Z</time>
      </trkpt>
      <trkpt lat="48.69823" lon="2.5317">
        <ele>80</ele>
        <time>2014-10-07T08:25:29.638Z</time>
      </trkpt>
      <trkpt lat="48.69814" lon="2.53164">
        <ele>90</ele>
        <time>2014-10-07T08:25:54.636Z</time>
      </trkpt>
      <trkpt lat="48.69813" lon="2.53163">
        <ele>91</ele>
        <time>2014-10-07T08:25:55.638Z</time>
      </trkpt>
      <trkpt lat="48.69805" lon="2.53158">
        <ele>97</ele>
        <time>2014-10-07T08:25:59.634Z</time>
      </trkpt>
      <trkpt lat="48.69802" lon="2.53157">
        <ele>96</ele>
        <time>2014-10-07T08:26:00.630Z</time>
      </trkpt>
      <trkpt lat="48.69795" lon="2.53151">
        <ele>97</ele>
        <time>2014-10-07T08:26:03.641Z</time>
      </trkpt>
      <trkpt lat="48.69792" lon="2.53149">
        <ele>96</ele>
        <time>2014-10-07T08:26:04.631Z</time>
      </trkpt>
      <trkpt lat="48.69785" lon="2.53141">
        <ele>95</ele>
        <time>2014-10-07T08:26:08.634Z</time>
      </trkpt>
      <trkpt lat="48.69783" lon="2.5314">
        <ele>94</ele>
        <time>2014-10-07T08:26:09.593Z</time>
      </trkpt>
      <trkpt lat="48.69776" lon="2.53133">
        <ele>99</ele>
        <time>2014-10-07T08:26:15.634Z</time>
      </trkpt>
      <trkpt lat="48.69774" lon="2.53132">
        <ele>99</ele>
        <time>2014-10-07T08:26:16.628Z</time>
      </trkpt>
      <trkpt lat="48.69767" lon="2.53127">
        <ele>90</ele>
        <time>2014-10-07T08:26:23.636Z</time>
      </trkpt>
      <trkpt lat="48.69766" lon="2.53127">
        <ele>87</ele>
        <time>2014-10-07T08:26:24.663Z</time>
      </trkpt>
      <trkpt lat="48.69757" lon="2.53129">
        <ele>87</ele>
        <time>2014-10-07T08:26:34.082Z</time>
      </trkpt>
      <trkpt lat="48.69756" lon="2.5313">
        <ele>87</ele>
        <time>2014-10-07T08:26:34.635Z</time>
      </trkpt>
      <trkpt lat="48.69748" lon="2.5313">
        <ele>87</ele>
        <time>2014-10-07T08:26:40.596Z</time>
      </trkpt>
      <trkpt lat="48.69746" lon="2.53129">
        <ele>91</ele>
        <time>2014-10-07T08:26:41.646Z</time>
      </trkpt>
      <trkpt lat="48.69739" lon="2.53124">
        <ele>94</ele>
        <time>2014-10-07T08:26:45.639Z</time>
      </trkpt>
      <trkpt lat="48.69738" lon="2.53124">
        <ele>96</ele>
        <time>2014-10-07T08:26:46.645Z</time>
      </trkpt>
      <trkpt lat="48.69729" lon="2.53121">
        <ele>98</ele>
        <time>2014-10-07T08:26:57.637Z</time>
      </trkpt>
      <trkpt lat="48.69728" lon="2.5312">
        <ele>96</ele>
        <time>2014-10-07T08:26:58.627Z</time>
      </trkpt>
      <trkpt lat="48.69719" lon="2.53117">
        <ele>97</ele>
        <time>2014-10-07T08:27:05.635Z</time>
      </trkpt>
      <trkpt lat="48.69718" lon="2.53117">
        <ele>101</ele>
        <time>2014-10-07T08:27:06.655Z</time>
      </trkpt>
      <trkpt lat="48.69711" lon="2.53124">
        <ele>99</ele>
        <time>2014-10-07T08:27:17.638Z</time>
      </trkpt>
      <trkpt lat="48.6971" lon="2.53126">
        <ele>97</ele>
        <time>2014-10-07T08:27:18.641Z</time>
      </trkpt>
      <trkpt lat="48.69703" lon="2.53134">
        <ele>98</ele>
        <time>2014-10-07T08:27:24.639Z</time>
      </trkpt>
      <trkpt lat="48.69703" lon="2.53134">
        <ele>97</ele>
        <time>2014-10-07T08:27:25.641Z</time>
      </trkpt>
      <trkpt lat="48.69701" lon="2.53121">
        <ele>102</ele>
        <time>2014-10-07T08:29:04.025Z</time>
      </trkpt>
      <trkpt lat="48.697" lon="2.5312">
        <ele>102</ele>
        <time>2014-10-07T08:29:04.605Z</time>
      </trkpt>
      <trkpt lat="48.69694" lon="2.53112">
        <ele>103</ele>
        <time>2014-10-07T08:29:12.614Z</time>
      </trkpt>
      <trkpt lat="48.69693" lon="2.53111">
        <ele>103</ele>
        <time>2014-10-07T08:29:13.638Z</time>
      </trkpt>
      <trkpt lat="48.69687" lon="2.531">
        <ele>107</ele>
        <time>2014-10-07T08:29:24.680Z</time>
      </trkpt>
      <trkpt lat="48.69687" lon="2.531">
        <ele>107</ele>
        <time>2014-10-07T08:29:25.596Z</time>
      </trkpt>
      <trkpt lat="48.69679" lon="2.53095">
        <ele>102</ele>
        <time>2014-10-07T08:29:35.631Z</time>
      </trkpt>
      <trkpt lat="48.69678" lon="2.53094">
        <ele>102</ele>
        <time>2014-10-07T08:29:36.599Z</time>
      </trkpt>
      <trkpt lat="48.6967" lon="2.53089">
        <ele>106</ele>
        <time>2014-10-07T08:29:44.637Z</time>
      </trkpt>
      <trkpt lat="48.69669" lon="2.53089">
        <ele>106</ele>
        <time>2014-10-07T08:29:45.599Z</time>
      </trkpt>
      <trkpt lat="48.69661" lon="2.53086">
        <ele>105</ele>
        <time>2014-10-07T08:29:52.630Z</time>
      </trkpt>
      <trkpt lat="48.6966" lon="2.53086">
        <ele>105</ele>
        <time>2014-10-07T08:29:53.596Z</time>
      </trkpt>
      <trkpt lat="48.69653" lon="2.53091">
        <ele>100</ele>
        <time>2014-10-07T08:30:01.645Z</time>
      </trkpt>
      <trkpt lat="48.69651" lon="2.53093">
        <ele>98</ele>
        <time>2014-10-07T08:30:02.643Z</time>
      </trkpt>
      <trkpt lat="48.69649" lon="2.53106">
        <ele>97</ele>
        <time>2014-10-07T08:30:09.599Z</time>
      </trkpt>
      <trkpt lat="48.69649" lon="2.53107">
        <ele>94</ele>
        <time>2014-10-07T08:30:10.646Z</time>
      </trkpt>
      <trkpt lat="48.69646" lon="2.53119">
        <ele>94</ele>
        <time>2014-10-07T08:30:19.600Z</time>
      </trkpt>
      <trkpt lat="48.69646" lon="2.53121">
        <ele>94</ele>
        <time>2014-10-07T08:30:20.639Z</time>
      </trkpt>
      <trkpt lat="48.69644" lon="2.53134">
        <ele>88</ele>
        <time>2014-10-07T08:30:31.350Z</time>
      </trkpt>
      <trkpt lat="48.69644" lon="2.53135">
        <ele>89</ele>
        <time>2014-10-07T08:30:31.599Z</time>
      </trkpt>
      <trkpt lat="48.69647" lon="2.53147">
        <ele>90</ele>
        <time>2014-10-07T08:30:47.626Z</time>
      </trkpt>
      <trkpt lat="48.69647" lon="2.53149">
        <ele>89</ele>
        <time>2014-10-07T08:30:48.632Z</time>
      </trkpt>
      <trkpt lat="48.69645" lon="2.53161">
        <ele>93</ele>
        <time>2014-10-07T08:31:15.595Z</time>
      </trkpt>
      <trkpt lat="48.69644" lon="2.53162">
        <ele>92</ele>
        <time>2014-10-07T08:31:16.643Z</time>
      </trkpt>
      <trkpt lat="48.69642" lon="2.5315">
        <ele>99</ele>
        <time>2014-10-07T08:32:55.686Z</time>
      </trkpt>
      <trkpt lat="48.69641" lon="2.53149">
        <ele>99</ele>
        <time>2014-10-07T08:32:56.598Z</time>
      </trkpt>
      <trkpt lat="48.69641" lon="2.53136">
        <ele>100</ele>
        <time>2014-10-07T08:33:09.642Z</time>
      </trkpt>
      <trkpt lat="48.69642" lon="2.53135">
        <ele>101</ele>
        <time>2014-10-07T08:33:10.634Z</time>
      </trkpt>
      <trkpt lat="48.6964" lon="2.53122">
        <ele>102</ele>
        <time>2014-10-07T08:34:26.628Z</time>
      </trkpt>
      <trkpt lat="48.6964" lon="2.53122">
        <ele>102</ele>
        <time>2014-10-07T08:34:27.632Z</time>
      </trkpt>
      <trkpt lat="48.69644" lon="2.53133">
        <ele>94</ele>
        <time>2014-10-07T08:36:02.640Z</time>
      </trkpt>
      <trkpt lat="48.69643" lon="2.53135">
        <ele>93</ele>
        <time>2014-10-07T08:36:03.644Z</time>
      </trkpt>
      <trkpt lat="48.69639" lon="2.53122">
        <ele>98</ele>
        <time>2014-10-07T08:38:19.634Z</time>
      </trkpt>
      <trkpt lat="48.69639" lon="2.53122">
        <ele>98</ele>
        <time>2014-10-07T08:38:20.642Z</time>
      </trkpt>
      <trkpt lat="48.69646" lon="2.53129">
        <ele>95</ele>
        <time>2014-10-07T08:38:55.633Z</time>
      </trkpt>
      <trkpt lat="48.69647" lon="2.53129">
        <ele>95</ele>
        <time>2014-10-07T08:38:56.598Z</time>
      </trkpt>
      <trkpt lat="48.69638" lon="2.53128">
        <ele>94</ele>
        <time>2014-10-07T08:49:18.602Z</time>
      </trkpt>
      <trkpt lat="48.69637" lon="2.53128">
        <ele>92</ele>
        <time>2014-10-07T08:49:19.681Z</time>
      </trkpt>
      <trkpt lat="48.69629" lon="2.53132">
        <ele>93</ele>
        <time>2014-10-07T08:49:26.600Z</time>
      </trkpt>
      <trkpt lat="48.69628" lon="2.53133">
        <ele>92</ele>
        <time>2014-10-07T08:49:27.636Z</time>
      </trkpt>
      <trkpt lat="48.6962" lon="2.53138">
        <ele>87</ele>
        <time>2014-10-07T08:49:33.443Z</time>
      </trkpt>
      <trkpt lat="48.69619" lon="2.53138">
        <ele>87</ele>
        <time>2014-10-07T08:49:33.602Z</time>
      </trkpt>
      <trkpt lat="48.69612" lon="2.53145">
        <ele>82</ele>
        <time>2014-10-07T08:49:39.595Z</time>
      </trkpt>
      <trkpt lat="48.69611" lon="2.53146">
        <ele>83</ele>
        <time>2014-10-07T08:49:40.647Z</time>
      </trkpt>
      <trkpt lat="48.69604" lon="2.53153">
        <ele>79</ele>
        <time>2014-10-07T08:49:46.635Z</time>
      </trkpt>
      <trkpt lat="48.69603" lon="2.53155">
        <ele>79</ele>
        <time>2014-10-07T08:49:47.631Z</time>
      </trkpt>
      <trkpt lat="48.69595" lon="2.53159">
        <ele>78</ele>
        <time>2014-10-07T08:49:54.647Z</time>
      </trkpt>
      <trkpt lat="48.69595" lon="2.53159">
        <ele>79</ele>
        <time>2014-10-07T08:49:55.648Z</time>
      </trkpt>
      <trkpt lat="48.69587" lon="2.53162">
        <ele>85</ele>
        <time>2014-10-07T08:50:06.646Z</time>
      </trkpt>
      <trkpt lat="48.69585" lon="2.53162">
        <ele>86</ele>
        <time>2014-10-07T08:50:07.646Z</time>
      </trkpt>
      <trkpt lat="48.69576" lon="2.53163">
        <ele>84</ele>
        <time>2014-10-07T08:50:12.644Z</time>
      </trkpt>
      <trkpt lat="48.69574" lon="2.53163">
        <ele>85</ele>
        <time>2014-10-07T08:50:13.594Z</time>
      </trkpt>
      <trkpt lat="48.69567" lon="2.53165">
        <ele>90</ele>
        <time>2014-10-07T08:50:21.408Z</time>
      </trkpt>
      <trkpt lat="48.69565" lon="2.53166">
        <ele>90</ele>
        <time>2014-10-07T08:50:21.596Z</time>
      </trkpt>
      <trkpt lat="48.69557" lon="2.53163">
        <ele>87</ele>
        <time>2014-10-07T08:50:27.634Z</time>
      </trkpt>
      <trkpt lat="48.69555" lon="2.53163">
        <ele>86</ele>
        <time>2014-10-07T08:50:28.633Z</time>
      </trkpt>
      <trkpt lat="48.69548" lon="2.53156">
        <ele>89</ele>
        <time>2014-10-07T08:50:33.599Z</time>
      </trkpt>
      <trkpt lat="48.69547" lon="2.53154">
        <ele>88</ele>
        <time>2014-10-07T08:50:34.635Z</time>
      </trkpt>
      <trkpt lat="48.69543" lon="2.53145">
        <ele>93</ele>
        <time>2014-10-07T08:50:38.635Z</time>
      </trkpt>
      <trkpt lat="48.69541" lon="2.53144">
        <ele>93</ele>
        <time>2014-10-07T08:50:39.668Z</time>
      </trkpt>
      <trkpt lat="48.69535" lon="2.53136">
        <ele>99</ele>
        <time>2014-10-07T08:50:44.646Z</time>
      </trkpt>
      <trkpt lat="48.69534" lon="2.53133">
        <ele>102</ele>
        <time>2014-10-07T08:50:45.634Z</time>
      </trkpt>
      <trkpt lat="48.69529" lon="2.53124">
        <ele>106</ele>
        <time>2014-10-07T08:50:53.629Z</time>
      </trkpt>
      <trkpt lat="48.69528" lon="2.53124">
        <ele>109</ele>
        <time>2014-10-07T08:50:54.646Z</time>
      </trkpt>
      <trkpt lat="48.69525" lon="2.53112">
        <ele>110</ele>
        <time>2014-10-07T08:51:01.416Z</time>
      </trkpt>
      <trkpt lat="48.69524" lon="2.53111">
        <ele>113</ele>
        <time>2014-10-07T08:51:01.603Z</time>
      </trkpt>
      <trkpt lat="48.69516" lon="2.53107">
        <ele>108</ele>
        <time>2014-10-07T08:51:09.635Z</time>
      </trkpt>
      <trkpt lat="48.69515" lon="2.53105">
        <ele>107</ele>
        <time>2014-10-07T08:51:10.642Z</time>
      </trkpt>
      <trkpt lat="48.69511" lon="2.53094">
        <ele>109</ele>
        <time>2014-10-07T08:51:18.602Z</time>
      </trkpt>
      <trkpt lat="48.6951" lon="2.53093">
        <ele>109</ele>
        <time>2014-10-07T08:51:19.637Z</time>
      </trkpt>
      <trkpt lat="48.69504" lon="2.53085">
        <ele>107</ele>
        <time>2014-10-07T08:51:26.417Z</time>
      </trkpt>
      <trkpt lat="48.69503" lon="2.53083">
        <ele>107</ele>
        <time>2014-10-07T08:51:26.597Z</time>
      </trkpt>
      <trkpt lat="48.69495" lon="2.53077">
        <ele>109</ele>
        <time>2014-10-07T08:51:31.594Z</time>
      </trkpt>
      <trkpt lat="48.69494" lon="2.53076">
        <ele>106</ele>
        <time>2014-10-07T08:51:32.638Z</time>
      </trkpt>
      <trkpt lat="48.69488" lon="2.53067">
        <ele>105</ele>
        <time>2014-10-07T08:51:39.645Z</time>
      </trkpt>
      <trkpt lat="48.69487" lon="2.53066">
        <ele>105</ele>
        <time>2014-10-07T08:51:40.682Z</time>
      </trkpt>
      <trkpt lat="48.69489" lon="2.53053">
        <ele>107</ele>
        <time>2014-10-07T08:51:46.594Z</time>
      </trkpt>
      <trkpt lat="48.69489" lon="2.53051">
        <ele>106</ele>
        <time>2014-10-07T08:51:47.594Z</time>
      </trkpt>
      <trkpt lat="48.69488" lon="2.53038">
        <ele>109</ele>
        <time>2014-10-07T08:51:54.640Z</time>
      </trkpt>
      <trkpt lat="48.69487" lon="2.53037">
        <ele>108</ele>
        <time>2014-10-07T08:51:55.636Z</time>
      </trkpt>
      <trkpt lat="48.69482" lon="2.53026">
        <ele>107</ele>
        <time>2014-10-07T08:52:03.639Z</time>
      </trkpt>
      <trkpt lat="48.69482" lon="2.53025">
        <ele>107</ele>
        <time>2014-10-07T08:52:04.636Z</time>
      </trkpt>
      <trkpt lat="48.69477" lon="2.53014">
        <ele>106</ele>
        <time>2014-10-07T08:52:14.091Z</time>
      </trkpt>
      <trkpt lat="48.69477" lon="2.53012">
        <ele>109</ele>
        <time>2014-10-07T08:52:14.643Z</time>
      </trkpt>
      <trkpt lat="48.69477" lon="2.52998">
        <ele>107</ele>
        <time>2014-10-07T08:52:21.645Z</time>
      </trkpt>
      <trkpt lat="48.69477" lon="2.52996">
        <ele>107</ele>
        <time>2014-10-07T08:52:22.646Z</time>
      </trkpt>
      <trkpt lat="48.69472" lon="2.52985">
        <ele>109</ele>
        <time>2014-10-07T08:52:30.664Z</time>
      </trkpt>
      <trkpt lat="48.6947" lon="2.52982">
        <ele>109</ele>
        <time>2014-10-07T08:52:31.635Z</time>
      </trkpt>
      <trkpt lat="48.69465" lon="2.52972">
        <ele>105</ele>
        <time>2014-10-07T08:52:39.645Z</time>
      </trkpt>
      <trkpt lat="48.69465" lon="2.52971">
        <ele>104</ele>
        <time>2014-10-07T08:52:40.719Z</time>
      </trkpt>
      <trkpt lat="48.6946" lon="2.5296">
        <ele>100</ele>
        <time>2014-10-07T08:52:50.644Z</time>
      </trkpt>
      <trkpt lat="48.6946" lon="2.52959">
        <ele>100</ele>
        <time>2014-10-07T08:52:51.638Z</time>
      </trkpt>
      <trkpt lat="48.69455" lon="2.52948">
        <ele>102</ele>
        <time>2014-10-07T08:52:59.629Z</time>
      </trkpt>
      <trkpt lat="48.69455" lon="2.52946">
        <ele>98</ele>
        <time>2014-10-07T08:53:00.641Z</time>
      </trkpt>
      <trkpt lat="48.69455" lon="2.52934">
        <ele>104</ele>
        <time>2014-10-07T08:53:06.637Z</time>
      </trkpt>
      <trkpt lat="48.69455" lon="2.52931">
        <ele>106</ele>
        <time>2014-10-07T08:53:07.642Z</time>
      </trkpt>
      <trkpt lat="48.69452" lon="2.5292">
        <ele>104</ele>
        <time>2014-10-07T08:53:12.603Z</time>
      </trkpt>
      <trkpt lat="48.69451" lon="2.52918">
        <ele>105</ele>
        <time>2014-10-07T08:53:13.645Z</time>
      </trkpt>
      <trkpt lat="48.69446" lon="2.52909">
        <ele>103</ele>
        <time>2014-10-07T08:53:19.625Z</time>
      </trkpt>
      <trkpt lat="48.69446" lon="2.52907">
        <ele>104</ele>
        <time>2014-10-07T08:53:20.641Z</time>
      </trkpt>
      <trkpt lat="48.69441" lon="2.52896">
        <ele>104</ele>
        <time>2014-10-07T08:53:28.780Z</time>
      </trkpt>
      <trkpt lat="48.6944" lon="2.52893">
        <ele>107</ele>
        <time>2014-10-07T08:53:29.685Z</time>
      </trkpt>
      <trkpt lat="48.69437" lon="2.52882">
        <ele>104</ele>
        <time>2014-10-07T08:53:36.653Z</time>
      </trkpt>
      <trkpt lat="48.69436" lon="2.5288">
        <ele>104</ele>
        <time>2014-10-07T08:53:37.592Z</time>
      </trkpt>
      <trkpt lat="48.6943" lon="2.5287">
        <ele>103</ele>
        <time>2014-10-07T08:53:44.647Z</time>
      </trkpt>
      <trkpt lat="48.69429" lon="2.52869">
        <ele>103</ele>
        <time>2014-10-07T08:53:45.601Z</time>
      </trkpt>
      <trkpt lat="48.69425" lon="2.52857">
        <ele>98</ele>
        <time>2014-10-07T08:53:55.644Z</time>
      </trkpt>
      <trkpt lat="48.69425" lon="2.52855">
        <ele>99</ele>
        <time>2014-10-07T08:53:56.635Z</time>
      </trkpt>
      <trkpt lat="48.6942" lon="2.52845">
        <ele>95</ele>
        <time>2014-10-07T08:54:05.592Z</time>
      </trkpt>
      <trkpt lat="48.69419" lon="2.52844">
        <ele>95</ele>
        <time>2014-10-07T08:54:06.639Z</time>
      </trkpt>
      <trkpt lat="48.69411" lon="2.5284">
        <ele>93</ele>
        <time>2014-10-07T08:54:12.632Z</time>
      </trkpt>
      <trkpt lat="48.6941" lon="2.52838">
        <ele>94</ele>
        <time>2014-10-07T08:54:13.639Z</time>
      </trkpt>
      <trkpt lat="48.69403" lon="2.5283">
        <ele>95</ele>
        <time>2014-10-07T08:54:21.640Z</time>
      </trkpt>
      <trkpt lat="48.69402" lon="2.52829">
        <ele>95</ele>
        <time>2014-10-07T08:54:22.622Z</time>
      </trkpt>
      <trkpt lat="48.69398" lon="2.52819">
        <ele>98</ele>
        <time>2014-10-07T08:54:29.635Z</time>
      </trkpt>
      <trkpt lat="48.69397" lon="2.52817">
        <ele>98</ele>
        <time>2014-10-07T08:54:30.641Z</time>
      </trkpt>
      <trkpt lat="48.69393" lon="2.52807">
        <ele>97</ele>
        <time>2014-10-07T08:54:37.637Z</time>
      </trkpt>
      <trkpt lat="48.69392" lon="2.52806">
        <ele>96</ele>
        <time>2014-10-07T08:54:38.637Z</time>
      </trkpt>
      <trkpt lat="48.69386" lon="2.52797">
        <ele>96</ele>
        <time>2014-10-07T08:54:46.645Z</time>
      </trkpt>
      <trkpt lat="48.69384" lon="2.52796">
        <ele>96</ele>
        <time>2014-10-07T08:54:47.653Z</time>
      </trkpt>
      <trkpt lat="48.69377" lon="2.52795">
        <ele>93</ele>
        <time>2014-10-07T08:54:52.645Z</time>
      </trkpt>
      <trkpt lat="48.69375" lon="2.52794">
        <ele>92</ele>
        <time>2014-10-07T08:54:53.680Z</time>
      </trkpt>
      <trkpt lat="48.69373" lon="2.52782">
        <ele>93</ele>
        <time>2014-10-07T08:55:01.594Z</time>
      </trkpt>
      <trkpt lat="48.69372" lon="2.5278">
        <ele>93</ele>
        <time>2014-10-07T08:55:02.593Z</time>
      </trkpt>
      <trkpt lat="48.69372" lon="2.52769">
        <ele>100</ele>
        <time>2014-10-07T08:55:06.596Z</time>
      </trkpt>
      <trkpt lat="48.69373" lon="2.52766">
        <ele>100</ele>
        <time>2014-10-07T08:55:07.628Z</time>
      </trkpt>
      <trkpt lat="48.69367" lon="2.52757">
        <ele>104</ele>
        <time>2014-10-07T08:55:13.639Z</time>
      </trkpt>
      <trkpt lat="48.69367" lon="2.52755">
        <ele>106</ele>
        <time>2014-10-07T08:55:14.689Z</time>
      </trkpt>
      <trkpt lat="48.69364" lon="2.52742">
        <ele>106</ele>
        <time>2014-10-07T08:55:22.635Z</time>
      </trkpt>
      <trkpt lat="48.69364" lon="2.5274">
        <ele>106</ele>
        <time>2014-10-07T08:55:23.638Z</time>
      </trkpt>
      <trkpt lat="48.69364" lon="2.52727">
        <ele>108</ele>
        <time>2014-10-07T08:55:29.665Z</time>
      </trkpt>
      <trkpt lat="48.69364" lon="2.52725">
        <ele>107</ele>
        <time>2014-10-07T08:55:30.600Z</time>
      </trkpt>
      <trkpt lat="48.69362" lon="2.52714">
        <ele>109</ele>
        <time>2014-10-07T08:55:37.383Z</time>
      </trkpt>
      <trkpt lat="48.69362" lon="2.52712">
        <ele>109</ele>
        <time>2014-10-07T08:55:37.631Z</time>
      </trkpt>
      <trkpt lat="48.69361" lon="2.52699">
        <ele>110</ele>
        <time>2014-10-07T08:55:44.646Z</time>
      </trkpt>
      <trkpt lat="48.69361" lon="2.52697">
        <ele>110</ele>
        <time>2014-10-07T08:55:45.673Z</time>
      </trkpt>
      <trkpt lat="48.69363" lon="2.52683">
        <ele>99</ele>
        <time>2014-10-07T08:55:55.647Z</time>
      </trkpt>
      <trkpt lat="48.69363" lon="2.52682">
        <ele>100</ele>
        <time>2014-10-07T08:55:56.639Z</time>
      </trkpt>
      <trkpt lat="48.69362" lon="2.5267">
        <ele>103</ele>
        <time>2014-10-07T08:56:03.599Z</time>
      </trkpt>
      <trkpt lat="48.69362" lon="2.52668">
        <ele>102</ele>
        <time>2014-10-07T08:56:04.647Z</time>
      </trkpt>
      <trkpt lat="48.69361" lon="2.52655">
        <ele>100</ele>
        <time>2014-10-07T08:56:12.712Z</time>
      </trkpt>
      <trkpt lat="48.69361" lon="2.52654">
        <ele>99</ele>
        <time>2014-10-07T08:56:13.647Z</time>
      </trkpt>
      <trkpt lat="48.69357" lon="2.52642">
        <ele>105</ele>
        <time>2014-10-07T08:56:33.028Z</time>
      </trkpt>
      <trkpt lat="48.69358" lon="2.5264">
        <ele>100</ele>
        <time>2014-10-07T08:56:33.646Z</time>
      </trkpt>
      <trkpt lat="48.6936" lon="2.52627">
        <ele>103</ele>
        <time>2014-10-07T08:56:41.647Z</time>
      </trkpt>
      <trkpt lat="48.6936" lon="2.52625">
        <ele>105</ele>
        <time>2014-10-07T08:56:42.677Z</time>
      </trkpt>
      <trkpt lat="48.69356" lon="2.52613">
        <ele>105</ele>
        <time>2014-10-07T08:56:48.646Z</time>
      </trkpt>
      <trkpt lat="48.69355" lon="2.52611">
        <ele>105</ele>
        <time>2014-10-07T08:56:49.646Z</time>
      </trkpt>
      <trkpt lat="48.69351" lon="2.52599">
        <ele>109</ele>
        <time>2014-10-07T08:56:56.591Z</time>
      </trkpt>
      <trkpt lat="48.69351" lon="2.52597">
        <ele>107</ele>
        <time>2014-10-07T08:56:57.593Z</time>
      </trkpt>
      <trkpt lat="48.69348" lon="2.52585">
        <ele>105</ele>
        <time>2014-10-07T08:57:06.750Z</time>
      </trkpt>
      <trkpt lat="48.69348" lon="2.52583">
        <ele>106</ele>
        <time>2014-10-07T08:57:07.594Z</time>
      </trkpt>
      <trkpt lat="48.69346" lon="2.5257">
        <ele>105</ele>
        <time>2014-10-07T08:57:21.594Z</time>
      </trkpt>
      <trkpt lat="48.69345" lon="2.52569">
        <ele>106</ele>
        <time>2014-10-07T08:57:22.646Z</time>
      </trkpt>
      <trkpt lat="48.69346" lon="2.52557">
        <ele>101</ele>
        <time>2014-10-07T08:57:31.377Z</time>
      </trkpt>
      <trkpt lat="48.69346" lon="2.52554">
        <ele>105</ele>
        <time>2014-10-07T08:57:31.607Z</time>
      </trkpt>
      <trkpt lat="48.69346" lon="2.52541">
        <ele>105</ele>
        <time>2014-10-07T08:57:36.334Z</time>
      </trkpt>
      <trkpt lat="48.69345" lon="2.52539">
        <ele>105</ele>
        <time>2014-10-07T08:57:36.594Z</time>
      </trkpt>
      <trkpt lat="48.69344" lon="2.52528">
        <ele>102</ele>
        <time>2014-10-07T08:57:44.642Z</time>
      </trkpt>
      <trkpt lat="48.69344" lon="2.52526">
        <ele>102</ele>
        <time>2014-10-07T08:57:45.604Z</time>
      </trkpt>
      <trkpt lat="48.69341" lon="2.52513">
        <ele>101</ele>
        <time>2014-10-07T08:57:51.607Z</time>
      </trkpt>
      <trkpt lat="48.69341" lon="2.52511">
        <ele>101</ele>
        <time>2014-10-07T08:57:52.651Z</time>
      </trkpt>
      <trkpt lat="48.69337" lon="2.52501">
        <ele>102</ele>
        <time>2014-10-07T08:57:59.649Z</time>
      </trkpt>
      <trkpt lat="48.69336" lon="2.52499">
        <ele>102</ele>
        <time>2014-10-07T08:58:00.598Z</time>
      </trkpt>
      <trkpt lat="48.69331" lon="2.5249">
        <ele>104</ele>
        <time>2014-10-07T08:58:08.644Z</time>
      </trkpt>
      <trkpt lat="48.6933" lon="2.52488">
        <ele>106</ele>
        <time>2014-10-07T08:58:09.646Z</time>
      </trkpt>
      <trkpt lat="48.69323" lon="2.52482">
        <ele>100</ele>
        <time>2014-10-07T08:58:20.593Z</time>
      </trkpt>
      <trkpt lat="48.69322" lon="2.5248">
        <ele>100</ele>
        <time>2014-10-07T08:58:21.610Z</time>
      </trkpt>
      <trkpt lat="48.69318" lon="2.52469">
        <ele>100</ele>
        <time>2014-10-07T08:58:29.610Z</time>
      </trkpt>
      <trkpt lat="48.69317" lon="2.52468">
        <ele>99</ele>
        <time>2014-10-07T08:58:30.601Z</time>
      </trkpt>
      <trkpt lat="48.69309" lon="2.52466">
        <ele>94</ele>
        <time>2014-10-07T08:58:36.648Z</time>
      </trkpt>
      <trkpt lat="48.69308" lon="2.52465">
        <ele>93</ele>
        <time>2014-10-07T08:58:37.649Z</time>
      </trkpt>
      <trkpt lat="48.69304" lon="2.52454">
        <ele>97</ele>
        <time>2014-10-07T08:58:45.647Z</time>
      </trkpt>
      <trkpt lat="48.69303" lon="2.52452">
        <ele>97</ele>
        <time>2014-10-07T08:58:46.600Z</time>
      </trkpt>
      <trkpt lat="48.69297" lon="2.52442">
        <ele>99</ele>
        <time>2014-10-07T08:58:53.969Z</time>
      </trkpt>
      <trkpt lat="48.69295" lon="2.52442">
        <ele>100</ele>
        <time>2014-10-07T08:58:54.637Z</time>
      </trkpt>
      <trkpt lat="48.69287" lon="2.52438">
        <ele>99</ele>
        <time>2014-10-07T08:59:00.600Z</time>
      </trkpt>
      <trkpt lat="48.69286" lon="2.52437">
        <ele>99</ele>
        <time>2014-10-07T08:59:01.624Z</time>
      </trkpt>
      <trkpt lat="48.69283" lon="2.52425">
        <ele>98</ele>
        <time>2014-10-07T08:59:09.018Z</time>
      </trkpt>
      <trkpt lat="48.69282" lon="2.52424">
        <ele>97</ele>
        <time>2014-10-07T08:59:09.599Z</time>
      </trkpt>
      <trkpt lat="48.69274" lon="2.52421">
        <ele>96</ele>
        <time>2014-10-07T08:59:15.658Z</time>
      </trkpt>
      <trkpt lat="48.69273" lon="2.5242">
        <ele>97</ele>
        <time>2014-10-07T08:59:16.665Z</time>
      </trkpt>
      <trkpt lat="48.69265" lon="2.52416">
        <ele>99</ele>
        <time>2014-10-07T08:59:23.638Z</time>
      </trkpt>
      <trkpt lat="48.69263" lon="2.52416">
        <ele>101</ele>
        <time>2014-10-07T08:59:24.595Z</time>
      </trkpt>
      <trkpt lat="48.69255" lon="2.52417">
        <ele>95</ele>
        <time>2014-10-07T08:59:31.385Z</time>
      </trkpt>
      <trkpt lat="48.69253" lon="2.52417">
        <ele>94</ele>
        <time>2014-10-07T08:59:31.604Z</time>
      </trkpt>
      <trkpt lat="48.69245" lon="2.52411">
        <ele>100</ele>
        <time>2014-10-07T08:59:39.607Z</time>
      </trkpt>
      <trkpt lat="48.69245" lon="2.5241">
        <ele>99</ele>
        <time>2014-10-07T08:59:40.644Z</time>
      </trkpt>
      <trkpt lat="48.69242" lon="2.52398">
        <ele>104</ele>
        <time>2014-10-07T08:59:48.597Z</time>
      </trkpt>
      <trkpt lat="48.69242" lon="2.52397">
        <ele>105</ele>
        <time>2014-10-07T08:59:49.637Z</time>
      </trkpt>
      <trkpt lat="48.69233" lon="2.52398">
        <ele>100</ele>
        <time>2014-10-07T08:59:56.395Z</time>
      </trkpt>
      <trkpt lat="48.69232" lon="2.52399">
        <ele>100</ele>
        <time>2014-10-07T08:59:56.599Z</time>
      </trkpt>
      <trkpt lat="48.69223" lon="2.52399">
        <ele>100</ele>
        <time>2014-10-07T09:00:01.592Z</time>
      </trkpt>
      <trkpt lat="48.69222" lon="2.52397">
        <ele>102</ele>
        <time>2014-10-07T09:00:02.645Z</time>
      </trkpt>
      <trkpt lat="48.69215" lon="2.5239">
        <ele>100</ele>
        <time>2014-10-07T09:00:09.646Z</time>
      </trkpt>
      <trkpt lat="48.69214" lon="2.52389">
        <ele>100</ele>
        <time>2014-10-07T09:00:10.624Z</time>
      </trkpt>
      <trkpt lat="48.69207" lon="2.52384">
        <ele>101</ele>
        <time>2014-10-07T09:00:17.602Z</time>
      </trkpt>
      <trkpt lat="48.69205" lon="2.52384">
        <ele>100</ele>
        <time>2014-10-07T09:00:18.646Z</time>
      </trkpt>
      <trkpt lat="48.69198" lon="2.52377">
        <ele>101</ele>
        <time>2014-10-07T09:00:26.351Z</time>
      </trkpt>
      <trkpt lat="48.69197" lon="2.52377">
        <ele>101</ele>
        <time>2014-10-07T09:00:26.594Z</time>
      </trkpt>
      <trkpt lat="48.69188" lon="2.52376">
        <ele>96</ele>
        <time>2014-10-07T09:00:33.645Z</time>
      </trkpt>
      <trkpt lat="48.69187" lon="2.52375">
        <ele>98</ele>
        <time>2014-10-07T09:00:34.646Z</time>
      </trkpt>
      <trkpt lat="48.6918" lon="2.52368">
        <ele>96</ele>
        <time>2014-10-07T09:00:42.608Z</time>
      </trkpt>
      <trkpt lat="48.69179" lon="2.52367">
        <ele>95</ele>
        <time>2014-10-07T09:00:43.636Z</time>
      </trkpt>
      <trkpt lat="48.69177" lon="2.52355">
        <ele>96</ele>
        <time>2014-10-07T09:00:49.648Z</time>
      </trkpt>
      <trkpt lat="48.69176" lon="2.52354">
        <ele>95</ele>
        <time>2014-10-07T09:00:50.642Z</time>
      </trkpt>
      <trkpt lat="48.69169" lon="2.52346">
        <ele>91</ele>
        <time>2014-10-07T09:00:59.668Z</time>
      </trkpt>
      <trkpt lat="48.69168" lon="2.52345">
        <ele>91</ele>
        <time>2014-10-07T09:01:00.597Z</time>
      </trkpt>
      <trkpt lat="48.69163" lon="2.52335">
        <ele>99</ele>
        <time>2014-10-07T09:01:07.637Z</time>
      </trkpt>
      <trkpt lat="48.69163" lon="2.52333">
        <ele>99</ele>
        <time>2014-10-07T09:01:08.641Z</time>
      </trkpt>
      <trkpt lat="48.6916" lon="2.52322">
        <ele>101</ele>
        <time>2014-10-07T09:01:13.647Z</time>
      </trkpt>
      <trkpt lat="48.6916" lon="2.52319">
        <ele>106</ele>
        <time>2014-10-07T09:01:14.649Z</time>
      </trkpt>
      <trkpt lat="48.69161" lon="2.52306">
        <ele>105</ele>
        <time>2014-10-07T09:01:20.646Z</time>
      </trkpt>
      <trkpt lat="48.69161" lon="2.52304">
        <ele>105</ele>
        <time>2014-10-07T09:01:21.594Z</time>
      </trkpt>
      <trkpt lat="48.69161" lon="2.52291">
        <ele>105</ele>
        <time>2014-10-07T09:01:29.615Z</time>
      </trkpt>
      <trkpt lat="48.69161" lon="2.52289">
        <ele>106</ele>
        <time>2014-10-07T09:01:30.642Z</time>
      </trkpt>
      <trkpt lat="48.69162" lon="2.52277">
        <ele>103</ele>
        <time>2014-10-07T09:01:40.649Z</time>
      </trkpt>
      <trkpt lat="48.69162" lon="2.52275">
        <ele>103</ele>
        <time>2014-10-07T09:01:41.597Z</time>
      </trkpt>
      <trkpt lat="48.6916" lon="2.52262">
        <ele>105</ele>
        <time>2014-10-07T09:01:47.615Z</time>
      </trkpt>
      <trkpt lat="48.69159" lon="2.5226">
        <ele>105</ele>
        <time>2014-10-07T09:01:48.639Z</time>
      </trkpt>
      <trkpt lat="48.69167" lon="2.52265">
        <ele>100</ele>
        <time>2014-10-07T09:02:33.601Z</time>
      </trkpt>
      <trkpt lat="48.69168" lon="2.52266">
        <ele>98</ele>
        <time>2014-10-07T09:02:34.641Z</time>
      </trkpt>
      <trkpt lat="48.69162" lon="2.52256">
        <ele>88</ele>
        <time>2014-10-07T09:03:14.646Z</time>
      </trkpt>
      <trkpt lat="48.69161" lon="2.52254">
        <ele>85</ele>
        <time>2014-10-07T09:03:15.642Z</time>
      </trkpt>
      <trkpt lat="48.69157" lon="2.52244">
        <ele>87</ele>
        <time>2014-10-07T09:03:20.647Z</time>
      </trkpt>
      <trkpt lat="48.69156" lon="2.52242">
        <ele>87</ele>
        <time>2014-10-07T09:03:21.647Z</time>
      </trkpt>
      <trkpt lat="48.69152" lon="2.52231">
        <ele>90</ele>
        <time>2014-10-07T09:03:25.645Z</time>
      </trkpt>
      <trkpt lat="48.69152" lon="2.52229">
        <ele>91</ele>
        <time>2014-10-07T09:03:26.600Z</time>
      </trkpt>
      <trkpt lat="48.69148" lon="2.52217">
        <ele>92</ele>
        <time>2014-10-07T09:03:32.626Z</time>
      </trkpt>
      <trkpt lat="48.69147" lon="2.52215">
        <ele>90</ele>
        <time>2014-10-07T09:03:32.670Z</time>
      </trkpt>
      <trkpt lat="48.69145" lon="2.52202">
        <ele>94</ele>
        <time>2014-10-07T09:03:38.433Z</time>
      </trkpt>
      <trkpt lat="48.69145" lon="2.522">
        <ele>95</ele>
        <time>2014-10-07T09:03:38.600Z</time>
      </trkpt>
      <trkpt lat="48.69142" lon="2.52188">
        <ele>91</ele>
        <time>2014-10-07T09:03:44.645Z</time>
      </trkpt>
      <trkpt lat="48.69141" lon="2.52187">
        <ele>89</ele>
        <time>2014-10-07T09:03:45.636Z</time>
      </trkpt>
      <trkpt lat="48.6914" lon="2.52174">
        <ele>88</ele>
        <time>2014-10-07T09:03:52.625Z</time>
      </trkpt>
      <trkpt lat="48.6914" lon="2.52172">
        <ele>88</ele>
        <time>2014-10-07T09:03:53.646Z</time>
      </trkpt>
      <trkpt lat="48.69132" lon="2.52164">
        <ele>92</ele>
        <time>2014-10-07T09:04:04.645Z</time>
      </trkpt>
      <trkpt lat="48.69132" lon="2.52164">
        <ele>92</ele>
        <time>2014-10-07T09:04:05.611Z</time>
      </trkpt>
      <trkpt lat="48.69128" lon="2.52153">
        <ele>93</ele>
        <time>2014-10-07T09:04:14.664Z</time>
      </trkpt>
      <trkpt lat="48.69127" lon="2.52151">
        <ele>93</ele>
        <time>2014-10-07T09:04:15.602Z</time>
      </trkpt>
      <trkpt lat="48.69123" lon="2.52139">
        <ele>95</ele>
        <time>2014-10-07T09:04:21.674Z</time>
      </trkpt>
      <trkpt lat="48.69123" lon="2.52138">
        <ele>93</ele>
        <time>2014-10-07T09:04:22.597Z</time>
      </trkpt>
      <trkpt lat="48.69116" lon="2.52128">
        <ele>94</ele>
        <time>2014-10-07T09:04:38.639Z</time>
      </trkpt>
      <trkpt lat="48.69115" lon="2.52129">
        <ele>93</ele>
        <time>2014-10-07T09:04:39.637Z</time>
      </trkpt>
      <trkpt lat="48.69108" lon="2.52132">
        <ele>94</ele>
        <time>2014-10-07T09:04:46.642Z</time>
      </trkpt>
      <trkpt lat="48.69106" lon="2.52133">
        <ele>93</ele>
        <time>2014-10-07T09:04:47.644Z</time>
      </trkpt>
      <trkpt lat="48.69099" lon="2.52135">
        <ele>92</ele>
        <time>2014-10-07T09:04:50.603Z</time>
      </trkpt>
      <trkpt lat="48.69097" lon="2.52135">
        <ele>91</ele>
        <time>2014-10-07T09:04:51.648Z</time>
      </trkpt>
      <trkpt lat="48.69088" lon="2.52136">
        <ele>89</ele>
        <time>2014-10-07T09:04:55.652Z</time>
      </trkpt>
      <trkpt lat="48.69086" lon="2.52138">
        <ele>88</ele>
        <time>2014-10-07T09:04:56.646Z</time>
      </trkpt>
      <trkpt lat="48.69082" lon="2.52126">
        <ele>90</ele>
        <time>2014-10-07T09:05:02.634Z</time>
      </trkpt>
      <trkpt lat="48.69081" lon="2.52125">
        <ele>90</ele>
        <time>2014-10-07T09:05:03.643Z</time>
      </trkpt>
      <trkpt lat="48.69073" lon="2.52125">
        <ele>90</ele>
        <time>2014-10-07T09:05:09.789Z</time>
      </trkpt>
      <trkpt lat="48.69072" lon="2.52125">
        <ele>89</ele>
        <time>2014-10-07T09:05:10.646Z</time>
      </trkpt>
      <trkpt lat="48.69065" lon="2.52116">
        <ele>90</ele>
        <time>2014-10-07T09:05:17.743Z</time>
      </trkpt>
      <trkpt lat="48.69064" lon="2.52116">
        <ele>89</ele>
        <time>2014-10-07T09:05:18.600Z</time>
      </trkpt>
      <trkpt lat="48.69056" lon="2.52114">
        <ele>88</ele>
        <time>2014-10-07T09:05:22.605Z</time>
      </trkpt>
      <trkpt lat="48.69054" lon="2.52114">
        <ele>87</ele>
        <time>2014-10-07T09:05:23.639Z</time>
      </trkpt>
      <trkpt lat="48.69048" lon="2.52105">
        <ele>90</ele>
        <time>2014-10-07T09:05:29.639Z</time>
      </trkpt>
      <trkpt lat="48.69047" lon="2.52104">
        <ele>89</ele>
        <time>2014-10-07T09:05:30.639Z</time>
      </trkpt>
      <trkpt lat="48.69041" lon="2.52097">
        <ele>90</ele>
        <time>2014-10-07T09:05:37.652Z</time>
      </trkpt>
      <trkpt lat="48.6904" lon="2.52096">
        <ele>90</ele>
        <time>2014-10-07T09:05:38.645Z</time>
      </trkpt>
      <trkpt lat="48.69032" lon="2.5209">
        <ele>90</ele>
        <time>2014-10-07T09:05:46.573Z</time>
      </trkpt>
      <trkpt lat="48.69031" lon="2.52088">
        <ele>91</ele>
        <time>2014-10-07T09:05:46.616Z</time>
      </trkpt>
      <trkpt lat="48.69024" lon="2.52083">
        <ele>91</ele>
        <time>2014-10-07T09:05:52.635Z</time>
      </trkpt>
      <trkpt lat="48.69023" lon="2.52083">
        <ele>92</ele>
        <time>2014-10-07T09:05:53.655Z</time>
      </trkpt>
      <trkpt lat="48.69015" lon="2.52083">
        <ele>95</ele>
        <time>2014-10-07T09:05:58.996Z</time>
      </trkpt>
      <trkpt lat="48.69013" lon="2.52083">
        <ele>97</ele>
        <time>2014-10-07T09:05:59.641Z</time>
      </trkpt>
      <trkpt lat="48.69005" lon="2.5208">
        <ele>96</ele>
        <time>2014-10-07T09:06:06.649Z</time>
      </trkpt>
      <trkpt lat="48.69004" lon="2.5208">
        <ele>95</ele>
        <time>2014-10-07T09:06:07.647Z</time>
      </trkpt>
      <trkpt lat="48.68996" lon="2.5208">
        <ele>94</ele>
        <time>2014-10-07T09:06:13.647Z</time>
      </trkpt>
      <trkpt lat="48.68994" lon="2.52079">
        <ele>93</ele>
        <time>2014-10-07T09:06:14.644Z</time>
      </trkpt>
      <trkpt lat="48.68987" lon="2.52073">
        <ele>92</ele>
        <time>2014-10-07T09:06:21.597Z</time>
      </trkpt>
      <trkpt lat="48.68986" lon="2.52073">
        <ele>92</ele>
        <time>2014-10-07T09:06:22.596Z</time>
      </trkpt>
      <trkpt lat="48.68977" lon="2.5207">
        <ele>91</ele>
        <time>2014-10-07T09:06:29.639Z</time>
      </trkpt>
      <trkpt lat="48.68977" lon="2.52069">
        <ele>92</ele>
        <time>2014-10-07T09:06:30.636Z</time>
      </trkpt>
      <trkpt lat="48.68968" lon="2.52065">
        <ele>92</ele>
        <time>2014-10-07T09:06:43.645Z</time>
      </trkpt>
      <trkpt lat="48.68968" lon="2.52066">
        <ele>92</ele>
        <time>2014-10-07T09:06:44.649Z</time>
      </trkpt>
      <trkpt lat="48.6896" lon="2.52072">
        <ele>93</ele>
        <time>2014-10-07T09:06:52.642Z</time>
      </trkpt>
      <trkpt lat="48.68959" lon="2.52073">
        <ele>93</ele>
        <time>2014-10-07T09:06:53.638Z</time>
      </trkpt>
      <trkpt lat="48.68951" lon="2.52078">
        <ele>91</ele>
        <time>2014-10-07T09:07:00.617Z</time>
      </trkpt>
      <trkpt lat="48.6895" lon="2.52078">
        <ele>92</ele>
        <time>2014-10-07T09:07:01.643Z</time>
      </trkpt>
      <trkpt lat="48.68942" lon="2.52083">
        <ele>91</ele>
        <time>2014-10-07T09:07:08.952Z</time>
      </trkpt>
      <trkpt lat="48.68941" lon="2.52085">
        <ele>91</ele>
        <time>2014-10-07T09:07:09.644Z</time>
      </trkpt>
      <trkpt lat="48.68941" lon="2.52085">
        <ele>91</ele>
        <time>2014-10-07T09:07:15.049Z</time>
      </trkpt>
      <trkpt lat="48.68932" lon="2.52092">
        <ele>90</ele>
        <time>2014-10-07T09:07:16.638Z</time>
      </trkpt>
      <trkpt lat="48.68926" lon="2.521">
        <ele>90</ele>
        <time>2014-10-07T09:07:22.639Z</time>
      </trkpt>
      <trkpt lat="48.68925" lon="2.52102">
        <ele>90</ele>
        <time>2014-10-07T09:07:23.642Z</time>
      </trkpt>
      <trkpt lat="48.68919" lon="2.52112">
        <ele>91</ele>
        <time>2014-10-07T09:07:30.643Z</time>
      </trkpt>
      <trkpt lat="48.68918" lon="2.52114">
        <ele>91</ele>
        <time>2014-10-07T09:07:31.662Z</time>
      </trkpt>
      <trkpt lat="48.68913" lon="2.52123">
        <ele>90</ele>
        <time>2014-10-07T09:07:38.645Z</time>
      </trkpt>
      <trkpt lat="48.68912" lon="2.52125">
        <ele>91</ele>
        <time>2014-10-07T09:07:39.646Z</time>
      </trkpt>
      <trkpt lat="48.68906" lon="2.52134">
        <ele>91</ele>
        <time>2014-10-07T09:07:46.651Z</time>
      </trkpt>
      <trkpt lat="48.68905" lon="2.52135">
        <ele>90</ele>
        <time>2014-10-07T09:07:47.643Z</time>
      </trkpt>
      <trkpt lat="48.689" lon="2.52146">
        <ele>90</ele>
        <time>2014-10-07T09:07:54.648Z</time>
      </trkpt>
      <trkpt lat="48.689" lon="2.52147">
        <ele>90</ele>
        <time>2014-10-07T09:07:55.647Z</time>
      </trkpt>
      <trkpt lat="48.68894" lon="2.52156">
        <ele>88</ele>
        <time>2014-10-07T09:08:01.645Z</time>
      </trkpt>
      <trkpt lat="48.68894" lon="2.52158">
        <ele>88</ele>
        <time>2014-10-07T09:08:02.649Z</time>
      </trkpt>
      <trkpt lat="48.68888" lon="2.52167">
        <ele>86</ele>
        <time>2014-10-07T09:08:10.611Z</time>
      </trkpt>
      <trkpt lat="48.68887" lon="2.52169">
        <ele>86</ele>
        <time>2014-10-07T09:08:11.646Z</time>
      </trkpt>
      <trkpt lat="48.68881" lon="2.52178">
        <ele>89</ele>
        <time>2014-10-07T09:08:17.644Z</time>
      </trkpt>
      <trkpt lat="48.6888" lon="2.52179">
        <ele>89</ele>
        <time>2014-10-07T09:08:18.645Z</time>
      </trkpt>
      <trkpt lat="48.68875" lon="2.52188">
        <ele>88</ele>
        <time>2014-10-07T09:08:26.647Z</time>
      </trkpt>
      <trkpt lat="48.68874" lon="2.52189">
        <ele>88</ele>
        <time>2014-10-07T09:08:27.646Z</time>
      </trkpt>
      <trkpt lat="48.68868" lon="2.52198">
        <ele>89</ele>
        <time>2014-10-07T09:08:34.638Z</time>
      </trkpt>
      <trkpt lat="48.68867" lon="2.52199">
        <ele>89</ele>
        <time>2014-10-07T09:08:35.649Z</time>
      </trkpt>
      <trkpt lat="48.68862" lon="2.52208">
        <ele>89</ele>
        <time>2014-10-07T09:08:42.646Z</time>
      </trkpt>
      <trkpt lat="48.68861" lon="2.52209">
        <ele>89</ele>
        <time>2014-10-07T09:08:43.645Z</time>
      </trkpt>
      <trkpt lat="48.68855" lon="2.52218">
        <ele>88</ele>
        <time>2014-10-07T09:08:50.645Z</time>
      </trkpt>
      <trkpt lat="48.68854" lon="2.52219">
        <ele>88</ele>
        <time>2014-10-07T09:08:51.615Z</time>
      </trkpt>
      <trkpt lat="48.68849" lon="2.5223">
        <ele>86</ele>
        <time>2014-10-07T09:08:59.602Z</time>
      </trkpt>
      <trkpt lat="48.68848" lon="2.52232">
        <ele>86</ele>
        <time>2014-10-07T09:09:00.599Z</time>
      </trkpt>
      <trkpt lat="48.68844" lon="2.52242">
        <ele>88</ele>
        <time>2014-10-07T09:09:09.326Z</time>
      </trkpt>
      <trkpt lat="48.68844" lon="2.52243">
        <ele>88</ele>
        <time>2014-10-07T09:09:09.595Z</time>
      </trkpt>
      <trkpt lat="48.68839" lon="2.52254">
        <ele>89</ele>
        <time>2014-10-07T09:09:16.643Z</time>
      </trkpt>
      <trkpt lat="48.68838" lon="2.52255">
        <ele>89</ele>
        <time>2014-10-07T09:09:17.645Z</time>
      </trkpt>
      <trkpt lat="48.68835" lon="2.52267">
        <ele>92</ele>
        <time>2014-10-07T09:09:24.649Z</time>
      </trkpt>
      <trkpt lat="48.68834" lon="2.52269">
        <ele>91</ele>
        <time>2014-10-07T09:09:25.650Z</time>
      </trkpt>
      <trkpt lat="48.6883" lon="2.5228">
        <ele>92</ele>
        <time>2014-10-07T09:09:33.638Z</time>
      </trkpt>
      <trkpt lat="48.6883" lon="2.52281">
        <ele>92</ele>
        <time>2014-10-07T09:09:34.637Z</time>
      </trkpt>
      <trkpt lat="48.68826" lon="2.52292">
        <ele>95</ele>
        <time>2014-10-07T09:09:42.647Z</time>
      </trkpt>
      <trkpt lat="48.68825" lon="2.52293">
        <ele>95</ele>
        <time>2014-10-07T09:09:43.641Z</time>
      </trkpt>
      <trkpt lat="48.68818" lon="2.52303">
        <ele>94</ele>
        <time>2014-10-07T09:09:53.606Z</time>
      </trkpt>
      <trkpt lat="48.68818" lon="2.52303">
        <ele>94</ele>
        <time>2014-10-07T09:09:54.644Z</time>
      </trkpt>
      <trkpt lat="48.6881" lon="2.52309">
        <ele>95</ele>
        <time>2014-10-07T09:10:02.594Z</time>
      </trkpt>
      <trkpt lat="48.68808" lon="2.5231">
        <ele>95</ele>
        <time>2014-10-07T09:10:03.599Z</time>
      </trkpt>
      <trkpt lat="48.688" lon="2.52311">
        <ele>93</ele>
        <time>2014-10-07T09:10:08.612Z</time>
      </trkpt>
      <trkpt lat="48.68799" lon="2.52311">
        <ele>93</ele>
        <time>2014-10-07T09:10:09.653Z</time>
      </trkpt>
      <trkpt lat="48.68791" lon="2.52307">
        <ele>92</ele>
        <time>2014-10-07T09:10:16.416Z</time>
      </trkpt>
      <trkpt lat="48.6879" lon="2.52307">
        <ele>93</ele>
        <time>2014-10-07T09:10:16.591Z</time>
      </trkpt>
      <trkpt lat="48.68782" lon="2.52301">
        <ele>90</ele>
        <time>2014-10-07T09:10:22.645Z</time>
      </trkpt>
      <trkpt lat="48.68781" lon="2.523">
        <ele>89</ele>
        <time>2014-10-07T09:10:23.598Z</time>
      </trkpt>
      <trkpt lat="48.68773" lon="2.52295">
        <ele>87</ele>
        <time>2014-10-07T09:10:30.642Z</time>
      </trkpt>
      <trkpt lat="48.68772" lon="2.52294">
        <ele>89</ele>
        <time>2014-10-07T09:10:31.635Z</time>
      </trkpt>
      <trkpt lat="48.68764" lon="2.52289">
        <ele>89</ele>
        <time>2014-10-07T09:10:38.809Z</time>
      </trkpt>
      <trkpt lat="48.68763" lon="2.52288">
        <ele>89</ele>
        <time>2014-10-07T09:10:39.637Z</time>
      </trkpt>
      <trkpt lat="48.68756" lon="2.52283">
        <ele>89</ele>
        <time>2014-10-07T09:10:46.639Z</time>
      </trkpt>
      <trkpt lat="48.68755" lon="2.52282">
        <ele>89</ele>
        <time>2014-10-07T09:10:47.647Z</time>
      </trkpt>
      <trkpt lat="48.68747" lon="2.52277">
        <ele>87</ele>
        <time>2014-10-07T09:10:55.650Z</time>
      </trkpt>
      <trkpt lat="48.68746" lon="2.52276">
        <ele>87</ele>
        <time>2014-10-07T09:10:56.650Z</time>
      </trkpt>
      <trkpt lat="48.68738" lon="2.52274">
        <ele>89</ele>
        <time>2014-10-07T09:11:04.644Z</time>
      </trkpt>
      <trkpt lat="48.68737" lon="2.52273">
        <ele>88</ele>
        <time>2014-10-07T09:11:05.644Z</time>
      </trkpt>
      <trkpt lat="48.6873" lon="2.52266">
        <ele>87</ele>
        <time>2014-10-07T09:11:14.605Z</time>
      </trkpt>
      <trkpt lat="48.6873" lon="2.52264">
        <ele>87</ele>
        <time>2014-10-07T09:11:15.644Z</time>
      </trkpt>
      <trkpt lat="48.68722" lon="2.52258">
        <ele>88</ele>
        <time>2014-10-07T09:11:25.637Z</time>
      </trkpt>
      <trkpt lat="48.68722" lon="2.52256">
        <ele>89</ele>
        <time>2014-10-07T09:11:26.641Z</time>
      </trkpt>
      <trkpt lat="48.68714" lon="2.5225">
        <ele>87</ele>
        <time>2014-10-07T09:11:34.646Z</time>
      </trkpt>
      <trkpt lat="48.68713" lon="2.52249">
        <ele>89</ele>
        <time>2014-10-07T09:11:35.620Z</time>
      </trkpt>
      <trkpt lat="48.68707" lon="2.5224">
        <ele>92</ele>
        <time>2014-10-07T09:11:42.647Z</time>
      </trkpt>
      <trkpt lat="48.68706" lon="2.52241">
        <ele>93</ele>
        <time>2014-10-07T09:11:43.641Z</time>
      </trkpt>
      <trkpt lat="48.68697" lon="2.52238">
        <ele>91</ele>
        <time>2014-10-07T09:11:52.646Z</time>
      </trkpt>
      <trkpt lat="48.68696" lon="2.52237">
        <ele>91</ele>
        <time>2014-10-07T09:11:53.648Z</time>
      </trkpt>
      <trkpt lat="48.68688" lon="2.52233">
        <ele>91</ele>
        <time>2014-10-07T09:12:01.664Z</time>
      </trkpt>
      <trkpt lat="48.68687" lon="2.52232">
        <ele>91</ele>
        <time>2014-10-07T09:12:02.600Z</time>
      </trkpt>
      <trkpt lat="48.68679" lon="2.5223">
        <ele>92</ele>
        <time>2014-10-07T09:12:08.649Z</time>
      </trkpt>
      <trkpt lat="48.68677" lon="2.5223">
        <ele>92</ele>
        <time>2014-10-07T09:12:09.600Z</time>
      </trkpt>
      <trkpt lat="48.6867" lon="2.52222">
        <ele>93</ele>
        <time>2014-10-07T09:12:19.647Z</time>
      </trkpt>
      <trkpt lat="48.68669" lon="2.52221">
        <ele>92</ele>
        <time>2014-10-07T09:12:20.648Z</time>
      </trkpt>
      <trkpt lat="48.68662" lon="2.52217">
        <ele>94</ele>
        <time>2014-10-07T09:12:27.646Z</time>
      </trkpt>
      <trkpt lat="48.68661" lon="2.52216">
        <ele>94</ele>
        <time>2014-10-07T09:12:28.645Z</time>
      </trkpt>
      <trkpt lat="48.68654" lon="2.52214">
        <ele>94</ele>
        <time>2014-10-07T09:12:34.595Z</time>
      </trkpt>
      <trkpt lat="48.68652" lon="2.52214">
        <ele>94</ele>
        <time>2014-10-07T09:12:35.640Z</time>
      </trkpt>
      <trkpt lat="48.68643" lon="2.52211">
        <ele>95</ele>
        <time>2014-10-07T09:12:42.594Z</time>
      </trkpt>
      <trkpt lat="48.68642" lon="2.52211">
        <ele>95</ele>
        <time>2014-10-07T09:12:43.605Z</time>
      </trkpt>
      <trkpt lat="48.68634" lon="2.52207">
        <ele>97</ele>
        <time>2014-10-07T09:12:50.644Z</time>
      </trkpt>
      <trkpt lat="48.68633" lon="2.52206">
        <ele>97</ele>
        <time>2014-10-07T09:12:51.664Z</time>
      </trkpt>
      <trkpt lat="48.68628" lon="2.52196">
        <ele>98</ele>
        <time>2014-10-07T09:13:00.645Z</time>
      </trkpt>
      <trkpt lat="48.68627" lon="2.52195">
        <ele>98</ele>
        <time>2014-10-07T09:13:01.646Z</time>
      </trkpt>
      <trkpt lat="48.68619" lon="2.52197">
        <ele>97</ele>
        <time>2014-10-07T09:13:09.643Z</time>
      </trkpt>
      <trkpt lat="48.68617" lon="2.52199">
        <ele>97</ele>
        <time>2014-10-07T09:13:10.639Z</time>
      </trkpt>
      <trkpt lat="48.6861" lon="2.52204">
        <ele>98</ele>
        <time>2014-10-07T09:13:14.644Z</time>
      </trkpt>
      <trkpt lat="48.68608" lon="2.52205">
        <ele>99</ele>
        <time>2014-10-07T09:13:15.644Z</time>
      </trkpt>
      <trkpt lat="48.68602" lon="2.52194">
        <ele>101</ele>
        <time>2014-10-07T09:13:25.647Z</time>
      </trkpt>
      <trkpt lat="48.68602" lon="2.52193">
        <ele>101</ele>
        <time>2014-10-07T09:13:26.628Z</time>
      </trkpt>
      <trkpt lat="48.68594" lon="2.52187">
        <ele>103</ele>
        <time>2014-10-07T09:13:37.604Z</time>
      </trkpt>
      <trkpt lat="48.68594" lon="2.52186">
        <ele>103</ele>
        <time>2014-10-07T09:13:38.646Z</time>
      </trkpt>
      <trkpt lat="48.68586" lon="2.52178">
        <ele>102</ele>
        <time>2014-10-07T09:13:48.671Z</time>
      </trkpt>
      <trkpt lat="48.68585" lon="2.52178">
        <ele>102</ele>
        <time>2014-10-07T09:13:49.638Z</time>
      </trkpt>
      <trkpt lat="48.68578" lon="2.52171">
        <ele>103</ele>
        <time>2014-10-07T09:13:57.656Z</time>
      </trkpt>
      <trkpt lat="48.68577" lon="2.52171">
        <ele>104</ele>
        <time>2014-10-07T09:13:58.638Z</time>
      </trkpt>
      <trkpt lat="48.68569" lon="2.52168">
        <ele>105</ele>
        <time>2014-10-07T09:14:06.441Z</time>
      </trkpt>
      <trkpt lat="48.68568" lon="2.52167">
        <ele>105</ele>
        <time>2014-10-07T09:14:06.596Z</time>
      </trkpt>
      <trkpt lat="48.68561" lon="2.52174">
        <ele>106</ele>
        <time>2014-10-07T09:14:11.594Z</time>
      </trkpt>
      <trkpt lat="48.68559" lon="2.52175">
        <ele>104</ele>
        <time>2014-10-07T09:14:12.645Z</time>
      </trkpt>
      <trkpt lat="48.68553" lon="2.52167">
        <ele>108</ele>
        <time>2014-10-07T09:14:17.648Z</time>
      </trkpt>
      <trkpt lat="48.68552" lon="2.52165">
        <ele>110</ele>
        <time>2014-10-07T09:14:18.654Z</time>
      </trkpt>
      <trkpt lat="48.68546" lon="2.52155">
        <ele>113</ele>
        <time>2014-10-07T09:14:26.347Z</time>
      </trkpt>
      <trkpt lat="48.68546" lon="2.52154">
        <ele>114</ele>
        <time>2014-10-07T09:14:26.634Z</time>
      </trkpt>
      <trkpt lat="48.68537" lon="2.52149">
        <ele>109</ele>
        <time>2014-10-07T09:14:36.396Z</time>
      </trkpt>
      <trkpt lat="48.68536" lon="2.5215">
        <ele>110</ele>
        <time>2014-10-07T09:14:36.594Z</time>
      </trkpt>
      <trkpt lat="48.68528" lon="2.52151">
        <ele>112</ele>
        <time>2014-10-07T09:14:43.651Z</time>
      </trkpt>
      <trkpt lat="48.68527" lon="2.52151">
        <ele>112</ele>
        <time>2014-10-07T09:14:44.645Z</time>
      </trkpt>
      <trkpt lat="48.6852" lon="2.52143">
        <ele>114</ele>
        <time>2014-10-07T09:14:54.609Z</time>
      </trkpt>
      <trkpt lat="48.6852" lon="2.52141">
        <ele>115</ele>
        <time>2014-10-07T09:14:55.642Z</time>
      </trkpt>
      <trkpt lat="48.68512" lon="2.52136">
        <ele>117</ele>
        <time>2014-10-07T09:15:06.530Z</time>
      </trkpt>
      <trkpt lat="48.68512" lon="2.52135">
        <ele>117</ele>
        <time>2014-10-07T09:15:06.598Z</time>
      </trkpt>
      <trkpt lat="48.68504" lon="2.52131">
        <ele>120</ele>
        <time>2014-10-07T09:15:14.645Z</time>
      </trkpt>
      <trkpt lat="48.68503" lon="2.52131">
        <ele>119</ele>
        <time>2014-10-07T09:15:15.608Z</time>
      </trkpt>
      <trkpt lat="48.68494" lon="2.5213">
        <ele>123</ele>
        <time>2014-10-07T09:15:23.649Z</time>
      </trkpt>
      <trkpt lat="48.68493" lon="2.52129">
        <ele>122</ele>
        <time>2014-10-07T09:15:24.645Z</time>
      </trkpt>
      <trkpt lat="48.68489" lon="2.52126">
        <ele>121</ele>
        <time>2014-10-07T09:15:36.406Z</time>
      </trkpt>
      <trkpt lat="48.68481" lon="2.52118">
        <ele>119</ele>
        <time>2014-10-07T09:15:39.637Z</time>
      </trkpt>
      <trkpt lat="48.68473" lon="2.52115">
        <ele>123</ele>
        <time>2014-10-07T09:15:46.606Z</time>
      </trkpt>
      <trkpt lat="48.68472" lon="2.52115">
        <ele>120</ele>
        <time>2014-10-07T09:15:47.593Z</time>
      </trkpt>
      <trkpt lat="48.68464" lon="2.52108">
        <ele>125</ele>
        <time>2014-10-07T09:15:57.601Z</time>
      </trkpt>
      <trkpt lat="48.68463" lon="2.52108">
        <ele>126</ele>
        <time>2014-10-07T09:15:58.645Z</time>
      </trkpt>
      <trkpt lat="48.68457" lon="2.52099">
        <ele>126</ele>
        <time>2014-10-07T09:16:08.599Z</time>
      </trkpt>
      <trkpt lat="48.68456" lon="2.52099">
        <ele>126</ele>
        <time>2014-10-07T09:16:09.643Z</time>
      </trkpt>
      <trkpt lat="48.68448" lon="2.52096">
        <ele>129</ele>
        <time>2014-10-07T09:16:18.677Z</time>
      </trkpt>
      <trkpt lat="48.68447" lon="2.52096">
        <ele>129</ele>
        <time>2014-10-07T09:16:19.601Z</time>
      </trkpt>
      <trkpt lat="48.68438" lon="2.52093">
        <ele>129</ele>
        <time>2014-10-07T09:16:26.601Z</time>
      </trkpt>
      <trkpt lat="48.68437" lon="2.52093">
        <ele>128</ele>
        <time>2014-10-07T09:16:27.602Z</time>
      </trkpt>
      <trkpt lat="48.68429" lon="2.52087">
        <ele>129</ele>
        <time>2014-10-07T09:16:36.537Z</time>
      </trkpt>
      <trkpt lat="48.68428" lon="2.52087">
        <ele>126</ele>
        <time>2014-10-07T09:16:36.596Z</time>
      </trkpt>
      <trkpt lat="48.68421" lon="2.52082">
        <ele>129</ele>
        <time>2014-10-07T09:16:44.640Z</time>
      </trkpt>
      <trkpt lat="48.6842" lon="2.52081">
        <ele>129</ele>
        <time>2014-10-07T09:16:45.645Z</time>
      </trkpt>
      <trkpt lat="48.68412" lon="2.52074">
        <ele>126</ele>
        <time>2014-10-07T09:16:53.597Z</time>
      </trkpt>
      <trkpt lat="48.68411" lon="2.52074">
        <ele>126</ele>
        <time>2014-10-07T09:16:54.635Z</time>
      </trkpt>
      <trkpt lat="48.68403" lon="2.52069">
        <ele>126</ele>
        <time>2014-10-07T09:17:02.649Z</time>
      </trkpt>
      <trkpt lat="48.68403" lon="2.52067">
        <ele>128</ele>
        <time>2014-10-07T09:17:03.647Z</time>
      </trkpt>
      <trkpt lat="48.68394" lon="2.52063">
        <ele>128</ele>
        <time>2014-10-07T09:17:13.645Z</time>
      </trkpt>
      <trkpt lat="48.68393" lon="2.52063">
        <ele>128</ele>
        <time>2014-10-07T09:17:14.635Z</time>
      </trkpt>
      <trkpt lat="48.68385" lon="2.52062">
        <ele>129</ele>
        <time>2014-10-07T09:17:21.379Z</time>
      </trkpt>
      <trkpt lat="48.68383" lon="2.52062">
        <ele>130</ele>
        <time>2014-10-07T09:17:21.621Z</time>
      </trkpt>
      <trkpt lat="48.68376" lon="2.52056">
        <ele>127</ele>
        <time>2014-10-07T09:17:29.645Z</time>
      </trkpt>
      <trkpt lat="48.68375" lon="2.52055">
        <ele>127</ele>
        <time>2014-10-07T09:17:30.646Z</time>
      </trkpt>
      <trkpt lat="48.68367" lon="2.5205">
        <ele>125</ele>
        <time>2014-10-07T09:17:37.647Z</time>
      </trkpt>
      <trkpt lat="48.68367" lon="2.52049">
        <ele>125</ele>
        <time>2014-10-07T09:17:38.646Z</time>
      </trkpt>
      <trkpt lat="48.68359" lon="2.52044">
        <ele>126</ele>
        <time>2014-10-07T09:17:46.372Z</time>
      </trkpt>
      <trkpt lat="48.68357" lon="2.52044">
        <ele>127</ele>
        <time>2014-10-07T09:17:46.593Z</time>
      </trkpt>
      <trkpt lat="48.68349" lon="2.52041">
        <ele>130</ele>
        <time>2014-10-07T09:17:52.639Z</time>
      </trkpt>
      <trkpt lat="48.68348" lon="2.52041">
        <ele>131</ele>
        <time>2014-10-07T09:17:53.674Z</time>
      </trkpt>
      <trkpt lat="48.6834" lon="2.52035">
        <ele>134</ele>
        <time>2014-10-07T09:17:59.599Z</time>
      </trkpt>
      <trkpt lat="48.68339" lon="2.52035">
        <ele>132</ele>
        <time>2014-10-07T09:18:00.647Z</time>
      </trkpt>
      <trkpt lat="48.6833" lon="2.52033">
        <ele>134</ele>
        <time>2014-10-07T09:18:07.655Z</time>
      </trkpt>
      <trkpt lat="48.68329" lon="2.52033">
        <ele>135</ele>
        <time>2014-10-07T09:18:08.646Z</time>
      </trkpt>
      <trkpt lat="48.68321" lon="2.5203">
        <ele>133</ele>
        <time>2014-10-07T09:18:16.602Z</time>
      </trkpt>
      <trkpt lat="48.6832" lon="2.52029">
        <ele>133</ele>
        <time>2014-10-07T09:18:17.655Z</time>
      </trkpt>
      <trkpt lat="48.68312" lon="2.52025">
        <ele>131</ele>
        <time>2014-10-07T09:18:24.639Z</time>
      </trkpt>
      <trkpt lat="48.6831" lon="2.52024">
        <ele>132</ele>
        <time>2014-10-07T09:18:25.597Z</time>
      </trkpt>
      <trkpt lat="48.68303" lon="2.52018">
        <ele>131</ele>
        <time>2014-10-07T09:18:32.645Z</time>
      </trkpt>
      <trkpt lat="48.68303" lon="2.52017">
        <ele>131</ele>
        <time>2014-10-07T09:18:33.639Z</time>
      </trkpt>
      <trkpt lat="48.68294" lon="2.52012">
        <ele>131</ele>
        <time>2014-10-07T09:18:41.598Z</time>
      </trkpt>
      <trkpt lat="48.68293" lon="2.52012">
        <ele>132</ele>
        <time>2014-10-07T09:18:42.598Z</time>
      </trkpt>
      <trkpt lat="48.68289" lon="2.52001">
        <ele>135</ele>
        <time>2014-10-07T09:18:49.598Z</time>
      </trkpt>
      <trkpt lat="48.68288" lon="2.52">
        <ele>135</ele>
        <time>2014-10-07T09:18:50.636Z</time>
      </trkpt>
      <trkpt lat="48.68279" lon="2.51997">
        <ele>138</ele>
        <time>2014-10-07T09:18:56.697Z</time>
      </trkpt>
      <trkpt lat="48.68278" lon="2.51997">
        <ele>137</ele>
        <time>2014-10-07T09:18:57.631Z</time>
      </trkpt>
      <trkpt lat="48.6827" lon="2.51994">
        <ele>133</ele>
        <time>2014-10-07T09:19:04.637Z</time>
      </trkpt>
      <trkpt lat="48.68268" lon="2.51993">
        <ele>133</ele>
        <time>2014-10-07T09:19:05.637Z</time>
      </trkpt>
      <trkpt lat="48.68261" lon="2.5199">
        <ele>137</ele>
        <time>2014-10-07T09:19:12.644Z</time>
      </trkpt>
      <trkpt lat="48.68259" lon="2.51989">
        <ele>138</ele>
        <time>2014-10-07T09:19:13.646Z</time>
      </trkpt>
      <trkpt lat="48.68253" lon="2.5198">
        <ele>132</ele>
        <time>2014-10-07T09:19:21.624Z</time>
      </trkpt>
      <trkpt lat="48.68252" lon="2.51979">
        <ele>133</ele>
        <time>2014-10-07T09:19:22.626Z</time>
      </trkpt>
      <trkpt lat="48.68244" lon="2.51975">
        <ele>133</ele>
        <time>2014-10-07T09:19:29.642Z</time>
      </trkpt>
      <trkpt lat="48.68243" lon="2.51974">
        <ele>135</ele>
        <time>2014-10-07T09:19:30.638Z</time>
      </trkpt>
      <trkpt lat="48.68234" lon="2.51973">
        <ele>133</ele>
        <time>2014-10-07T09:19:36.593Z</time>
      </trkpt>
      <trkpt lat="48.68233" lon="2.51973">
        <ele>133</ele>
        <time>2014-10-07T09:19:37.653Z</time>
      </trkpt>
      <trkpt lat="48.68224" lon="2.5197">
        <ele>132</ele>
        <time>2014-10-07T09:19:43.631Z</time>
      </trkpt>
      <trkpt lat="48.68223" lon="2.5197">
        <ele>133</ele>
        <time>2014-10-07T09:19:44.635Z</time>
      </trkpt>
      <trkpt lat="48.68216" lon="2.51963">
        <ele>134</ele>
        <time>2014-10-07T09:19:51.598Z</time>
      </trkpt>
      <trkpt lat="48.68215" lon="2.51962">
        <ele>134</ele>
        <time>2014-10-07T09:19:52.648Z</time>
      </trkpt>
      <trkpt lat="48.68207" lon="2.51957">
        <ele>135</ele>
        <time>2014-10-07T09:19:58.639Z</time>
      </trkpt>
      <trkpt lat="48.68206" lon="2.51956">
        <ele>136</ele>
        <time>2014-10-07T09:19:59.640Z</time>
      </trkpt>
      <trkpt lat="48.68199" lon="2.5195">
        <ele>137</ele>
        <time>2014-10-07T09:20:07.603Z</time>
      </trkpt>
      <trkpt lat="48.68198" lon="2.51949">
        <ele>138</ele>
        <time>2014-10-07T09:20:08.621Z</time>
      </trkpt>
      <trkpt lat="48.6819" lon="2.51945">
        <ele>133</ele>
        <time>2014-10-07T09:21:40.643Z</time>
      </trkpt>
      <trkpt lat="48.68189" lon="2.51943">
        <ele>134</ele>
        <time>2014-10-07T09:21:41.594Z</time>
      </trkpt>
      <trkpt lat="48.6818" lon="2.51942">
        <ele>135</ele>
        <time>2014-10-07T09:22:44.645Z</time>
      </trkpt>
      <trkpt lat="48.68179" lon="2.51942">
        <ele>134</ele>
        <time>2014-10-07T09:22:45.646Z</time>
      </trkpt>
      <trkpt lat="48.6817" lon="2.51938">
        <ele>129</ele>
        <time>2014-10-07T09:22:52.591Z</time>
      </trkpt>
      <trkpt lat="48.68169" lon="2.51937">
        <ele>129</ele>
        <time>2014-10-07T09:22:53.592Z</time>
      </trkpt>
      <trkpt lat="48.68161" lon="2.51933">
        <ele>127</ele>
        <time>2014-10-07T09:23:01.551Z</time>
      </trkpt>
      <trkpt lat="48.68159" lon="2.51932">
        <ele>127</ele>
        <time>2014-10-07T09:23:01.598Z</time>
      </trkpt>
      <trkpt lat="48.68152" lon="2.51927">
        <ele>128</ele>
        <time>2014-10-07T09:23:08.634Z</time>
      </trkpt>
      <trkpt lat="48.68151" lon="2.51926">
        <ele>128</ele>
        <time>2014-10-07T09:23:09.645Z</time>
      </trkpt>
      <trkpt lat="48.68143" lon="2.51918">
        <ele>131</ele>
        <time>2014-10-07T09:23:15.637Z</time>
      </trkpt>
      <trkpt lat="48.68142" lon="2.51917">
        <ele>131</ele>
        <time>2014-10-07T09:23:16.643Z</time>
      </trkpt>
      <trkpt lat="48.68134" lon="2.5191">
        <ele>130</ele>
        <time>2014-10-07T09:23:22.636Z</time>
      </trkpt>
      <trkpt lat="48.68133" lon="2.51909">
        <ele>130</ele>
        <time>2014-10-07T09:23:23.639Z</time>
      </trkpt>
      <trkpt lat="48.68126" lon="2.51904">
        <ele>131</ele>
        <time>2014-10-07T09:23:28.618Z</time>
      </trkpt>
      <trkpt lat="48.68124" lon="2.51903">
        <ele>131</ele>
        <time>2014-10-07T09:23:29.639Z</time>
      </trkpt>
      <trkpt lat="48.68116" lon="2.51898">
        <ele>130</ele>
        <time>2014-10-07T09:23:36.608Z</time>
      </trkpt>
      <trkpt lat="48.68115" lon="2.51897">
        <ele>130</ele>
        <time>2014-10-07T09:23:37.646Z</time>
      </trkpt>
      <trkpt lat="48.68107" lon="2.51893">
        <ele>131</ele>
        <time>2014-10-07T09:23:44.638Z</time>
      </trkpt>
      <trkpt lat="48.68106" lon="2.51892">
        <ele>133</ele>
        <time>2014-10-07T09:23:45.599Z</time>
      </trkpt>
      <trkpt lat="48.68098" lon="2.51891">
        <ele>134</ele>
        <time>2014-10-07T09:23:52.597Z</time>
      </trkpt>
      <trkpt lat="48.68096" lon="2.51891">
        <ele>134</ele>
        <time>2014-10-07T09:23:53.636Z</time>
      </trkpt>
      <trkpt lat="48.68088" lon="2.51888">
        <ele>136</ele>
        <time>2014-10-07T09:23:58.643Z</time>
      </trkpt>
      <trkpt lat="48.68087" lon="2.51887">
        <ele>136</ele>
        <time>2014-10-07T09:23:59.635Z</time>
      </trkpt>
      <trkpt lat="48.6808" lon="2.51882">
        <ele>131</ele>
        <time>2014-10-07T09:24:06.591Z</time>
      </trkpt>
      <trkpt lat="48.68079" lon="2.51881">
        <ele>131</ele>
        <time>2014-10-07T09:24:07.599Z</time>
      </trkpt>
      <trkpt lat="48.68072" lon="2.51874">
        <ele>124</ele>
        <time>2014-10-07T09:24:16.601Z</time>
      </trkpt>
      <trkpt lat="48.68071" lon="2.51873">
        <ele>125</ele>
        <time>2014-10-07T09:24:17.649Z</time>
      </trkpt>
      <trkpt lat="48.68069" lon="2.5186">
        <ele>134</ele>
        <time>2014-10-07T09:24:24.646Z</time>
      </trkpt>
      <trkpt lat="48.68068" lon="2.51858">
        <ele>134</ele>
        <time>2014-10-07T09:24:25.644Z</time>
      </trkpt>
      <trkpt lat="48.68064" lon="2.51847">
        <ele>132</ele>
        <time>2014-10-07T09:24:32.615Z</time>
      </trkpt>
      <trkpt lat="48.68063" lon="2.51845">
        <ele>131</ele>
        <time>2014-10-07T09:24:33.592Z</time>
      </trkpt>
      <trkpt lat="48.68058" lon="2.51835">
        <ele>134</ele>
        <time>2014-10-07T09:24:41.415Z</time>
      </trkpt>
      <trkpt lat="48.68058" lon="2.51833">
        <ele>134</ele>
        <time>2014-10-07T09:24:41.592Z</time>
      </trkpt>
      <trkpt lat="48.68055" lon="2.51821">
        <ele>137</ele>
        <time>2014-10-07T09:24:46.593Z</time>
      </trkpt>
      <trkpt lat="48.68055" lon="2.51819">
        <ele>138</ele>
        <time>2014-10-07T09:24:47.638Z</time>
      </trkpt>
      <trkpt lat="48.6805" lon="2.51808">
        <ele>135</ele>
        <time>2014-10-07T09:24:54.594Z</time>
      </trkpt>
      <trkpt lat="48.68049" lon="2.51806">
        <ele>133</ele>
        <time>2014-10-07T09:24:55.596Z</time>
      </trkpt>
      <trkpt lat="48.68047" lon="2.51794">
        <ele>135</ele>
        <time>2014-10-07T09:25:01.663Z</time>
      </trkpt>
      <trkpt lat="48.68046" lon="2.51793">
        <ele>135</ele>
        <time>2014-10-07T09:25:02.602Z</time>
      </trkpt>
      <trkpt lat="48.68043" lon="2.51782">
        <ele>131</ele>
        <time>2014-10-07T09:25:09.655Z</time>
      </trkpt>
      <trkpt lat="48.68042" lon="2.5178">
        <ele>131</ele>
        <time>2014-10-07T09:25:10.648Z</time>
      </trkpt>
      <trkpt lat="48.68038" lon="2.5177">
        <ele>126</ele>
        <time>2014-10-07T09:25:18.640Z</time>
      </trkpt>
      <trkpt lat="48.68038" lon="2.51768">
        <ele>127</ele>
        <time>2014-10-07T09:25:19.645Z</time>
      </trkpt>
      <trkpt lat="48.68033" lon="2.51757">
        <ele>121</ele>
        <time>2014-10-07T09:25:26.605Z</time>
      </trkpt>
      <trkpt lat="48.68033" lon="2.51755">
        <ele>120</ele>
        <time>2014-10-07T09:25:27.639Z</time>
      </trkpt>
      <trkpt lat="48.68032" lon="2.5175">
        <ele>125</ele>
        <time>2014-10-07T09:25:36.420Z</time>
      </trkpt>
      <trkpt lat="48.68029" lon="2.51737">
        <ele>124</ele>
        <time>2014-10-07T09:25:39.507Z</time>
      </trkpt>
      <trkpt lat="48.68026" lon="2.51725">
        <ele>125</ele>
        <time>2014-10-07T09:25:46.444Z</time>
      </trkpt>
      <trkpt lat="48.68025" lon="2.51724">
        <ele>128</ele>
        <time>2014-10-07T09:25:46.600Z</time>
      </trkpt>
      <trkpt lat="48.68022" lon="2.51712">
        <ele>129</ele>
        <time>2014-10-07T09:25:53.635Z</time>
      </trkpt>
      <trkpt lat="48.68022" lon="2.5171">
        <ele>129</ele>
        <time>2014-10-07T09:25:54.636Z</time>
      </trkpt>
      <trkpt lat="48.68019" lon="2.51698">
        <ele>128</ele>
        <time>2014-10-07T09:26:02.639Z</time>
      </trkpt>
      <trkpt lat="48.68019" lon="2.51696">
        <ele>129</ele>
        <time>2014-10-07T09:26:03.643Z</time>
      </trkpt>
      <trkpt lat="48.68016" lon="2.51685">
        <ele>128</ele>
        <time>2014-10-07T09:26:09.634Z</time>
      </trkpt>
      <trkpt lat="48.68015" lon="2.51684">
        <ele>128</ele>
        <time>2014-10-07T09:26:10.608Z</time>
      </trkpt>
      <trkpt lat="48.68011" lon="2.51672">
        <ele>131</ele>
        <time>2014-10-07T09:26:16.597Z</time>
      </trkpt>
      <trkpt lat="48.6801" lon="2.5167">
        <ele>131</ele>
        <time>2014-10-07T09:26:17.646Z</time>
      </trkpt>
      <trkpt lat="48.68005" lon="2.5166">
        <ele>131</ele>
        <time>2014-10-07T09:26:23.599Z</time>
      </trkpt>
      <trkpt lat="48.68005" lon="2.51658">
        <ele>132</ele>
        <time>2014-10-07T09:26:24.642Z</time>
      </trkpt>
      <trkpt lat="48.68" lon="2.51648">
        <ele>136</ele>
        <time>2014-10-07T09:26:31.373Z</time>
      </trkpt>
      <trkpt lat="48.68" lon="2.51646">
        <ele>136</ele>
        <time>2014-10-07T09:26:31.606Z</time>
      </trkpt>
      <trkpt lat="48.67998" lon="2.51634">
        <ele>136</ele>
        <time>2014-10-07T09:26:38.642Z</time>
      </trkpt>
      <trkpt lat="48.67998" lon="2.51633">
        <ele>136</ele>
        <time>2014-10-07T09:26:39.638Z</time>
      </trkpt>
      <trkpt lat="48.67994" lon="2.51621">
        <ele>134</ele>
        <time>2014-10-07T09:26:47.642Z</time>
      </trkpt>
      <trkpt lat="48.67993" lon="2.51619">
        <ele>133</ele>
        <time>2014-10-07T09:26:48.645Z</time>
      </trkpt>
      <trkpt lat="48.67987" lon="2.5161">
        <ele>135</ele>
        <time>2014-10-07T09:26:56.398Z</time>
      </trkpt>
      <trkpt lat="48.67987" lon="2.51609">
        <ele>135</ele>
        <time>2014-10-07T09:26:56.596Z</time>
      </trkpt>
      <trkpt lat="48.67984" lon="2.51597">
        <ele>128</ele>
        <time>2014-10-07T09:27:03.595Z</time>
      </trkpt>
      <trkpt lat="48.67984" lon="2.51596">
        <ele>129</ele>
        <time>2014-10-07T09:27:04.634Z</time>
      </trkpt>
      <trkpt lat="48.6798" lon="2.51583">
        <ele>134</ele>
        <time>2014-10-07T09:27:14.625Z</time>
      </trkpt>
      <trkpt lat="48.6798" lon="2.51583">
        <ele>135</ele>
        <time>2014-10-07T09:27:15.597Z</time>
      </trkpt>
      <trkpt lat="48.67974" lon="2.51573">
        <ele>139</ele>
        <time>2014-10-07T09:27:22.636Z</time>
      </trkpt>
      <trkpt lat="48.67973" lon="2.51571">
        <ele>138</ele>
        <time>2014-10-07T09:27:23.630Z</time>
      </trkpt>
      <trkpt lat="48.6797" lon="2.51559">
        <ele>139</ele>
        <time>2014-10-07T09:27:29.638Z</time>
      </trkpt>
      <trkpt lat="48.6797" lon="2.51557">
        <ele>136</ele>
        <time>2014-10-07T09:27:30.646Z</time>
      </trkpt>
      <trkpt lat="48.67967" lon="2.51546">
        <ele>141</ele>
        <time>2014-10-07T09:27:36.438Z</time>
      </trkpt>
      <trkpt lat="48.67967" lon="2.51543">
        <ele>141</ele>
        <time>2014-10-07T09:27:36.597Z</time>
      </trkpt>
      <trkpt lat="48.67961" lon="2.51532">
        <ele>141</ele>
        <time>2014-10-07T09:27:42.644Z</time>
      </trkpt>
      <trkpt lat="48.6796" lon="2.5153">
        <ele>140</ele>
        <time>2014-10-07T09:27:43.599Z</time>
      </trkpt>
      <trkpt lat="48.67958" lon="2.51518">
        <ele>141</ele>
        <time>2014-10-07T09:27:53.617Z</time>
      </trkpt>
      <trkpt lat="48.67958" lon="2.51517">
        <ele>140</ele>
        <time>2014-10-07T09:27:54.639Z</time>
      </trkpt>
      <trkpt lat="48.67955" lon="2.51506">
        <ele>138</ele>
        <time>2014-10-07T09:28:02.646Z</time>
      </trkpt>
      <trkpt lat="48.67955" lon="2.51504">
        <ele>138</ele>
        <time>2014-10-07T09:28:03.609Z</time>
      </trkpt>
      <trkpt lat="48.67953" lon="2.51492">
        <ele>139</ele>
        <time>2014-10-07T09:28:11.657Z</time>
      </trkpt>
      <trkpt lat="48.67952" lon="2.51489">
        <ele>140</ele>
        <time>2014-10-07T09:28:12.641Z</time>
      </trkpt>
      <trkpt lat="48.67948" lon="2.51477">
        <ele>142</ele>
        <time>2014-10-07T09:28:18.642Z</time>
      </trkpt>
      <trkpt lat="48.67947" lon="2.51476">
        <ele>141</ele>
        <time>2014-10-07T09:28:19.635Z</time>
      </trkpt>
      <trkpt lat="48.67943" lon="2.51466">
        <ele>140</ele>
        <time>2014-10-07T09:28:24.607Z</time>
      </trkpt>
      <trkpt lat="48.67942" lon="2.51463">
        <ele>139</ele>
        <time>2014-10-07T09:28:25.643Z</time>
      </trkpt>
      <trkpt lat="48.67937" lon="2.51453">
        <ele>136</ele>
        <time>2014-10-07T09:28:31.403Z</time>
      </trkpt>
      <trkpt lat="48.67936" lon="2.51451">
        <ele>133</ele>
        <time>2014-10-07T09:28:31.592Z</time>
      </trkpt>
      <trkpt lat="48.67933" lon="2.51439">
        <ele>139</ele>
        <time>2014-10-07T09:28:38.596Z</time>
      </trkpt>
      <trkpt lat="48.67932" lon="2.51438">
        <ele>139</ele>
        <time>2014-10-07T09:28:39.645Z</time>
      </trkpt>
      <trkpt lat="48.67927" lon="2.51428">
        <ele>137</ele>
        <time>2014-10-07T09:28:47.637Z</time>
      </trkpt>
      <trkpt lat="48.67926" lon="2.51426">
        <ele>137</ele>
        <time>2014-10-07T09:28:48.639Z</time>
      </trkpt>
      <trkpt lat="48.67923" lon="2.51414">
        <ele>138</ele>
        <time>2014-10-07T09:28:56.670Z</time>
      </trkpt>
      <trkpt lat="48.67922" lon="2.51412">
        <ele>137</ele>
        <time>2014-10-07T09:28:57.636Z</time>
      </trkpt>
      <trkpt lat="48.67919" lon="2.514">
        <ele>136</ele>
        <time>2014-10-07T09:29:04.647Z</time>
      </trkpt>
      <trkpt lat="48.67919" lon="2.51398">
        <ele>134</ele>
        <time>2014-10-07T09:29:05.646Z</time>
      </trkpt>
      <trkpt lat="48.67917" lon="2.51386">
        <ele>136</ele>
        <time>2014-10-07T09:29:11.704Z</time>
      </trkpt>
      <trkpt lat="48.67917" lon="2.51384">
        <ele>137</ele>
        <time>2014-10-07T09:29:12.643Z</time>
      </trkpt>
      <trkpt lat="48.67913" lon="2.51373">
        <ele>137</ele>
        <time>2014-10-07T09:29:18.644Z</time>
      </trkpt>
      <trkpt lat="48.67913" lon="2.51372">
        <ele>135</ele>
        <time>2014-10-07T09:29:19.641Z</time>
      </trkpt>
      <trkpt lat="48.67909" lon="2.5136">
        <ele>140</ele>
        <time>2014-10-07T09:29:26.593Z</time>
      </trkpt>
      <trkpt lat="48.67908" lon="2.51359">
        <ele>142</ele>
        <time>2014-10-07T09:29:27.593Z</time>
      </trkpt>
      <trkpt lat="48.67902" lon="2.51349">
        <ele>141</ele>
        <time>2014-10-07T09:29:33.642Z</time>
      </trkpt>
      <trkpt lat="48.67902" lon="2.51347">
        <ele>140</ele>
        <time>2014-10-07T09:29:34.646Z</time>
      </trkpt>
      <trkpt lat="48.67899" lon="2.51336">
        <ele>137</ele>
        <time>2014-10-07T09:29:41.599Z</time>
      </trkpt>
      <trkpt lat="48.67898" lon="2.51334">
        <ele>138</ele>
        <time>2014-10-07T09:29:42.649Z</time>
      </trkpt>
      <trkpt lat="48.67895" lon="2.51322">
        <ele>139</ele>
        <time>2014-10-07T09:29:51.424Z</time>
      </trkpt>
      <trkpt lat="48.67895" lon="2.51321">
        <ele>141</ele>
        <time>2014-10-07T09:29:51.592Z</time>
      </trkpt>
      <trkpt lat="48.67889" lon="2.5131">
        <ele>139</ele>
        <time>2014-10-07T09:29:59.599Z</time>
      </trkpt>
      <trkpt lat="48.67888" lon="2.51309">
        <ele>138</ele>
        <time>2014-10-07T09:30:00.648Z</time>
      </trkpt>
      <trkpt lat="48.67883" lon="2.51299">
        <ele>138</ele>
        <time>2014-10-07T09:30:06.599Z</time>
      </trkpt>
      <trkpt lat="48.67882" lon="2.51297">
        <ele>137</ele>
        <time>2014-10-07T09:30:07.646Z</time>
      </trkpt>
      <trkpt lat="48.67879" lon="2.51285">
        <ele>138</ele>
        <time>2014-10-07T09:30:13.645Z</time>
      </trkpt>
      <trkpt lat="48.67878" lon="2.51284">
        <ele>139</ele>
        <time>2014-10-07T09:30:14.646Z</time>
      </trkpt>
      <trkpt lat="48.67875" lon="2.51273">
        <ele>139</ele>
        <time>2014-10-07T09:30:19.639Z</time>
      </trkpt>
      <trkpt lat="48.67875" lon="2.51271">
        <ele>139</ele>
        <time>2014-10-07T09:30:20.594Z</time>
      </trkpt>
      <trkpt lat="48.67872" lon="2.51259">
        <ele>139</ele>
        <time>2014-10-07T09:30:26.406Z</time>
      </trkpt>
      <trkpt lat="48.67871" lon="2.51256">
        <ele>138</ele>
        <time>2014-10-07T09:30:26.593Z</time>
      </trkpt>
      <trkpt lat="48.67869" lon="2.51245">
        <ele>137</ele>
        <time>2014-10-07T09:30:36.472Z</time>
      </trkpt>
      <trkpt lat="48.67869" lon="2.51229">
        <ele>136</ele>
        <time>2014-10-07T09:30:40.591Z</time>
      </trkpt>
      <trkpt lat="48.67873" lon="2.51216">
        <ele>136</ele>
        <time>2014-10-07T09:30:50.643Z</time>
      </trkpt>
      <trkpt lat="48.67873" lon="2.51215">
        <ele>135</ele>
        <time>2014-10-07T09:30:51.636Z</time>
      </trkpt>
      <trkpt lat="48.67879" lon="2.51206">
        <ele>137</ele>
        <time>2014-10-07T09:30:57.594Z</time>
      </trkpt>
      <trkpt lat="48.67881" lon="2.51205">
        <ele>138</ele>
        <time>2014-10-07T09:30:58.645Z</time>
      </trkpt>
      <trkpt lat="48.67889" lon="2.51198">
        <ele>137</ele>
        <time>2014-10-07T09:31:05.647Z</time>
      </trkpt>
      <trkpt lat="48.6789" lon="2.51197">
        <ele>135</ele>
        <time>2014-10-07T09:31:06.635Z</time>
      </trkpt>
      <trkpt lat="48.67898" lon="2.51193">
        <ele>135</ele>
        <time>2014-10-07T09:31:12.626Z</time>
      </trkpt>
      <trkpt lat="48.67899" lon="2.51193">
        <ele>136</ele>
        <time>2014-10-07T09:31:13.649Z</time>
      </trkpt>
      <trkpt lat="48.67906" lon="2.51186">
        <ele>137</ele>
        <time>2014-10-07T09:31:18.635Z</time>
      </trkpt>
      <trkpt lat="48.67907" lon="2.51184">
        <ele>137</ele>
        <time>2014-10-07T09:31:19.633Z</time>
      </trkpt>
      <trkpt lat="48.67912" lon="2.51175">
        <ele>137</ele>
        <time>2014-10-07T09:31:28.594Z</time>
      </trkpt>
      <trkpt lat="48.67913" lon="2.51173">
        <ele>135</ele>
        <time>2014-10-07T09:31:29.594Z</time>
      </trkpt>
      <trkpt lat="48.67916" lon="2.51162">
        <ele>134</ele>
        <time>2014-10-07T09:31:36.418Z</time>
      </trkpt>
      <trkpt lat="48.67916" lon="2.5116">
        <ele>135</ele>
        <time>2014-10-07T09:31:36.597Z</time>
      </trkpt>
      <trkpt lat="48.67918" lon="2.51148">
        <ele>134</ele>
        <time>2014-10-07T09:31:43.591Z</time>
      </trkpt>
      <trkpt lat="48.67918" lon="2.51147">
        <ele>135</ele>
        <time>2014-10-07T09:31:44.593Z</time>
      </trkpt>
      <trkpt lat="48.67926" lon="2.51143">
        <ele>132</ele>
        <time>2014-10-07T09:31:51.595Z</time>
      </trkpt>
      <trkpt lat="48.67927" lon="2.51142">
        <ele>133</ele>
        <time>2014-10-07T09:31:52.636Z</time>
      </trkpt>
      <trkpt lat="48.67934" lon="2.51135">
        <ele>133</ele>
        <time>2014-10-07T09:31:58.630Z</time>
      </trkpt>
      <trkpt lat="48.67935" lon="2.51134">
        <ele>134</ele>
        <time>2014-10-07T09:31:59.630Z</time>
      </trkpt>
      <trkpt lat="48.67942" lon="2.51134">
        <ele>133</ele>
        <time>2014-10-07T09:32:06.653Z</time>
      </trkpt>
      <trkpt lat="48.67945" lon="2.51135">
        <ele>133</ele>
        <time>2014-10-07T09:32:07.635Z</time>
      </trkpt>
      <trkpt lat="48.67953" lon="2.51134">
        <ele>130</ele>
        <time>2014-10-07T09:32:14.593Z</time>
      </trkpt>
      <trkpt lat="48.67954" lon="2.51133">
        <ele>129</ele>
        <time>2014-10-07T09:32:15.634Z</time>
      </trkpt>
      <trkpt lat="48.6796" lon="2.51124">
        <ele>130</ele>
        <time>2014-10-07T09:32:21.592Z</time>
      </trkpt>
      <trkpt lat="48.6796" lon="2.51122">
        <ele>131</ele>
        <time>2014-10-07T09:32:22.632Z</time>
      </trkpt>
      <trkpt lat="48.67964" lon="2.5111">
        <ele>130</ele>
        <time>2014-10-07T09:32:28.631Z</time>
      </trkpt>
      <trkpt lat="48.67965" lon="2.51109">
        <ele>129</ele>
        <time>2014-10-07T09:32:29.636Z</time>
      </trkpt>
      <trkpt lat="48.67973" lon="2.51104">
        <ele>126</ele>
        <time>2014-10-07T09:32:38.637Z</time>
      </trkpt>
      <trkpt lat="48.67973" lon="2.51103">
        <ele>127</ele>
        <time>2014-10-07T09:32:39.636Z</time>
      </trkpt>
      <trkpt lat="48.67976" lon="2.51091">
        <ele>127</ele>
        <time>2014-10-07T09:32:46.393Z</time>
      </trkpt>
      <trkpt lat="48.67977" lon="2.51088">
        <ele>127</ele>
        <time>2014-10-07T09:32:46.593Z</time>
      </trkpt>
      <trkpt lat="48.67983" lon="2.51081">
        <ele>125</ele>
        <time>2014-10-07T09:32:51.593Z</time>
      </trkpt>
      <trkpt lat="48.67985" lon="2.5108">
        <ele>126</ele>
        <time>2014-10-07T09:32:52.635Z</time>
      </trkpt>
      <trkpt lat="48.67992" lon="2.51076">
        <ele>122</ele>
        <time>2014-10-07T09:33:01.461Z</time>
      </trkpt>
      <trkpt lat="48.67993" lon="2.51074">
        <ele>123</ele>
        <time>2014-10-07T09:33:01.591Z</time>
      </trkpt>
      <trkpt lat="48.67996" lon="2.51063">
        <ele>124</ele>
        <time>2014-10-07T09:33:08.638Z</time>
      </trkpt>
      <trkpt lat="48.67997" lon="2.51062">
        <ele>123</ele>
        <time>2014-10-07T09:33:09.634Z</time>
      </trkpt>
      <trkpt lat="48.68005" lon="2.51058">
        <ele>125</ele>
        <time>2014-10-07T09:33:14.641Z</time>
      </trkpt>
      <trkpt lat="48.68006" lon="2.51058">
        <ele>125</ele>
        <time>2014-10-07T09:33:15.640Z</time>
      </trkpt>
      <trkpt lat="48.68014" lon="2.51051">
        <ele>125</ele>
        <time>2014-10-07T09:33:21.604Z</time>
      </trkpt>
      <trkpt lat="48.68016" lon="2.51051">
        <ele>126</ele>
        <time>2014-10-07T09:33:22.633Z</time>
      </trkpt>
      <trkpt lat="48.68021" lon="2.5104">
        <ele>124</ele>
        <time>2014-10-07T09:33:29.643Z</time>
      </trkpt>
      <trkpt lat="48.68022" lon="2.51039">
        <ele>123</ele>
        <time>2014-10-07T09:33:30.648Z</time>
      </trkpt>
      <trkpt lat="48.68028" lon="2.51029">
        <ele>122</ele>
        <time>2014-10-07T09:33:37.648Z</time>
      </trkpt>
      <trkpt lat="48.68029" lon="2.51028">
        <ele>122</ele>
        <time>2014-10-07T09:33:38.693Z</time>
      </trkpt>
      <trkpt lat="48.68037" lon="2.51021">
        <ele>117</ele>
        <time>2014-10-07T09:33:46.496Z</time>
      </trkpt>
      <trkpt lat="48.68038" lon="2.51019">
        <ele>118</ele>
        <time>2014-10-07T09:33:46.612Z</time>
      </trkpt>
      <trkpt lat="48.68042" lon="2.51009">
        <ele>115</ele>
        <time>2014-10-07T09:33:56.596Z</time>
      </trkpt>
      <trkpt lat="48.68043" lon="2.51007">
        <ele>115</ele>
        <time>2014-10-07T09:33:57.635Z</time>
      </trkpt>
      <trkpt lat="48.68048" lon="2.50997">
        <ele>115</ele>
        <time>2014-10-07T09:34:02.636Z</time>
      </trkpt>
      <trkpt lat="48.68049" lon="2.50994">
        <ele>116</ele>
        <time>2014-10-07T09:34:03.635Z</time>
      </trkpt>
      <trkpt lat="48.68054" lon="2.50985">
        <ele>116</ele>
        <time>2014-10-07T09:34:10.617Z</time>
      </trkpt>
      <trkpt lat="48.68055" lon="2.50984">
        <ele>118</ele>
        <time>2014-10-07T09:34:11.649Z</time>
      </trkpt>
      <trkpt lat="48.68058" lon="2.50974">
        <ele>117</ele>
        <time>2014-10-07T09:34:16.774Z</time>
      </trkpt>
      <trkpt lat="48.68059" lon="2.50971">
        <ele>117</ele>
        <time>2014-10-07T09:34:17.631Z</time>
      </trkpt>
      <trkpt lat="48.68066" lon="2.50966">
        <ele>117</ele>
        <time>2014-10-07T09:34:23.635Z</time>
      </trkpt>
      <trkpt lat="48.68067" lon="2.50966">
        <ele>116</ele>
        <time>2014-10-07T09:34:24.597Z</time>
      </trkpt>
      <trkpt lat="48.68075" lon="2.50964">
        <ele>117</ele>
        <time>2014-10-07T09:34:31.347Z</time>
      </trkpt>
      <trkpt lat="48.68076" lon="2.50963">
        <ele>117</ele>
        <time>2014-10-07T09:34:31.646Z</time>
      </trkpt>
      <trkpt lat="48.68082" lon="2.50955">
        <ele>120</ele>
        <time>2014-10-07T09:34:36.612Z</time>
      </trkpt>
      <trkpt lat="48.68083" lon="2.50954">
        <ele>119</ele>
        <time>2014-10-07T09:34:37.632Z</time>
      </trkpt>
      <trkpt lat="48.68091" lon="2.50948">
        <ele>123</ele>
        <time>2014-10-07T09:34:46.435Z</time>
      </trkpt>
      <trkpt lat="48.68092" lon="2.50946">
        <ele>124</ele>
        <time>2014-10-07T09:34:46.593Z</time>
      </trkpt>
      <trkpt lat="48.68095" lon="2.50933">
        <ele>126</ele>
        <time>2014-10-07T09:34:53.646Z</time>
      </trkpt>
      <trkpt lat="48.68095" lon="2.50932">
        <ele>127</ele>
        <time>2014-10-07T09:34:54.648Z</time>
      </trkpt>
      <trkpt lat="48.68098" lon="2.50922">
        <ele>131</ele>
        <time>2014-10-07T09:34:59.598Z</time>
      </trkpt>
      <trkpt lat="48.68099" lon="2.50919">
        <ele>131</ele>
        <time>2014-10-07T09:35:00.640Z</time>
      </trkpt>
      <trkpt lat="48.68105" lon="2.50912">
        <ele>125</ele>
        <time>2014-10-07T09:35:03.636Z</time>
      </trkpt>
      <trkpt lat="48.68107" lon="2.50911">
        <ele>123</ele>
        <time>2014-10-07T09:35:04.636Z</time>
      </trkpt>
      <trkpt lat="48.68112" lon="2.50902">
        <ele>133</ele>
        <time>2014-10-07T09:35:12.629Z</time>
      </trkpt>
      <trkpt lat="48.68113" lon="2.50901">
        <ele>132</ele>
        <time>2014-10-07T09:35:13.633Z</time>
      </trkpt>
      <trkpt lat="48.68119" lon="2.50892">
        <ele>132</ele>
        <time>2014-10-07T09:35:21.387Z</time>
      </trkpt>
      <trkpt lat="48.6812" lon="2.5089">
        <ele>133</ele>
        <time>2014-10-07T09:35:21.600Z</time>
      </trkpt>
      <trkpt lat="48.68126" lon="2.50881">
        <ele>123</ele>
        <time>2014-10-07T09:35:29.637Z</time>
      </trkpt>
      <trkpt lat="48.68127" lon="2.5088">
        <ele>124</ele>
        <time>2014-10-07T09:35:30.645Z</time>
      </trkpt>
      <trkpt lat="48.68129" lon="2.50879">
        <ele>124</ele>
        <time>2014-10-07T09:35:36.413Z</time>
      </trkpt>
      <trkpt lat="48.68135" lon="2.50873">
        <ele>128</ele>
        <time>2014-10-07T09:35:39.631Z</time>
      </trkpt>
      <trkpt lat="48.68142" lon="2.50866">
        <ele>127</ele>
        <time>2014-10-07T09:35:46.469Z</time>
      </trkpt>
      <trkpt lat="48.68143" lon="2.50865">
        <ele>125</ele>
        <time>2014-10-07T09:35:46.592Z</time>
      </trkpt>
      <trkpt lat="48.6815" lon="2.50856">
        <ele>133</ele>
        <time>2014-10-07T09:35:53.636Z</time>
      </trkpt>
      <trkpt lat="48.68149" lon="2.50854">
        <ele>135</ele>
        <time>2014-10-07T09:35:54.637Z</time>
      </trkpt>
      <trkpt lat="48.68154" lon="2.50843">
        <ele>138</ele>
        <time>2014-10-07T09:36:07.640Z</time>
      </trkpt>
      <trkpt lat="48.68156" lon="2.50842">
        <ele>135</ele>
        <time>2014-10-07T09:36:08.633Z</time>
      </trkpt>
      <trkpt lat="48.68162" lon="2.50832">
        <ele>135</ele>
        <time>2014-10-07T09:36:12.638Z</time>
      </trkpt>
      <trkpt lat="48.68163" lon="2.50828">
        <ele>135</ele>
        <time>2014-10-07T09:36:13.632Z</time>
      </trkpt>
      <trkpt lat="48.68168" lon="2.50818">
        <ele>134</ele>
        <time>2014-10-07T09:36:18.636Z</time>
      </trkpt>
      <trkpt lat="48.6817" lon="2.50817">
        <ele>134</ele>
        <time>2014-10-07T09:36:19.632Z</time>
      </trkpt>
      <trkpt lat="48.68178" lon="2.50813">
        <ele>139</ele>
        <time>2014-10-07T09:36:26.597Z</time>
      </trkpt>
      <trkpt lat="48.68178" lon="2.50811">
        <ele>140</ele>
        <time>2014-10-07T09:36:27.648Z</time>
      </trkpt>
      <trkpt lat="48.68182" lon="2.508">
        <ele>139</ele>
        <time>2014-10-07T09:36:36.382Z</time>
      </trkpt>
      <trkpt lat="48.68183" lon="2.50798">
        <ele>142</ele>
        <time>2014-10-07T09:36:36.598Z</time>
      </trkpt>
      <trkpt lat="48.68189" lon="2.50789">
        <ele>141</ele>
        <time>2014-10-07T09:36:43.642Z</time>
      </trkpt>
      <trkpt lat="48.6819" lon="2.50787">
        <ele>142</ele>
        <time>2014-10-07T09:36:44.668Z</time>
      </trkpt>
      <trkpt lat="48.68195" lon="2.50777">
        <ele>146</ele>
        <time>2014-10-07T09:36:51.614Z</time>
      </trkpt>
      <trkpt lat="48.68195" lon="2.50776">
        <ele>146</ele>
        <time>2014-10-07T09:36:52.634Z</time>
      </trkpt>
      <trkpt lat="48.68203" lon="2.50772">
        <ele>136</ele>
        <time>2014-10-07T09:36:59.642Z</time>
      </trkpt>
      <trkpt lat="48.68204" lon="2.50771">
        <ele>136</ele>
        <time>2014-10-07T09:37:00.645Z</time>
      </trkpt>
      <trkpt lat="48.68211" lon="2.50766">
        <ele>137</ele>
        <time>2014-10-07T09:37:06.597Z</time>
      </trkpt>
      <trkpt lat="48.68213" lon="2.50763">
        <ele>136</ele>
        <time>2014-10-07T09:37:06.628Z</time>
      </trkpt>
      <trkpt lat="48.68217" lon="2.50756">
        <ele>131</ele>
        <time>2014-10-07T09:37:16.609Z</time>
      </trkpt>
      <trkpt lat="48.68221" lon="2.50755">
        <ele>131</ele>
        <time>2014-10-07T09:37:17.634Z</time>
      </trkpt>
      <trkpt lat="48.68228" lon="2.50748">
        <ele>132</ele>
        <time>2014-10-07T09:37:26.422Z</time>
      </trkpt>
      <trkpt lat="48.68229" lon="2.50746">
        <ele>133</ele>
        <time>2014-10-07T09:37:26.596Z</time>
      </trkpt>
      <trkpt lat="48.68236" lon="2.50742">
        <ele>128</ele>
        <time>2014-10-07T09:37:33.664Z</time>
      </trkpt>
      <trkpt lat="48.68237" lon="2.50741">
        <ele>128</ele>
        <time>2014-10-07T09:37:34.635Z</time>
      </trkpt>
      <trkpt lat="48.68243" lon="2.50732">
        <ele>129</ele>
        <time>2014-10-07T09:37:41.598Z</time>
      </trkpt>
      <trkpt lat="48.68244" lon="2.5073">
        <ele>129</ele>
        <time>2014-10-07T09:37:42.640Z</time>
      </trkpt>
      <trkpt lat="48.68249" lon="2.5072">
        <ele>130</ele>
        <time>2014-10-07T09:37:47.640Z</time>
      </trkpt>
      <trkpt lat="48.6825" lon="2.50719">
        <ele>129</ele>
        <time>2014-10-07T09:37:48.593Z</time>
      </trkpt>
      <trkpt lat="48.68257" lon="2.5071">
        <ele>126</ele>
        <time>2014-10-07T09:37:54.637Z</time>
      </trkpt>
      <trkpt lat="48.68258" lon="2.50708">
        <ele>126</ele>
        <time>2014-10-07T09:37:55.597Z</time>
      </trkpt>
      <trkpt lat="48.68264" lon="2.50699">
        <ele>127</ele>
        <time>2014-10-07T09:38:02.636Z</time>
      </trkpt>
      <trkpt lat="48.68265" lon="2.50698">
        <ele>127</ele>
        <time>2014-10-07T09:38:03.635Z</time>
      </trkpt>
      <trkpt lat="48.68271" lon="2.50692">
        <ele>125</ele>
        <time>2014-10-07T09:38:08.637Z</time>
      </trkpt>
      <trkpt lat="48.68273" lon="2.50691">
        <ele>125</ele>
        <time>2014-10-07T09:38:09.642Z</time>
      </trkpt>
      <trkpt lat="48.6828" lon="2.50684">
        <ele>128</ele>
        <time>2014-10-07T09:38:16.869Z</time>
      </trkpt>
      <trkpt lat="48.68281" lon="2.50683">
        <ele>129</ele>
        <time>2014-10-07T09:38:17.631Z</time>
      </trkpt>
      <trkpt lat="48.68287" lon="2.50674">
        <ele>131</ele>
        <time>2014-10-07T09:38:21.602Z</time>
      </trkpt>
      <trkpt lat="48.68289" lon="2.50671">
        <ele>132</ele>
        <time>2014-10-07T09:38:22.596Z</time>
      </trkpt>
      <trkpt lat="48.68295" lon="2.50663">
        <ele>129</ele>
        <time>2014-10-07T09:38:31.397Z</time>
      </trkpt>
      <trkpt lat="48.68295" lon="2.50661">
        <ele>129</ele>
        <time>2014-10-07T09:38:31.599Z</time>
      </trkpt>
      <trkpt lat="48.68301" lon="2.50652">
        <ele>131</ele>
        <time>2014-10-07T09:38:41.596Z</time>
      </trkpt>
      <trkpt lat="48.68303" lon="2.50652">
        <ele>130</ele>
        <time>2014-10-07T09:38:42.623Z</time>
      </trkpt>
      <trkpt lat="48.6831" lon="2.50645">
        <ele>131</ele>
        <time>2014-10-07T09:38:46.570Z</time>
      </trkpt>
      <trkpt lat="48.6831" lon="2.50642">
        <ele>132</ele>
        <time>2014-10-07T09:38:46.597Z</time>
      </trkpt>
      <trkpt lat="48.68311" lon="2.50629">
        <ele>132</ele>
        <time>2014-10-07T09:38:56.721Z</time>
      </trkpt>
      <trkpt lat="48.68311" lon="2.50628">
        <ele>134</ele>
        <time>2014-10-07T09:38:57.632Z</time>
      </trkpt>
      <trkpt lat="48.68313" lon="2.50617">
        <ele>132</ele>
        <time>2014-10-07T09:39:06.737Z</time>
      </trkpt>
      <trkpt lat="48.68314" lon="2.50615">
        <ele>131</ele>
        <time>2014-10-07T09:39:07.645Z</time>
      </trkpt>
      <trkpt lat="48.68321" lon="2.50607">
        <ele>129</ele>
        <time>2014-10-07T09:39:13.641Z</time>
      </trkpt>
      <trkpt lat="48.68321" lon="2.50606">
        <ele>130</ele>
        <time>2014-10-07T09:39:14.637Z</time>
      </trkpt>
      <trkpt lat="48.68329" lon="2.50599">
        <ele>127</ele>
        <time>2014-10-07T09:39:21.608Z</time>
      </trkpt>
      <trkpt lat="48.6833" lon="2.50598">
        <ele>128</ele>
        <time>2014-10-07T09:39:22.597Z</time>
      </trkpt>
      <trkpt lat="48.68338" lon="2.50596">
        <ele>126</ele>
        <time>2014-10-07T09:39:27.640Z</time>
      </trkpt>
      <trkpt lat="48.68339" lon="2.50594">
        <ele>125</ele>
        <time>2014-10-07T09:39:28.638Z</time>
      </trkpt>
      <trkpt lat="48.68341" lon="2.50581">
        <ele>128</ele>
        <time>2014-10-07T09:39:36.415Z</time>
      </trkpt>
      <trkpt lat="48.68342" lon="2.5058">
        <ele>128</ele>
        <time>2014-10-07T09:39:36.598Z</time>
      </trkpt>
      <trkpt lat="48.68348" lon="2.50573">
        <ele>129</ele>
        <time>2014-10-07T09:39:42.643Z</time>
      </trkpt>
      <trkpt lat="48.6835" lon="2.50573">
        <ele>128</ele>
        <time>2014-10-07T09:39:43.598Z</time>
      </trkpt>
      <trkpt lat="48.68357" lon="2.50566">
        <ele>131</ele>
        <time>2014-10-07T09:39:49.635Z</time>
      </trkpt>
      <trkpt lat="48.68358" lon="2.50565">
        <ele>133</ele>
        <time>2014-10-07T09:39:50.591Z</time>
      </trkpt>
      <trkpt lat="48.68365" lon="2.50557">
        <ele>129</ele>
        <time>2014-10-07T09:39:57.600Z</time>
      </trkpt>
      <trkpt lat="48.68365" lon="2.50556">
        <ele>130</ele>
        <time>2014-10-07T09:39:58.642Z</time>
      </trkpt>
      <trkpt lat="48.68372" lon="2.5055">
        <ele>136</ele>
        <time>2014-10-07T09:40:05.596Z</time>
      </trkpt>
      <trkpt lat="48.68373" lon="2.5055">
        <ele>136</ele>
        <time>2014-10-07T09:40:06.645Z</time>
      </trkpt>
      <trkpt lat="48.68381" lon="2.50549">
        <ele>131</ele>
        <time>2014-10-07T09:40:12.642Z</time>
      </trkpt>
      <trkpt lat="48.68382" lon="2.50547">
        <ele>132</ele>
        <time>2014-10-07T09:40:13.642Z</time>
      </trkpt>
      <trkpt lat="48.68388" lon="2.50537">
        <ele>130</ele>
        <time>2014-10-07T09:40:19.642Z</time>
      </trkpt>
      <trkpt lat="48.68389" lon="2.50537">
        <ele>131</ele>
        <time>2014-10-07T09:40:20.643Z</time>
      </trkpt>
      <trkpt lat="48.68396" lon="2.50531">
        <ele>133</ele>
        <time>2014-10-07T09:40:26.605Z</time>
      </trkpt>
      <trkpt lat="48.68397" lon="2.5053">
        <ele>133</ele>
        <time>2014-10-07T09:40:27.635Z</time>
      </trkpt>
      <trkpt lat="48.68403" lon="2.50523">
        <ele>130</ele>
        <time>2014-10-07T09:40:36.444Z</time>
      </trkpt>
      <trkpt lat="48.68409" lon="2.50511">
        <ele>135</ele>
        <time>2014-10-07T09:40:40.637Z</time>
      </trkpt>
      <trkpt lat="48.68411" lon="2.50501">
        <ele>132</ele>
        <time>2014-10-07T09:40:56.592Z</time>
      </trkpt>
      <trkpt lat="48.68412" lon="2.50498">
        <ele>131</ele>
        <time>2014-10-07T09:40:56.637Z</time>
      </trkpt>
      <trkpt lat="48.68417" lon="2.5049">
        <ele>129</ele>
        <time>2014-10-07T09:41:00.645Z</time>
      </trkpt>
      <trkpt lat="48.68418" lon="2.50487">
        <ele>129</ele>
        <time>2014-10-07T09:41:01.674Z</time>
      </trkpt>
      <trkpt lat="48.6842" lon="2.50474">
        <ele>128</ele>
        <time>2014-10-07T09:41:06.663Z</time>
      </trkpt>
      <trkpt lat="48.6842" lon="2.50471">
        <ele>127</ele>
        <time>2014-10-07T09:41:06.708Z</time>
      </trkpt>
      <trkpt lat="48.68428" lon="2.50468">
        <ele>134</ele>
        <time>2014-10-07T09:41:13.637Z</time>
      </trkpt>
      <trkpt lat="48.68429" lon="2.50469">
        <ele>134</ele>
        <time>2014-10-07T09:41:14.635Z</time>
      </trkpt>
      <trkpt lat="48.68436" lon="2.50464">
        <ele>140</ele>
        <time>2014-10-07T09:42:26.595Z</time>
      </trkpt>
      <trkpt lat="48.68437" lon="2.50463">
        <ele>139</ele>
        <time>2014-10-07T09:42:27.644Z</time>
      </trkpt>
      <trkpt lat="48.68444" lon="2.50455">
        <ele>139</ele>
        <time>2014-10-07T09:42:34.631Z</time>
      </trkpt>
      <trkpt lat="48.68445" lon="2.50453">
        <ele>138</ele>
        <time>2014-10-07T09:42:35.633Z</time>
      </trkpt>
      <trkpt lat="48.6845" lon="2.50444">
        <ele>136</ele>
        <time>2014-10-07T09:44:44.590Z</time>
      </trkpt>
      <trkpt lat="48.68452" lon="2.50442">
        <ele>136</ele>
        <time>2014-10-07T09:44:45.610Z</time>
      </trkpt>
      <trkpt lat="48.68458" lon="2.50433">
        <ele>132</ele>
        <time>2014-10-07T09:45:16.553Z</time>
      </trkpt>
      <trkpt lat="48.68459" lon="2.5043">
        <ele>129</ele>
        <time>2014-10-07T09:45:16.631Z</time>
      </trkpt>
      <trkpt lat="48.68466" lon="2.50421">
        <ele>131</ele>
        <time>2014-10-07T09:45:19.643Z</time>
      </trkpt>
      <trkpt lat="48.68468" lon="2.50419">
        <ele>132</ele>
        <time>2014-10-07T09:45:20.644Z</time>
      </trkpt>
      <trkpt lat="48.68473" lon="2.50411">
        <ele>133</ele>
        <time>2014-10-07T09:45:23.796Z</time>
      </trkpt>
      <trkpt lat="48.68475" lon="2.50408">
        <ele>133</ele>
        <time>2014-10-07T09:45:24.642Z</time>
      </trkpt>
      <trkpt lat="48.68481" lon="2.50402">
        <ele>131</ele>
        <time>2014-10-07T09:45:27.637Z</time>
      </trkpt>
      <trkpt lat="48.68483" lon="2.504">
        <ele>130</ele>
        <time>2014-10-07T09:45:28.591Z</time>
      </trkpt>
      <trkpt lat="48.68489" lon="2.50391">
        <ele>132</ele>
        <time>2014-10-07T09:45:32.595Z</time>
      </trkpt>
      <trkpt lat="48.6849" lon="2.50388">
        <ele>131</ele>
        <time>2014-10-07T09:45:33.593Z</time>
      </trkpt>
      <trkpt lat="48.6849" lon="2.50388">
        <ele>131</ele>
        <time>2014-10-07T09:45:40.490Z</time>
      </trkpt>
      <trkpt lat="48.68498" lon="2.50374">
        <ele>129</ele>
        <time>2014-10-07T09:45:40.592Z</time>
      </trkpt>
      <trkpt lat="48.68505" lon="2.50367">
        <ele>134</ele>
        <time>2014-10-07T09:45:53.625Z</time>
      </trkpt>
      <trkpt lat="48.68506" lon="2.50367">
        <ele>134</ele>
        <time>2014-10-07T09:45:54.599Z</time>
      </trkpt>
      <trkpt lat="48.68511" lon="2.50356">
        <ele>137</ele>
        <time>2014-10-07T09:45:59.643Z</time>
      </trkpt>
      <trkpt lat="48.68512" lon="2.50355">
        <ele>137</ele>
        <time>2014-10-07T09:46:00.610Z</time>
      </trkpt>
      <trkpt lat="48.68518" lon="2.50345">
        <ele>139</ele>
        <time>2014-10-07T09:46:16.636Z</time>
      </trkpt>
      <trkpt lat="48.68518" lon="2.50343">
        <ele>142</ele>
        <time>2014-10-07T09:46:17.640Z</time>
      </trkpt>
      <trkpt lat="48.68518" lon="2.50331">
        <ele>140</ele>
        <time>2014-10-07T09:47:05.644Z</time>
      </trkpt>
      <trkpt lat="48.68517" lon="2.50329">
        <ele>139</ele>
        <time>2014-10-07T09:47:06.633Z</time>
      </trkpt>
      <trkpt lat="48.6851" lon="2.50321">
        <ele>141</ele>
        <time>2014-10-07T09:47:15.627Z</time>
      </trkpt>
      <trkpt lat="48.68509" lon="2.5032">
        <ele>141</ele>
        <time>2014-10-07T09:47:16.644Z</time>
      </trkpt>
      <trkpt lat="48.68507" lon="2.50307">
        <ele>140</ele>
        <time>2014-10-07T09:47:23.818Z</time>
      </trkpt>
      <trkpt lat="48.68508" lon="2.50306">
        <ele>139</ele>
        <time>2014-10-07T09:47:24.643Z</time>
      </trkpt>
      <trkpt lat="48.68516" lon="2.50306">
        <ele>134</ele>
        <time>2014-10-07T09:47:34.633Z</time>
      </trkpt>
      <trkpt lat="48.68517" lon="2.50306">
        <ele>134</ele>
        <time>2014-10-07T09:47:35.644Z</time>
      </trkpt>
      <trkpt lat="48.68525" lon="2.50301">
        <ele>132</ele>
        <time>2014-10-07T09:47:45.643Z</time>
      </trkpt>
      <trkpt lat="48.68526" lon="2.50301">
        <ele>132</ele>
        <time>2014-10-07T09:47:46.639Z</time>
      </trkpt>
      <trkpt lat="48.68531" lon="2.50291">
        <ele>134</ele>
        <time>2014-10-07T09:47:54.364Z</time>
      </trkpt>
      <trkpt lat="48.68532" lon="2.50289">
        <ele>135</ele>
        <time>2014-10-07T09:47:54.598Z</time>
      </trkpt>
      <trkpt lat="48.68539" lon="2.50281">
        <ele>134</ele>
        <time>2014-10-07T09:48:00.640Z</time>
      </trkpt>
      <trkpt lat="48.68539" lon="2.5028">
        <ele>133</ele>
        <time>2014-10-07T09:48:01.637Z</time>
      </trkpt>
      <trkpt lat="48.68545" lon="2.50271">
        <ele>134</ele>
        <time>2014-10-07T09:48:07.591Z</time>
      </trkpt>
      <trkpt lat="48.68546" lon="2.5027">
        <ele>134</ele>
        <time>2014-10-07T09:48:08.592Z</time>
      </trkpt>
      <trkpt lat="48.68552" lon="2.50263">
        <ele>132</ele>
        <time>2014-10-07T09:48:16.971Z</time>
      </trkpt>
      <trkpt lat="48.68553" lon="2.50261">
        <ele>132</ele>
        <time>2014-10-07T09:48:17.595Z</time>
      </trkpt>
      <trkpt lat="48.68558" lon="2.50252">
        <ele>132</ele>
        <time>2014-10-07T09:48:23.789Z</time>
      </trkpt>
      <trkpt lat="48.68559" lon="2.5025">
        <ele>132</ele>
        <time>2014-10-07T09:48:24.665Z</time>
      </trkpt>
      <trkpt lat="48.68564" lon="2.5024">
        <ele>133</ele>
        <time>2014-10-07T09:48:30.642Z</time>
      </trkpt>
      <trkpt lat="48.68565" lon="2.5024">
        <ele>134</ele>
        <time>2014-10-07T09:48:31.642Z</time>
      </trkpt>
      <trkpt lat="48.68572" lon="2.50233">
        <ele>137</ele>
        <time>2014-10-07T09:48:38.830Z</time>
      </trkpt>
      <trkpt lat="48.68573" lon="2.50233">
        <ele>136</ele>
        <time>2014-10-07T09:48:39.599Z</time>
      </trkpt>
      <trkpt lat="48.68579" lon="2.50224">
        <ele>136</ele>
        <time>2014-10-07T09:48:51.632Z</time>
      </trkpt>
      <trkpt lat="48.6858" lon="2.50223">
        <ele>136</ele>
        <time>2014-10-07T09:48:52.625Z</time>
      </trkpt>
      <trkpt lat="48.68586" lon="2.50216">
        <ele>137</ele>
        <time>2014-10-07T09:48:57.655Z</time>
      </trkpt>
      <trkpt lat="48.68587" lon="2.50215">
        <ele>137</ele>
        <time>2014-10-07T09:48:58.637Z</time>
      </trkpt>
      <trkpt lat="48.68595" lon="2.50209">
        <ele>134</ele>
        <time>2014-10-07T09:49:09.601Z</time>
      </trkpt>
      <trkpt lat="48.68596" lon="2.50207">
        <ele>135</ele>
        <time>2014-10-07T09:49:10.623Z</time>
      </trkpt>
      <trkpt lat="48.68602" lon="2.50199">
        <ele>136</ele>
        <time>2014-10-07T09:49:16.594Z</time>
      </trkpt>
      <trkpt lat="48.68603" lon="2.50198">
        <ele>135</ele>
        <time>2014-10-07T09:49:17.592Z</time>
      </trkpt>
      <trkpt lat="48.6861" lon="2.50193">
        <ele>136</ele>
        <time>2014-10-07T09:49:24.643Z</time>
      </trkpt>
      <trkpt lat="48.68611" lon="2.50192">
        <ele>136</ele>
        <time>2014-10-07T09:49:25.596Z</time>
      </trkpt>
      <trkpt lat="48.68618" lon="2.50185">
        <ele>133</ele>
        <time>2014-10-07T09:49:35.615Z</time>
      </trkpt>
      <trkpt lat="48.68619" lon="2.50184">
        <ele>132</ele>
        <time>2014-10-07T09:49:36.645Z</time>
      </trkpt>
      <trkpt lat="48.68624" lon="2.50174">
        <ele>133</ele>
        <time>2014-10-07T09:49:42.649Z</time>
      </trkpt>
      <trkpt lat="48.68625" lon="2.50173">
        <ele>135</ele>
        <time>2014-10-07T09:49:43.592Z</time>
      </trkpt>
      <trkpt lat="48.68631" lon="2.50165">
        <ele>135</ele>
        <time>2014-10-07T09:49:50.362Z</time>
      </trkpt>
      <trkpt lat="48.68632" lon="2.50163">
        <ele>134</ele>
        <time>2014-10-07T09:49:50.680Z</time>
      </trkpt>
      <trkpt lat="48.68638" lon="2.50154">
        <ele>136</ele>
        <time>2014-10-07T09:49:56.639Z</time>
      </trkpt>
      <trkpt lat="48.68639" lon="2.50152">
        <ele>136</ele>
        <time>2014-10-07T09:49:57.595Z</time>
      </trkpt>
      <trkpt lat="48.68639" lon="2.50139">
        <ele>133</ele>
        <time>2014-10-07T09:50:13.081Z</time>
      </trkpt>
      <trkpt lat="48.68638" lon="2.50137">
        <ele>134</ele>
        <time>2014-10-07T09:50:13.598Z</time>
      </trkpt>
      <trkpt lat="48.68636" lon="2.50124">
        <ele>133</ele>
        <time>2014-10-07T09:50:22.635Z</time>
      </trkpt>
      <trkpt lat="48.68636" lon="2.50123">
        <ele>134</ele>
        <time>2014-10-07T09:50:23.591Z</time>
      </trkpt>
      <trkpt lat="48.68633" lon="2.50111">
        <ele>134</ele>
        <time>2014-10-07T09:50:30.644Z</time>
      </trkpt>
      <trkpt lat="48.68633" lon="2.50109">
        <ele>135</ele>
        <time>2014-10-07T09:50:31.598Z</time>
      </trkpt>
      <trkpt lat="48.68627" lon="2.501">
        <ele>135</ele>
        <time>2014-10-07T09:50:38.827Z</time>
      </trkpt>
      <trkpt lat="48.68626" lon="2.50099">
        <ele>134</ele>
        <time>2014-10-07T09:50:39.656Z</time>
      </trkpt>
      <trkpt lat="48.68621" lon="2.50089">
        <ele>132</ele>
        <time>2014-10-07T09:50:46.597Z</time>
      </trkpt>
      <trkpt lat="48.6862" lon="2.50088">
        <ele>133</ele>
        <time>2014-10-07T09:50:47.593Z</time>
      </trkpt>
      <trkpt lat="48.68614" lon="2.50078">
        <ele>131</ele>
        <time>2014-10-07T09:50:55.590Z</time>
      </trkpt>
      <trkpt lat="48.68614" lon="2.50077">
        <ele>130</ele>
        <time>2014-10-07T09:50:56.589Z</time>
      </trkpt>
      <trkpt lat="48.68611" lon="2.50065">
        <ele>129</ele>
        <time>2014-10-07T09:51:01.610Z</time>
      </trkpt>
      <trkpt lat="48.6861" lon="2.50063">
        <ele>130</ele>
        <time>2014-10-07T09:51:02.631Z</time>
      </trkpt>
      <trkpt lat="48.68606" lon="2.50053">
        <ele>130</ele>
        <time>2014-10-07T09:51:07.752Z</time>
      </trkpt>
      <trkpt lat="48.68605" lon="2.50052">
        <ele>132</ele>
        <time>2014-10-07T09:51:08.637Z</time>
      </trkpt>
      <trkpt lat="48.68598" lon="2.50044">
        <ele>132</ele>
        <time>2014-10-07T09:51:15.642Z</time>
      </trkpt>
      <trkpt lat="48.68597" lon="2.50043">
        <ele>131</ele>
        <time>2014-10-07T09:51:16.642Z</time>
      </trkpt>
      <trkpt lat="48.68593" lon="2.50033">
        <ele>128</ele>
        <time>2014-10-07T09:51:22.643Z</time>
      </trkpt>
      <trkpt lat="48.68592" lon="2.50032">
        <ele>127</ele>
        <time>2014-10-07T09:51:23.646Z</time>
      </trkpt>
      <trkpt lat="48.68588" lon="2.5002">
        <ele>128</ele>
        <time>2014-10-07T09:51:34.591Z</time>
      </trkpt>
      <trkpt lat="48.68588" lon="2.50019">
        <ele>128</ele>
        <time>2014-10-07T09:51:35.640Z</time>
      </trkpt>
      <trkpt lat="48.68583" lon="2.50008">
        <ele>129</ele>
        <time>2014-10-07T09:51:41.604Z</time>
      </trkpt>
      <trkpt lat="48.68581" lon="2.50006">
        <ele>131</ele>
        <time>2014-10-07T09:51:42.638Z</time>
      </trkpt>
      <trkpt lat="48.68573" lon="2.50005">
        <ele>135</ele>
        <time>2014-10-07T09:51:47.634Z</time>
      </trkpt>
      <trkpt lat="48.68572" lon="2.50004">
        <ele>138</ele>
        <time>2014-10-07T09:51:48.639Z</time>
      </trkpt>
      <trkpt lat="48.68565" lon="2.49996">
        <ele>139</ele>
        <time>2014-10-07T09:51:54.641Z</time>
      </trkpt>
      <trkpt lat="48.68564" lon="2.49995">
        <ele>141</ele>
        <time>2014-10-07T09:51:55.672Z</time>
      </trkpt>
      <trkpt lat="48.6856" lon="2.49984">
        <ele>132</ele>
        <time>2014-10-07T09:52:04.190Z</time>
      </trkpt>
      <trkpt lat="48.6856" lon="2.49983">
        <ele>132</ele>
        <time>2014-10-07T09:52:04.593Z</time>
      </trkpt>
      <trkpt lat="48.68555" lon="2.49972">
        <ele>139</ele>
        <time>2014-10-07T09:52:12.645Z</time>
      </trkpt>
      <trkpt lat="48.68554" lon="2.49971">
        <ele>138</ele>
        <time>2014-10-07T09:52:13.611Z</time>
      </trkpt>
      <trkpt lat="48.6856" lon="2.49963">
        <ele>137</ele>
        <time>2014-10-07T09:52:28.841Z</time>
      </trkpt>
      <trkpt lat="48.68562" lon="2.49963">
        <ele>137</ele>
        <time>2014-10-07T09:52:29.656Z</time>
      </trkpt>
      <trkpt lat="48.6857" lon="2.49964">
        <ele>137</ele>
        <time>2014-10-07T09:52:36.599Z</time>
      </trkpt>
      <trkpt lat="48.68571" lon="2.49964">
        <ele>139</ele>
        <time>2014-10-07T09:52:37.599Z</time>
      </trkpt>
      <trkpt lat="48.68579" lon="2.49963">
        <ele>138</ele>
        <time>2014-10-07T09:52:43.643Z</time>
      </trkpt>
      <trkpt lat="48.68581" lon="2.49963">
        <ele>137</ele>
        <time>2014-10-07T09:52:44.634Z</time>
      </trkpt>
      <trkpt lat="48.68589" lon="2.49961">
        <ele>136</ele>
        <time>2014-10-07T09:52:52.852Z</time>
      </trkpt>
      <trkpt lat="48.6859" lon="2.49961">
        <ele>136</ele>
        <time>2014-10-07T09:52:53.643Z</time>
      </trkpt>
      <trkpt lat="48.68599" lon="2.49961">
        <ele>134</ele>
        <time>2014-10-07T09:53:01.649Z</time>
      </trkpt>
      <trkpt lat="48.686" lon="2.49962">
        <ele>136</ele>
        <time>2014-10-07T09:53:02.645Z</time>
      </trkpt>
      <trkpt lat="48.68607" lon="2.49964">
        <ele>131</ele>
        <time>2014-10-07T09:53:09.641Z</time>
      </trkpt>
      <trkpt lat="48.68608" lon="2.49964">
        <ele>131</ele>
        <time>2014-10-07T09:53:10.644Z</time>
      </trkpt>
      <trkpt lat="48.68617" lon="2.49965">
        <ele>130</ele>
        <time>2014-10-07T09:53:17.644Z</time>
      </trkpt>
      <trkpt lat="48.68618" lon="2.49965">
        <ele>129</ele>
        <time>2014-10-07T09:53:18.643Z</time>
      </trkpt>
      <trkpt lat="48.68627" lon="2.49966">
        <ele>128</ele>
        <time>2014-10-07T09:53:25.644Z</time>
      </trkpt>
      <trkpt lat="48.68627" lon="2.49966">
        <ele>127</ele>
        <time>2014-10-07T09:53:26.609Z</time>
      </trkpt>
      <trkpt lat="48.68635" lon="2.49961">
        <ele>133</ele>
        <time>2014-10-07T09:53:32.644Z</time>
      </trkpt>
      <trkpt lat="48.68636" lon="2.4996">
        <ele>134</ele>
        <time>2014-10-07T09:53:33.676Z</time>
      </trkpt>
      <trkpt lat="48.68644" lon="2.49954">
        <ele>135</ele>
        <time>2014-10-07T09:53:39.640Z</time>
      </trkpt>
      <trkpt lat="48.68645" lon="2.49956">
        <ele>134</ele>
        <time>2014-10-07T09:53:40.669Z</time>
      </trkpt>
      <trkpt lat="48.68653" lon="2.49957">
        <ele>137</ele>
        <time>2014-10-07T09:53:46.645Z</time>
      </trkpt>
      <trkpt lat="48.68654" lon="2.49958">
        <ele>137</ele>
        <time>2014-10-07T09:53:47.675Z</time>
      </trkpt>
      <trkpt lat="48.68663" lon="2.49958">
        <ele>138</ele>
        <time>2014-10-07T09:53:54.105Z</time>
      </trkpt>
      <trkpt lat="48.68664" lon="2.49957">
        <ele>138</ele>
        <time>2014-10-07T09:53:54.697Z</time>
      </trkpt>
      <trkpt lat="48.68673" lon="2.49958">
        <ele>132</ele>
        <time>2014-10-07T09:54:03.593Z</time>
      </trkpt>
      <trkpt lat="48.68674" lon="2.49958">
        <ele>133</ele>
        <time>2014-10-07T09:54:04.596Z</time>
      </trkpt>
      <trkpt lat="48.68682" lon="2.49963">
        <ele>131</ele>
        <time>2014-10-07T09:54:10.591Z</time>
      </trkpt>
      <trkpt lat="48.68683" lon="2.49964">
        <ele>130</ele>
        <time>2014-10-07T09:54:11.595Z</time>
      </trkpt>
      <trkpt lat="48.68691" lon="2.4996">
        <ele>128</ele>
        <time>2014-10-07T09:54:20.629Z</time>
      </trkpt>
      <trkpt lat="48.68692" lon="2.4996">
        <ele>128</ele>
        <time>2014-10-07T09:54:21.639Z</time>
      </trkpt>
      <trkpt lat="48.68699" lon="2.49954">
        <ele>127</ele>
        <time>2014-10-07T09:54:28.804Z</time>
      </trkpt>
      <trkpt lat="48.687" lon="2.49953">
        <ele>127</ele>
        <time>2014-10-07T09:54:29.705Z</time>
      </trkpt>
      <trkpt lat="48.68698" lon="2.4994">
        <ele>135</ele>
        <time>2014-10-07T09:54:41.612Z</time>
      </trkpt>
      <trkpt lat="48.68697" lon="2.49938">
        <ele>135</ele>
        <time>2014-10-07T09:54:42.641Z</time>
      </trkpt>
      <trkpt lat="48.68692" lon="2.4993">
        <ele>136</ele>
        <time>2014-10-07T09:54:49.305Z</time>
      </trkpt>
      <trkpt lat="48.68691" lon="2.49928">
        <ele>135</ele>
        <time>2014-10-07T09:54:49.589Z</time>
      </trkpt>
      <trkpt lat="48.68687" lon="2.49917">
        <ele>130</ele>
        <time>2014-10-07T09:54:59.950Z</time>
      </trkpt>
      <trkpt lat="48.68687" lon="2.49915">
        <ele>130</ele>
        <time>2014-10-07T09:55:00.638Z</time>
      </trkpt>
      <trkpt lat="48.68682" lon="2.49905">
        <ele>128</ele>
        <time>2014-10-07T09:55:10.638Z</time>
      </trkpt>
      <trkpt lat="48.68681" lon="2.49903">
        <ele>128</ele>
        <time>2014-10-07T09:55:11.639Z</time>
      </trkpt>
      <trkpt lat="48.68685" lon="2.49892">
        <ele>129</ele>
        <time>2014-10-07T09:55:18.645Z</time>
      </trkpt>
      <trkpt lat="48.68686" lon="2.4989">
        <ele>131</ele>
        <time>2014-10-07T09:55:19.644Z</time>
      </trkpt>
      <trkpt lat="48.68689" lon="2.49878">
        <ele>131</ele>
        <time>2014-10-07T09:55:26.643Z</time>
      </trkpt>
      <trkpt lat="48.68689" lon="2.49876">
        <ele>130</ele>
        <time>2014-10-07T09:55:27.597Z</time>
      </trkpt>
      <trkpt lat="48.68692" lon="2.49864">
        <ele>131</ele>
        <time>2014-10-07T09:55:46.641Z</time>
      </trkpt>
      <trkpt lat="48.68692" lon="2.49862">
        <ele>131</ele>
        <time>2014-10-07T09:55:47.594Z</time>
      </trkpt>
      <trkpt lat="48.68697" lon="2.49852">
        <ele>129</ele>
        <time>2014-10-07T09:55:54.641Z</time>
      </trkpt>
      <trkpt lat="48.68698" lon="2.4985">
        <ele>127</ele>
        <time>2014-10-07T09:55:55.669Z</time>
      </trkpt>
      <trkpt lat="48.687" lon="2.49841">
        <ele>131</ele>
        <time>2014-10-07T09:55:59.600Z</time>
      </trkpt>
      <trkpt lat="48.68701" lon="2.49836">
        <ele>133</ele>
        <time>2014-10-07T09:56:00.638Z</time>
      </trkpt>
      <trkpt lat="48.68703" lon="2.49824">
        <ele>127</ele>
        <time>2014-10-07T09:56:11.598Z</time>
      </trkpt>
      <trkpt lat="48.68703" lon="2.49822">
        <ele>127</ele>
        <time>2014-10-07T09:56:12.598Z</time>
      </trkpt>
      <trkpt lat="48.68708" lon="2.49813">
        <ele>125</ele>
        <time>2014-10-07T09:56:16.597Z</time>
      </trkpt>
      <trkpt lat="48.68709" lon="2.49811">
        <ele>126</ele>
        <time>2014-10-07T09:56:17.642Z</time>
      </trkpt>
      <trkpt lat="48.68716" lon="2.49804">
        <ele>132</ele>
        <time>2014-10-07T09:56:21.640Z</time>
      </trkpt>
      <trkpt lat="48.68718" lon="2.49803">
        <ele>131</ele>
        <time>2014-10-07T09:56:22.635Z</time>
      </trkpt>
      <trkpt lat="48.68724" lon="2.49794">
        <ele>138</ele>
        <time>2014-10-07T09:56:27.571Z</time>
      </trkpt>
      <trkpt lat="48.68726" lon="2.49793">
        <ele>136</ele>
        <time>2014-10-07T09:56:27.613Z</time>
      </trkpt>
      <trkpt lat="48.68732" lon="2.49786">
        <ele>136</ele>
        <time>2014-10-07T09:56:35.637Z</time>
      </trkpt>
      <trkpt lat="48.68733" lon="2.49784">
        <ele>135</ele>
        <time>2014-10-07T09:56:36.612Z</time>
      </trkpt>
      <trkpt lat="48.68738" lon="2.49775">
        <ele>136</ele>
        <time>2014-10-07T09:56:42.596Z</time>
      </trkpt>
      <trkpt lat="48.68739" lon="2.49774">
        <ele>134</ele>
        <time>2014-10-07T09:56:43.638Z</time>
      </trkpt>
      <trkpt lat="48.68745" lon="2.49764">
        <ele>137</ele>
        <time>2014-10-07T09:56:50.628Z</time>
      </trkpt>
      <trkpt lat="48.68747" lon="2.49762">
        <ele>138</ele>
        <time>2014-10-07T09:56:51.645Z</time>
      </trkpt>
      <trkpt lat="48.68752" lon="2.49753">
        <ele>140</ele>
        <time>2014-10-07T09:56:55.634Z</time>
      </trkpt>
      <trkpt lat="48.68754" lon="2.49751">
        <ele>139</ele>
        <time>2014-10-07T09:56:56.599Z</time>
      </trkpt>
      <trkpt lat="48.68759" lon="2.49743">
        <ele>142</ele>
        <time>2014-10-07T09:56:59.642Z</time>
      </trkpt>
      <trkpt lat="48.6876" lon="2.4974">
        <ele>142</ele>
        <time>2014-10-07T09:57:00.594Z</time>
      </trkpt>
      <trkpt lat="48.68769" lon="2.49738">
        <ele>135</ele>
        <time>2014-10-07T09:57:10.945Z</time>
      </trkpt>
      <trkpt lat="48.6877" lon="2.49738">
        <ele>136</ele>
        <time>2014-10-07T09:57:11.648Z</time>
      </trkpt>
      <trkpt lat="48.68778" lon="2.49734">
        <ele>139</ele>
        <time>2014-10-07T09:57:22.639Z</time>
      </trkpt>
      <trkpt lat="48.68779" lon="2.49732">
        <ele>139</ele>
        <time>2014-10-07T09:57:23.643Z</time>
      </trkpt>
      <trkpt lat="48.68784" lon="2.49721">
        <ele>138</ele>
        <time>2014-10-07T09:57:29.635Z</time>
      </trkpt>
      <trkpt lat="48.68785" lon="2.49719">
        <ele>137</ele>
        <time>2014-10-07T09:57:30.590Z</time>
      </trkpt>
      <trkpt lat="48.68791" lon="2.49711">
        <ele>140</ele>
        <time>2014-10-07T09:57:37.590Z</time>
      </trkpt>
      <trkpt lat="48.68793" lon="2.49711">
        <ele>139</ele>
        <time>2014-10-07T09:57:38.597Z</time>
      </trkpt>
      <trkpt lat="48.68799" lon="2.49703">
        <ele>138</ele>
        <time>2014-10-07T09:57:43.641Z</time>
      </trkpt>
      <trkpt lat="48.688" lon="2.49701">
        <ele>140</ele>
        <time>2014-10-07T09:57:44.658Z</time>
      </trkpt>
      <trkpt lat="48.68806" lon="2.49695">
        <ele>142</ele>
        <time>2014-10-07T09:57:49.600Z</time>
      </trkpt>
      <trkpt lat="48.68808" lon="2.49694">
        <ele>144</ele>
        <time>2014-10-07T09:57:50.628Z</time>
      </trkpt>
      <trkpt lat="48.68814" lon="2.49685">
        <ele>142</ele>
        <time>2014-10-07T09:57:56.631Z</time>
      </trkpt>
      <trkpt lat="48.68814" lon="2.49684">
        <ele>141</ele>
        <time>2014-10-07T09:57:57.609Z</time>
      </trkpt>
      <trkpt lat="48.68819" lon="2.49672">
        <ele>138</ele>
        <time>2014-10-07T09:58:06.600Z</time>
      </trkpt>
      <trkpt lat="48.6882" lon="2.4967">
        <ele>139</ele>
        <time>2014-10-07T09:58:07.598Z</time>
      </trkpt>
      <trkpt lat="48.68824" lon="2.49661">
        <ele>142</ele>
        <time>2014-10-07T09:58:12.645Z</time>
      </trkpt>
      <trkpt lat="48.68825" lon="2.49658">
        <ele>142</ele>
        <time>2014-10-07T09:58:13.598Z</time>
      </trkpt>
      <trkpt lat="48.68831" lon="2.49649">
        <ele>142</ele>
        <time>2014-10-07T09:58:18.860Z</time>
      </trkpt>
      <trkpt lat="48.68831" lon="2.49647">
        <ele>141</ele>
        <time>2014-10-07T09:58:19.591Z</time>
      </trkpt>
      <trkpt lat="48.68838" lon="2.49638">
        <ele>140</ele>
        <time>2014-10-07T09:58:27.591Z</time>
      </trkpt>
      <trkpt lat="48.68839" lon="2.49637">
        <ele>140</ele>
        <time>2014-10-07T09:58:28.593Z</time>
      </trkpt>
      <trkpt lat="48.68846" lon="2.49631">
        <ele>138</ele>
        <time>2014-10-07T09:58:36.633Z</time>
      </trkpt>
      <trkpt lat="48.68847" lon="2.4963">
        <ele>138</ele>
        <time>2014-10-07T09:58:37.639Z</time>
      </trkpt>
      <trkpt lat="48.68853" lon="2.49621">
        <ele>139</ele>
        <time>2014-10-07T09:58:44.595Z</time>
      </trkpt>
      <trkpt lat="48.68854" lon="2.4962">
        <ele>140</ele>
        <time>2014-10-07T09:58:45.639Z</time>
      </trkpt>
      <trkpt lat="48.68861" lon="2.49611">
        <ele>141</ele>
        <time>2014-10-07T09:58:51.639Z</time>
      </trkpt>
      <trkpt lat="48.68862" lon="2.4961">
        <ele>140</ele>
        <time>2014-10-07T09:58:52.641Z</time>
      </trkpt>
      <trkpt lat="48.68869" lon="2.49603">
        <ele>139</ele>
        <time>2014-10-07T09:59:00.638Z</time>
      </trkpt>
      <trkpt lat="48.6887" lon="2.49602">
        <ele>139</ele>
        <time>2014-10-07T09:59:01.642Z</time>
      </trkpt>
      <trkpt lat="48.68877" lon="2.49595">
        <ele>136</ele>
        <time>2014-10-07T09:59:09.701Z</time>
      </trkpt>
      <trkpt lat="48.68878" lon="2.49594">
        <ele>136</ele>
        <time>2014-10-07T09:59:10.651Z</time>
      </trkpt>
      <trkpt lat="48.68884" lon="2.49585">
        <ele>136</ele>
        <time>2014-10-07T09:59:18.830Z</time>
      </trkpt>
      <trkpt lat="48.68885" lon="2.49584">
        <ele>136</ele>
        <time>2014-10-07T09:59:19.634Z</time>
      </trkpt>
      <trkpt lat="48.68891" lon="2.49578">
        <ele>137</ele>
        <time>2014-10-07T09:59:26.642Z</time>
      </trkpt>
      <trkpt lat="48.68892" lon="2.49576">
        <ele>138</ele>
        <time>2014-10-07T09:59:27.643Z</time>
      </trkpt>
      <trkpt lat="48.68898" lon="2.49567">
        <ele>134</ele>
        <time>2014-10-07T09:59:34.600Z</time>
      </trkpt>
      <trkpt lat="48.68899" lon="2.49567">
        <ele>130</ele>
        <time>2014-10-07T09:59:35.641Z</time>
      </trkpt>
      <trkpt lat="48.68906" lon="2.49559">
        <ele>134</ele>
        <time>2014-10-07T09:59:42.626Z</time>
      </trkpt>
      <trkpt lat="48.68907" lon="2.49557">
        <ele>134</ele>
        <time>2014-10-07T09:59:43.643Z</time>
      </trkpt>
      <trkpt lat="48.68913" lon="2.49549">
        <ele>134</ele>
        <time>2014-10-07T09:59:49.645Z</time>
      </trkpt>
      <trkpt lat="48.68914" lon="2.49548">
        <ele>135</ele>
        <time>2014-10-07T09:59:50.685Z</time>
      </trkpt>
      <trkpt lat="48.68919" lon="2.49537">
        <ele>135</ele>
        <time>2014-10-07T10:00:01.000Z</time>
      </trkpt>
      <trkpt lat="48.68919" lon="2.49536">
        <ele>134</ele>
        <time>2014-10-07T10:00:01.601Z</time>
      </trkpt>
      <trkpt lat="48.68926" lon="2.4953">
        <ele>137</ele>
        <time>2014-10-07T10:00:13.636Z</time>
      </trkpt>
      <trkpt lat="48.68928" lon="2.49529">
        <ele>136</ele>
        <time>2014-10-07T10:00:14.646Z</time>
      </trkpt>
      <trkpt lat="48.68936" lon="2.49524">
        <ele>138</ele>
        <time>2014-10-07T10:00:20.589Z</time>
      </trkpt>
      <trkpt lat="48.68937" lon="2.49524">
        <ele>136</ele>
        <time>2014-10-07T10:00:21.636Z</time>
      </trkpt>
      <trkpt lat="48.68945" lon="2.49529">
        <ele>135</ele>
        <time>2014-10-07T10:00:29.353Z</time>
      </trkpt>
      <trkpt lat="48.68946" lon="2.49529">
        <ele>133</ele>
        <time>2014-10-07T10:00:29.597Z</time>
      </trkpt>
      <trkpt lat="48.68953" lon="2.49532">
        <ele>135</ele>
        <time>2014-10-07T10:00:35.646Z</time>
      </trkpt>
      <trkpt lat="48.68955" lon="2.49532">
        <ele>135</ele>
        <time>2014-10-07T10:00:36.623Z</time>
      </trkpt>
      <trkpt lat="48.68962" lon="2.49537">
        <ele>135</ele>
        <time>2014-10-07T10:00:42.637Z</time>
      </trkpt>
      <trkpt lat="48.68963" lon="2.49538">
        <ele>135</ele>
        <time>2014-10-07T10:00:43.599Z</time>
      </trkpt>
      <trkpt lat="48.6897" lon="2.49544">
        <ele>138</ele>
        <time>2014-10-07T10:00:48.974Z</time>
      </trkpt>
      <trkpt lat="48.68971" lon="2.49546">
        <ele>140</ele>
        <time>2014-10-07T10:00:49.597Z</time>
      </trkpt>
      <trkpt lat="48.68977" lon="2.49555">
        <ele>134</ele>
        <time>2014-10-07T10:00:58.635Z</time>
      </trkpt>
      <trkpt lat="48.68978" lon="2.49556">
        <ele>134</ele>
        <time>2014-10-07T10:00:59.637Z</time>
      </trkpt>
      <trkpt lat="48.68985" lon="2.49562">
        <ele>132</ele>
        <time>2014-10-07T10:01:08.637Z</time>
      </trkpt>
      <trkpt lat="48.68986" lon="2.49563">
        <ele>130</ele>
        <time>2014-10-07T10:01:09.599Z</time>
      </trkpt>
      <trkpt lat="48.68993" lon="2.49569">
        <ele>131</ele>
        <time>2014-10-07T10:01:18.598Z</time>
      </trkpt>
      <trkpt lat="48.68995" lon="2.49569">
        <ele>131</ele>
        <time>2014-10-07T10:01:19.592Z</time>
      </trkpt>
      <trkpt lat="48.69002" lon="2.49575">
        <ele>129</ele>
        <time>2014-10-07T10:01:26.596Z</time>
      </trkpt>
      <trkpt lat="48.69003" lon="2.49576">
        <ele>129</ele>
        <time>2014-10-07T10:01:27.598Z</time>
      </trkpt>
      <trkpt lat="48.69009" lon="2.49586">
        <ele>126</ele>
        <time>2014-10-07T10:01:35.644Z</time>
      </trkpt>
      <trkpt lat="48.6901" lon="2.49587">
        <ele>127</ele>
        <time>2014-10-07T10:01:36.638Z</time>
      </trkpt>
      <trkpt lat="48.69018" lon="2.49588">
        <ele>130</ele>
        <time>2014-10-07T10:01:41.599Z</time>
      </trkpt>
      <trkpt lat="48.6902" lon="2.49588">
        <ele>131</ele>
        <time>2014-10-07T10:01:42.646Z</time>
      </trkpt>
      <trkpt lat="48.69027" lon="2.49591">
        <ele>134</ele>
        <time>2014-10-07T10:01:46.656Z</time>
      </trkpt>
      <trkpt lat="48.69029" lon="2.49592">
        <ele>136</ele>
        <time>2014-10-07T10:01:47.641Z</time>
      </trkpt>
      <trkpt lat="48.69037" lon="2.49595">
        <ele>137</ele>
        <time>2014-10-07T10:01:52.632Z</time>
      </trkpt>
      <trkpt lat="48.69039" lon="2.49595">
        <ele>138</ele>
        <time>2014-10-07T10:01:53.645Z</time>
      </trkpt>
      <trkpt lat="48.69046" lon="2.49601">
        <ele>139</ele>
        <time>2014-10-07T10:01:59.634Z</time>
      </trkpt>
      <trkpt lat="48.69047" lon="2.49602">
        <ele>138</ele>
        <time>2014-10-07T10:02:00.626Z</time>
      </trkpt>
      <trkpt lat="48.69053" lon="2.49611">
        <ele>141</ele>
        <time>2014-10-07T10:02:06.600Z</time>
      </trkpt>
      <trkpt lat="48.69054" lon="2.49612">
        <ele>142</ele>
        <time>2014-10-07T10:02:07.597Z</time>
      </trkpt>
      <trkpt lat="48.6906" lon="2.49621">
        <ele>141</ele>
        <time>2014-10-07T10:02:13.633Z</time>
      </trkpt>
      <trkpt lat="48.69061" lon="2.49622">
        <ele>141</ele>
        <time>2014-10-07T10:02:14.645Z</time>
      </trkpt>
      <trkpt lat="48.69069" lon="2.49626">
        <ele>142</ele>
        <time>2014-10-07T10:02:21.638Z</time>
      </trkpt>
      <trkpt lat="48.69071" lon="2.49626">
        <ele>142</ele>
        <time>2014-10-07T10:02:22.631Z</time>
      </trkpt>
      <trkpt lat="48.69077" lon="2.49634">
        <ele>138</ele>
        <time>2014-10-07T10:02:31.299Z</time>
      </trkpt>
      <trkpt lat="48.69078" lon="2.49635">
        <ele>137</ele>
        <time>2014-10-07T10:02:31.619Z</time>
      </trkpt>
      <trkpt lat="48.69085" lon="2.49643">
        <ele>138</ele>
        <time>2014-10-07T10:02:43.637Z</time>
      </trkpt>
      <trkpt lat="48.69086" lon="2.49643">
        <ele>136</ele>
        <time>2014-10-07T10:02:44.595Z</time>
      </trkpt>
      <trkpt lat="48.69094" lon="2.49649">
        <ele>134</ele>
        <time>2014-10-07T10:02:51.592Z</time>
      </trkpt>
      <trkpt lat="48.69095" lon="2.4965">
        <ele>134</ele>
        <time>2014-10-07T10:02:52.644Z</time>
      </trkpt>
      <trkpt lat="48.69103" lon="2.49656">
        <ele>133</ele>
        <time>2014-10-07T10:03:01.588Z</time>
      </trkpt>
      <trkpt lat="48.69104" lon="2.49657">
        <ele>134</ele>
        <time>2014-10-07T10:03:02.635Z</time>
      </trkpt>
      <trkpt lat="48.69111" lon="2.49662">
        <ele>134</ele>
        <time>2014-10-07T10:03:09.593Z</time>
      </trkpt>
      <trkpt lat="48.69112" lon="2.49663">
        <ele>135</ele>
        <time>2014-10-07T10:03:10.632Z</time>
      </trkpt>
      <trkpt lat="48.6912" lon="2.49667">
        <ele>131</ele>
        <time>2014-10-07T10:03:19.661Z</time>
      </trkpt>
      <trkpt lat="48.69121" lon="2.49668">
        <ele>131</ele>
        <time>2014-10-07T10:03:20.643Z</time>
      </trkpt>
      <trkpt lat="48.69129" lon="2.49673">
        <ele>133</ele>
        <time>2014-10-07T10:03:26.590Z</time>
      </trkpt>
      <trkpt lat="48.6913" lon="2.49675">
        <ele>131</ele>
        <time>2014-10-07T10:03:27.638Z</time>
      </trkpt>
      <trkpt lat="48.69136" lon="2.49683">
        <ele>132</ele>
        <time>2014-10-07T10:03:32.645Z</time>
      </trkpt>
      <trkpt lat="48.69137" lon="2.49684">
        <ele>132</ele>
        <time>2014-10-07T10:03:33.641Z</time>
      </trkpt>
      <trkpt lat="48.69144" lon="2.49691">
        <ele>132</ele>
        <time>2014-10-07T10:03:40.637Z</time>
      </trkpt>
      <trkpt lat="48.69145" lon="2.49692">
        <ele>130</ele>
        <time>2014-10-07T10:03:41.644Z</time>
      </trkpt>
      <trkpt lat="48.69153" lon="2.49698">
        <ele>130</ele>
        <time>2014-10-07T10:03:50.638Z</time>
      </trkpt>
      <trkpt lat="48.69154" lon="2.49699">
        <ele>130</ele>
        <time>2014-10-07T10:03:51.608Z</time>
      </trkpt>
      <trkpt lat="48.69161" lon="2.49706">
        <ele>127</ele>
        <time>2014-10-07T10:03:59.651Z</time>
      </trkpt>
      <trkpt lat="48.69162" lon="2.49707">
        <ele>126</ele>
        <time>2014-10-07T10:04:00.675Z</time>
      </trkpt>
      <trkpt lat="48.69169" lon="2.49711">
        <ele>130</ele>
        <time>2014-10-07T10:04:06.640Z</time>
      </trkpt>
      <trkpt lat="48.69171" lon="2.49712">
        <ele>131</ele>
        <time>2014-10-07T10:04:07.642Z</time>
      </trkpt>
      <trkpt lat="48.69178" lon="2.49717">
        <ele>129</ele>
        <time>2014-10-07T10:04:15.589Z</time>
      </trkpt>
      <trkpt lat="48.69179" lon="2.49718">
        <ele>130</ele>
        <time>2014-10-07T10:04:16.631Z</time>
      </trkpt>
      <trkpt lat="48.69187" lon="2.49725">
        <ele>128</ele>
        <time>2014-10-07T10:04:24.635Z</time>
      </trkpt>
      <trkpt lat="48.69188" lon="2.49726">
        <ele>125</ele>
        <time>2014-10-07T10:04:25.634Z</time>
      </trkpt>
      <trkpt lat="48.69193" lon="2.49737">
        <ele>125</ele>
        <time>2014-10-07T10:04:32.595Z</time>
      </trkpt>
      <trkpt lat="48.69194" lon="2.49738">
        <ele>124</ele>
        <time>2014-10-07T10:04:33.630Z</time>
      </trkpt>
      <trkpt lat="48.69201" lon="2.49746">
        <ele>123</ele>
        <time>2014-10-07T10:04:41.598Z</time>
      </trkpt>
      <trkpt lat="48.69202" lon="2.49747">
        <ele>124</ele>
        <time>2014-10-07T10:04:42.645Z</time>
      </trkpt>
      <trkpt lat="48.69209" lon="2.4975">
        <ele>126</ele>
        <time>2014-10-07T10:04:49.053Z</time>
      </trkpt>
      <trkpt lat="48.6921" lon="2.4975">
        <ele>125</ele>
        <time>2014-10-07T10:04:49.685Z</time>
      </trkpt>
      <trkpt lat="48.69218" lon="2.49753">
        <ele>125</ele>
        <time>2014-10-07T10:04:56.644Z</time>
      </trkpt>
      <trkpt lat="48.6922" lon="2.49754">
        <ele>126</ele>
        <time>2014-10-07T10:04:57.597Z</time>
      </trkpt>
      <trkpt lat="48.69226" lon="2.4976">
        <ele>126</ele>
        <time>2014-10-07T10:05:02.635Z</time>
      </trkpt>
      <trkpt lat="48.69228" lon="2.4976">
        <ele>127</ele>
        <time>2014-10-07T10:05:03.623Z</time>
      </trkpt>
      <trkpt lat="48.69235" lon="2.49765">
        <ele>128</ele>
        <time>2014-10-07T10:05:09.590Z</time>
      </trkpt>
      <trkpt lat="48.69236" lon="2.49766">
        <ele>129</ele>
        <time>2014-10-07T10:05:10.594Z</time>
      </trkpt>
      <trkpt lat="48.69242" lon="2.49776">
        <ele>129</ele>
        <time>2014-10-07T10:05:16.639Z</time>
      </trkpt>
      <trkpt lat="48.69243" lon="2.49778">
        <ele>131</ele>
        <time>2014-10-07T10:05:17.592Z</time>
      </trkpt>
      <trkpt lat="48.69248" lon="2.49788">
        <ele>133</ele>
        <time>2014-10-07T10:05:23.818Z</time>
      </trkpt>
      <trkpt lat="48.69249" lon="2.49789">
        <ele>134</ele>
        <time>2014-10-07T10:05:24.601Z</time>
      </trkpt>
      <trkpt lat="48.69253" lon="2.49777">
        <ele>130</ele>
        <time>2014-10-07T10:05:59.600Z</time>
      </trkpt>
      <trkpt lat="48.69254" lon="2.49776">
        <ele>128</ele>
        <time>2014-10-07T10:06:00.637Z</time>
      </trkpt>
      <trkpt lat="48.69261" lon="2.49778">
        <ele>122</ele>
        <time>2014-10-07T10:06:09.007Z</time>
      </trkpt>
      <trkpt lat="48.69262" lon="2.49779">
        <ele>122</ele>
        <time>2014-10-07T10:06:09.637Z</time>
      </trkpt>
      <trkpt lat="48.69269" lon="2.49785">
        <ele>122</ele>
        <time>2014-10-07T10:06:14.598Z</time>
      </trkpt>
      <trkpt lat="48.6927" lon="2.49786">
        <ele>122</ele>
        <time>2014-10-07T10:06:15.638Z</time>
      </trkpt>
      <trkpt lat="48.69277" lon="2.49792">
        <ele>121</ele>
        <time>2014-10-07T10:06:20.632Z</time>
      </trkpt>
      <trkpt lat="48.69279" lon="2.49793">
        <ele>120</ele>
        <time>2014-10-07T10:06:21.645Z</time>
      </trkpt>
      <trkpt lat="48.69285" lon="2.498">
        <ele>120</ele>
        <time>2014-10-07T10:06:26.645Z</time>
      </trkpt>
      <trkpt lat="48.69286" lon="2.49801">
        <ele>121</ele>
        <time>2014-10-07T10:06:27.639Z</time>
      </trkpt>
      <trkpt lat="48.69293" lon="2.49809">
        <ele>118</ele>
        <time>2014-10-07T10:06:35.604Z</time>
      </trkpt>
      <trkpt lat="48.69295" lon="2.49809">
        <ele>118</ele>
        <time>2014-10-07T10:06:36.646Z</time>
      </trkpt>
      <trkpt lat="48.69302" lon="2.49814">
        <ele>120</ele>
        <time>2014-10-07T10:06:41.606Z</time>
      </trkpt>
      <trkpt lat="48.69303" lon="2.49816">
        <ele>119</ele>
        <time>2014-10-07T10:06:42.639Z</time>
      </trkpt>
      <trkpt lat="48.6931" lon="2.49822">
        <ele>118</ele>
        <time>2014-10-07T10:06:47.644Z</time>
      </trkpt>
      <trkpt lat="48.69312" lon="2.49823">
        <ele>118</ele>
        <time>2014-10-07T10:06:48.596Z</time>
      </trkpt>
      <trkpt lat="48.69318" lon="2.49832">
        <ele>116</ele>
        <time>2014-10-07T10:06:55.598Z</time>
      </trkpt>
      <trkpt lat="48.69319" lon="2.49834">
        <ele>116</ele>
        <time>2014-10-07T10:06:56.643Z</time>
      </trkpt>
      <trkpt lat="48.69322" lon="2.49846">
        <ele>116</ele>
        <time>2014-10-07T10:07:04.474Z</time>
      </trkpt>
      <trkpt lat="48.69323" lon="2.49848">
        <ele>117</ele>
        <time>2014-10-07T10:07:04.596Z</time>
      </trkpt>
      <trkpt lat="48.69327" lon="2.49859">
        <ele>116</ele>
        <time>2014-10-07T10:07:10.643Z</time>
      </trkpt>
      <trkpt lat="48.69328" lon="2.49861">
        <ele>116</ele>
        <time>2014-10-07T10:07:11.637Z</time>
      </trkpt>
      <trkpt lat="48.69326" lon="2.49873">
        <ele>116</ele>
        <time>2014-10-07T10:07:17.636Z</time>
      </trkpt>
      <trkpt lat="48.69325" lon="2.49875">
        <ele>115</ele>
        <time>2014-10-07T10:07:18.644Z</time>
      </trkpt>
      <trkpt lat="48.69324" lon="2.49887">
        <ele>115</ele>
        <time>2014-10-07T10:07:25.598Z</time>
      </trkpt>
      <trkpt lat="48.69323" lon="2.49889">
        <ele>115</ele>
        <time>2014-10-07T10:07:26.654Z</time>
      </trkpt>
      <trkpt lat="48.6932" lon="2.49901">
        <ele>115</ele>
        <time>2014-10-07T10:07:35.536Z</time>
      </trkpt>
      <trkpt lat="48.6932" lon="2.49903">
        <ele>115</ele>
        <time>2014-10-07T10:07:35.601Z</time>
      </trkpt>
      <trkpt lat="48.69317" lon="2.49915">
        <ele>115</ele>
        <time>2014-10-07T10:07:43.146Z</time>
      </trkpt>
      <trkpt lat="48.69316" lon="2.49918">
        <ele>117</ele>
        <time>2014-10-07T10:07:43.632Z</time>
      </trkpt>
      <trkpt lat="48.69313" lon="2.4993">
        <ele>118</ele>
        <time>2014-10-07T10:07:49.592Z</time>
      </trkpt>
      <trkpt lat="48.69313" lon="2.49932">
        <ele>116</ele>
        <time>2014-10-07T10:07:50.597Z</time>
      </trkpt>
      <trkpt lat="48.6931" lon="2.49943">
        <ele>117</ele>
        <time>2014-10-07T10:07:57.599Z</time>
      </trkpt>
      <trkpt lat="48.69309" lon="2.49944">
        <ele>117</ele>
        <time>2014-10-07T10:07:58.602Z</time>
      </trkpt>
      <trkpt lat="48.69303" lon="2.49953">
        <ele>116</ele>
        <time>2014-10-07T10:08:04.611Z</time>
      </trkpt>
      <trkpt lat="48.69303" lon="2.49954">
        <ele>117</ele>
        <time>2014-10-07T10:08:05.605Z</time>
      </trkpt>
      <trkpt lat="48.69296" lon="2.49963">
        <ele>114</ele>
        <time>2014-10-07T10:08:13.599Z</time>
      </trkpt>
      <trkpt lat="48.69295" lon="2.49965">
        <ele>114</ele>
        <time>2014-10-07T10:08:14.600Z</time>
      </trkpt>
      <trkpt lat="48.69289" lon="2.49974">
        <ele>115</ele>
        <time>2014-10-07T10:08:21.643Z</time>
      </trkpt>
      <trkpt lat="48.69288" lon="2.49975">
        <ele>115</ele>
        <time>2014-10-07T10:08:22.644Z</time>
      </trkpt>
      <trkpt lat="48.69285" lon="2.49987">
        <ele>115</ele>
        <time>2014-10-07T10:08:29.414Z</time>
      </trkpt>
      <trkpt lat="48.69284" lon="2.49988">
        <ele>116</ele>
        <time>2014-10-07T10:08:29.589Z</time>
      </trkpt>
      <trkpt lat="48.69282" lon="2.50001">
        <ele>116</ele>
        <time>2014-10-07T10:08:35.638Z</time>
      </trkpt>
      <trkpt lat="48.69281" lon="2.50003">
        <ele>116</ele>
        <time>2014-10-07T10:08:36.640Z</time>
      </trkpt>
      <trkpt lat="48.69283" lon="2.50016">
        <ele>120</ele>
        <time>2014-10-07T10:08:42.664Z</time>
      </trkpt>
      <trkpt lat="48.69283" lon="2.50018">
        <ele>119</ele>
        <time>2014-10-07T10:08:43.593Z</time>
      </trkpt>
      <trkpt lat="48.69283" lon="2.5003">
        <ele>118</ele>
        <time>2014-10-07T10:08:49.598Z</time>
      </trkpt>
      <trkpt lat="48.69283" lon="2.50032">
        <ele>118</ele>
        <time>2014-10-07T10:08:50.643Z</time>
      </trkpt>
      <trkpt lat="48.69284" lon="2.50044">
        <ele>116</ele>
        <time>2014-10-07T10:08:58.673Z</time>
      </trkpt>
      <trkpt lat="48.69284" lon="2.50046">
        <ele>116</ele>
        <time>2014-10-07T10:08:59.598Z</time>
      </trkpt>
      <trkpt lat="48.69289" lon="2.50057">
        <ele>114</ele>
        <time>2014-10-07T10:09:06.589Z</time>
      </trkpt>
      <trkpt lat="48.69289" lon="2.50059">
        <ele>114</ele>
        <time>2014-10-07T10:09:07.716Z</time>
      </trkpt>
      <trkpt lat="48.69294" lon="2.50068">
        <ele>113</ele>
        <time>2014-10-07T10:09:14.489Z</time>
      </trkpt>
      <trkpt lat="48.69295" lon="2.5007">
        <ele>113</ele>
        <time>2014-10-07T10:09:14.590Z</time>
      </trkpt>
      <trkpt lat="48.69301" lon="2.50078">
        <ele>111</ele>
        <time>2014-10-07T10:09:20.632Z</time>
      </trkpt>
      <trkpt lat="48.69302" lon="2.5008">
        <ele>111</ele>
        <time>2014-10-07T10:09:21.687Z</time>
      </trkpt>
      <trkpt lat="48.69306" lon="2.5009">
        <ele>109</ele>
        <time>2014-10-07T10:09:27.637Z</time>
      </trkpt>
      <trkpt lat="48.69307" lon="2.50091">
        <ele>109</ele>
        <time>2014-10-07T10:09:28.647Z</time>
      </trkpt>
      <trkpt lat="48.6931" lon="2.50104">
        <ele>113</ele>
        <time>2014-10-07T10:09:36.637Z</time>
      </trkpt>
      <trkpt lat="48.6931" lon="2.50105">
        <ele>114</ele>
        <time>2014-10-07T10:09:37.636Z</time>
      </trkpt>
      <trkpt lat="48.69316" lon="2.50115">
        <ele>115</ele>
        <time>2014-10-07T10:10:25.634Z</time>
      </trkpt>
      <trkpt lat="48.69317" lon="2.50115">
        <ele>114</ele>
        <time>2014-10-07T10:10:26.636Z</time>
      </trkpt>
      <trkpt lat="48.69326" lon="2.50115">
        <ele>113</ele>
        <time>2014-10-07T10:10:35.647Z</time>
      </trkpt>
      <trkpt lat="48.69327" lon="2.50115">
        <ele>112</ele>
        <time>2014-10-07T10:10:36.644Z</time>
      </trkpt>
      <trkpt lat="48.69335" lon="2.50113">
        <ele>114</ele>
        <time>2014-10-07T10:10:43.637Z</time>
      </trkpt>
      <trkpt lat="48.69337" lon="2.50113">
        <ele>114</ele>
        <time>2014-10-07T10:10:44.642Z</time>
      </trkpt>
      <trkpt lat="48.69344" lon="2.50108">
        <ele>114</ele>
        <time>2014-10-07T10:10:50.062Z</time>
      </trkpt>
      <trkpt lat="48.69345" lon="2.50107">
        <ele>113</ele>
        <time>2014-10-07T10:10:50.606Z</time>
      </trkpt>
      <trkpt lat="48.69352" lon="2.50101">
        <ele>108</ele>
        <time>2014-10-07T10:10:58.688Z</time>
      </trkpt>
      <trkpt lat="48.69353" lon="2.501">
        <ele>109</ele>
        <time>2014-10-07T10:10:59.637Z</time>
      </trkpt>
      <trkpt lat="48.69361" lon="2.50096">
        <ele>105</ele>
        <time>2014-10-07T10:11:08.669Z</time>
      </trkpt>
      <trkpt lat="48.69362" lon="2.50095">
        <ele>105</ele>
        <time>2014-10-07T10:11:09.627Z</time>
      </trkpt>
      <trkpt lat="48.6937" lon="2.50091">
        <ele>105</ele>
        <time>2014-10-07T10:11:16.592Z</time>
      </trkpt>
      <trkpt lat="48.69371" lon="2.5009">
        <ele>106</ele>
        <time>2014-10-07T10:11:17.592Z</time>
      </trkpt>
      <trkpt lat="48.69378" lon="2.50084">
        <ele>105</ele>
        <time>2014-10-07T10:11:24.382Z</time>
      </trkpt>
      <trkpt lat="48.6938" lon="2.50084">
        <ele>104</ele>
        <time>2014-10-07T10:11:24.699Z</time>
      </trkpt>
      <trkpt lat="48.69388" lon="2.50083">
        <ele>100</ele>
        <time>2014-10-07T10:11:32.453Z</time>
      </trkpt>
      <trkpt lat="48.69389" lon="2.50083">
        <ele>101</ele>
        <time>2014-10-07T10:11:32.596Z</time>
      </trkpt>
      <trkpt lat="48.69397" lon="2.50082">
        <ele>100</ele>
        <time>2014-10-07T10:11:40.700Z</time>
      </trkpt>
      <trkpt lat="48.69398" lon="2.50081">
        <ele>102</ele>
        <time>2014-10-07T10:11:41.635Z</time>
      </trkpt>
      <trkpt lat="48.69406" lon="2.50078">
        <ele>104</ele>
        <time>2014-10-07T10:11:46.631Z</time>
      </trkpt>
      <trkpt lat="48.69407" lon="2.50078">
        <ele>104</ele>
        <time>2014-10-07T10:11:47.598Z</time>
      </trkpt>
      <trkpt lat="48.69415" lon="2.5008">
        <ele>107</ele>
        <time>2014-10-07T10:12:11.265Z</time>
      </trkpt>
      <trkpt lat="48.69416" lon="2.50081">
        <ele>108</ele>
        <time>2014-10-07T10:12:11.593Z</time>
      </trkpt>
      <trkpt lat="48.69423" lon="2.50089">
        <ele>103</ele>
        <time>2014-10-07T10:12:19.593Z</time>
      </trkpt>
      <trkpt lat="48.69424" lon="2.5009">
        <ele>104</ele>
        <time>2014-10-07T10:12:20.597Z</time>
      </trkpt>
      <trkpt lat="48.69426" lon="2.50101">
        <ele>98</ele>
        <time>2014-10-07T10:12:27.590Z</time>
      </trkpt>
      <trkpt lat="48.69427" lon="2.50103">
        <ele>98</ele>
        <time>2014-10-07T10:12:28.649Z</time>
      </trkpt>
      <trkpt lat="48.69428" lon="2.50115">
        <ele>94</ele>
        <time>2014-10-07T10:12:35.591Z</time>
      </trkpt>
      <trkpt lat="48.69428" lon="2.50116">
        <ele>93</ele>
        <time>2014-10-07T10:12:36.591Z</time>
      </trkpt>
      <trkpt lat="48.6943" lon="2.50129">
        <ele>94</ele>
        <time>2014-10-07T10:12:43.769Z</time>
      </trkpt>
      <trkpt lat="48.69431" lon="2.50131">
        <ele>94</ele>
        <time>2014-10-07T10:12:44.594Z</time>
      </trkpt>
      <trkpt lat="48.69436" lon="2.50141">
        <ele>94</ele>
        <time>2014-10-07T10:12:50.642Z</time>
      </trkpt>
      <trkpt lat="48.69437" lon="2.50143">
        <ele>94</ele>
        <time>2014-10-07T10:12:51.598Z</time>
      </trkpt>
      <trkpt lat="48.69441" lon="2.50154">
        <ele>93</ele>
        <time>2014-10-07T10:12:58.594Z</time>
      </trkpt>
      <trkpt lat="48.69441" lon="2.50156">
        <ele>91</ele>
        <time>2014-10-07T10:12:59.605Z</time>
      </trkpt>
      <trkpt lat="48.69442" lon="2.50169">
        <ele>88</ele>
        <time>2014-10-07T10:13:06.663Z</time>
      </trkpt>
      <trkpt lat="48.69443" lon="2.5017">
        <ele>89</ele>
        <time>2014-10-07T10:13:07.597Z</time>
      </trkpt>
      <trkpt lat="48.69449" lon="2.50178">
        <ele>89</ele>
        <time>2014-10-07T10:13:13.600Z</time>
      </trkpt>
      <trkpt lat="48.6945" lon="2.5018">
        <ele>89</ele>
        <time>2014-10-07T10:13:14.635Z</time>
      </trkpt>
      <trkpt lat="48.69455" lon="2.50191">
        <ele>88</ele>
        <time>2014-10-07T10:13:23.598Z</time>
      </trkpt>
      <trkpt lat="48.69456" lon="2.50192">
        <ele>87</ele>
        <time>2014-10-07T10:13:24.641Z</time>
      </trkpt>
      <trkpt lat="48.6946" lon="2.50203">
        <ele>88</ele>
        <time>2014-10-07T10:13:31.641Z</time>
      </trkpt>
      <trkpt lat="48.69461" lon="2.50204">
        <ele>89</ele>
        <time>2014-10-07T10:13:32.634Z</time>
      </trkpt>
      <trkpt lat="48.69467" lon="2.50214">
        <ele>90</ele>
        <time>2014-10-07T10:13:40.636Z</time>
      </trkpt>
      <trkpt lat="48.69468" lon="2.50215">
        <ele>90</ele>
        <time>2014-10-07T10:13:41.593Z</time>
      </trkpt>
      <trkpt lat="48.69472" lon="2.50226">
        <ele>87</ele>
        <time>2014-10-07T10:13:49.635Z</time>
      </trkpt>
      <trkpt lat="48.69472" lon="2.50228">
        <ele>87</ele>
        <time>2014-10-07T10:13:50.629Z</time>
      </trkpt>
      <trkpt lat="48.69466" lon="2.50236">
        <ele>87</ele>
        <time>2014-10-07T10:14:02.651Z</time>
      </trkpt>
      <trkpt lat="48.69465" lon="2.50238">
        <ele>87</ele>
        <time>2014-10-07T10:14:03.634Z</time>
      </trkpt>
      <trkpt lat="48.69467" lon="2.5025">
        <ele>89</ele>
        <time>2014-10-07T10:14:12.633Z</time>
      </trkpt>
      <trkpt lat="48.69467" lon="2.50251">
        <ele>89</ele>
        <time>2014-10-07T10:14:13.630Z</time>
      </trkpt>
      <trkpt lat="48.69467" lon="2.50265">
        <ele>89</ele>
        <time>2014-10-07T10:14:24.589Z</time>
      </trkpt>
      <trkpt lat="48.69467" lon="2.50265">
        <ele>92</ele>
        <time>2014-10-07T10:14:25.589Z</time>
      </trkpt>
      <trkpt lat="48.69475" lon="2.5027">
        <ele>93</ele>
        <time>2014-10-07T10:14:37.596Z</time>
      </trkpt>
      <trkpt lat="48.69476" lon="2.5027">
        <ele>92</ele>
        <time>2014-10-07T10:14:38.590Z</time>
      </trkpt>
      <trkpt lat="48.69484" lon="2.50275">
        <ele>93</ele>
        <time>2014-10-07T10:14:47.422Z</time>
      </trkpt>
      <trkpt lat="48.69485" lon="2.50275">
        <ele>93</ele>
        <time>2014-10-07T10:14:47.596Z</time>
      </trkpt>
      <trkpt lat="48.69492" lon="2.50271">
        <ele>91</ele>
        <time>2014-10-07T10:14:58.616Z</time>
      </trkpt>
      <trkpt lat="48.69494" lon="2.50271">
        <ele>92</ele>
        <time>2014-10-07T10:14:59.638Z</time>
      </trkpt>
      <trkpt lat="48.69502" lon="2.50267">
        <ele>91</ele>
        <time>2014-10-07T10:15:07.591Z</time>
      </trkpt>
      <trkpt lat="48.69503" lon="2.50267">
        <ele>91</ele>
        <time>2014-10-07T10:15:08.632Z</time>
      </trkpt>
      <trkpt lat="48.69512" lon="2.50268">
        <ele>90</ele>
        <time>2014-10-07T10:15:17.678Z</time>
      </trkpt>
      <trkpt lat="48.69513" lon="2.50268">
        <ele>91</ele>
        <time>2014-10-07T10:15:18.634Z</time>
      </trkpt>
      <trkpt lat="48.69521" lon="2.50272">
        <ele>90</ele>
        <time>2014-10-07T10:15:27.629Z</time>
      </trkpt>
      <trkpt lat="48.69522" lon="2.50272">
        <ele>91</ele>
        <time>2014-10-07T10:15:28.589Z</time>
      </trkpt>
      <trkpt lat="48.6953" lon="2.50275">
        <ele>90</ele>
        <time>2014-10-07T10:15:36.631Z</time>
      </trkpt>
      <trkpt lat="48.69531" lon="2.50275">
        <ele>91</ele>
        <time>2014-10-07T10:15:37.635Z</time>
      </trkpt>
      <trkpt lat="48.69538" lon="2.50282">
        <ele>87</ele>
        <time>2014-10-07T10:15:44.625Z</time>
      </trkpt>
      <trkpt lat="48.69539" lon="2.50283">
        <ele>86</ele>
        <time>2014-10-07T10:15:45.590Z</time>
      </trkpt>
      <trkpt lat="48.69544" lon="2.50293">
        <ele>86</ele>
        <time>2014-10-07T10:15:54.633Z</time>
      </trkpt>
      <trkpt lat="48.69546" lon="2.50294">
        <ele>85</ele>
        <time>2014-10-07T10:15:55.636Z</time>
      </trkpt>
      <trkpt lat="48.69553" lon="2.50293">
        <ele>87</ele>
        <time>2014-10-07T10:16:01.636Z</time>
      </trkpt>
      <trkpt lat="48.69555" lon="2.50293">
        <ele>87</ele>
        <time>2014-10-07T10:16:02.635Z</time>
      </trkpt>
      <trkpt lat="48.69563" lon="2.50297">
        <ele>84</ele>
        <time>2014-10-07T10:16:11.695Z</time>
      </trkpt>
      <trkpt lat="48.69564" lon="2.50297">
        <ele>85</ele>
        <time>2014-10-07T10:16:12.616Z</time>
      </trkpt>
      <trkpt lat="48.69572" lon="2.503">
        <ele>86</ele>
        <time>2014-10-07T10:16:18.591Z</time>
      </trkpt>
      <trkpt lat="48.69573" lon="2.50301">
        <ele>86</ele>
        <time>2014-10-07T10:16:19.638Z</time>
      </trkpt>
      <trkpt lat="48.69581" lon="2.50304">
        <ele>92</ele>
        <time>2014-10-07T10:16:24.645Z</time>
      </trkpt>
      <trkpt lat="48.69583" lon="2.50304">
        <ele>94</ele>
        <time>2014-10-07T10:16:25.643Z</time>
      </trkpt>
      <trkpt lat="48.69591" lon="2.50304">
        <ele>94</ele>
        <time>2014-10-07T10:16:30.637Z</time>
      </trkpt>
      <trkpt lat="48.69593" lon="2.50304">
        <ele>94</ele>
        <time>2014-10-07T10:16:31.631Z</time>
      </trkpt>
      <trkpt lat="48.69601" lon="2.50308">
        <ele>97</ele>
        <time>2014-10-07T10:16:36.603Z</time>
      </trkpt>
      <trkpt lat="48.69603" lon="2.50309">
        <ele>96</ele>
        <time>2014-10-07T10:16:37.643Z</time>
      </trkpt>
      <trkpt lat="48.6961" lon="2.50311">
        <ele>95</ele>
        <time>2014-10-07T10:16:42.591Z</time>
      </trkpt>
      <trkpt lat="48.69612" lon="2.50312">
        <ele>96</ele>
        <time>2014-10-07T10:16:43.631Z</time>
      </trkpt>
      <trkpt lat="48.69619" lon="2.50318">
        <ele>96</ele>
        <time>2014-10-07T10:16:52.632Z</time>
      </trkpt>
      <trkpt lat="48.6962" lon="2.5032">
        <ele>95</ele>
        <time>2014-10-07T10:16:53.639Z</time>
      </trkpt>
      <trkpt lat="48.69627" lon="2.50327">
        <ele>92</ele>
        <time>2014-10-07T10:17:01.639Z</time>
      </trkpt>
      <trkpt lat="48.69628" lon="2.50327">
        <ele>92</ele>
        <time>2014-10-07T10:17:02.636Z</time>
      </trkpt>
      <trkpt lat="48.69626" lon="2.5034">
        <ele>90</ele>
        <time>2014-10-07T10:17:12.633Z</time>
      </trkpt>
      <trkpt lat="48.69626" lon="2.50342">
        <ele>90</ele>
        <time>2014-10-07T10:17:13.642Z</time>
      </trkpt>
      <trkpt lat="48.69621" lon="2.50352">
        <ele>87</ele>
        <time>2014-10-07T10:17:23.196Z</time>
      </trkpt>
      <trkpt lat="48.69621" lon="2.50354">
        <ele>87</ele>
        <time>2014-10-07T10:17:23.603Z</time>
      </trkpt>
      <trkpt lat="48.69617" lon="2.50366">
        <ele>87</ele>
        <time>2014-10-07T10:17:31.639Z</time>
      </trkpt>
      <trkpt lat="48.69617" lon="2.50367">
        <ele>87</ele>
        <time>2014-10-07T10:17:32.597Z</time>
      </trkpt>
      <trkpt lat="48.69613" lon="2.50379">
        <ele>86</ele>
        <time>2014-10-07T10:17:55.590Z</time>
      </trkpt>
      <trkpt lat="48.69614" lon="2.5038">
        <ele>86</ele>
        <time>2014-10-07T10:17:56.623Z</time>
      </trkpt>
      <trkpt lat="48.69608" lon="2.50373">
        <ele>88</ele>
        <time>2014-10-07T10:21:32.686Z</time>
      </trkpt>
    </trkseg>
  </trk>
</gpx>